| time (UTC) | temp F | wind direction | speed knots | gust knots | rain 1hr in | rain 24hr in | rain mn in | humidity % | barometer mb |
| 20260901190457 | 89 | 296 | 1.7 | 5.2 | 0.00 | 0.00 | 0.00 | 46 | 1014.6 |
| 20260901190421 | 89 | 296 | 2.6 | 5.2 | 0.00 | 0.00 | 0.00 | 47 | 1014.6 |
| 20260901190306 | 89 | 314 | 3.5 | 5.2 | 0.00 | 0.00 | 0.00 | 48 | 1014.6 |
| 20260901190214 | 89 | 315 | 3.5 | 5.2 | 0.00 | 0.00 | 0.00 | 49 | 1014.6 |
| 20260901190120 | 89 | 304 | 2.6 | 5.2 | 0.00 | 0.00 | 0.00 | 48 | 1014.6 |
| 20260901185957 | 89 | 269 | 2.6 | 7.8 | 0.00 | 0.00 | 0.00 | 46 | 1014.6 |
| 20260901185903 | 89 | 299 | 1.7 | 7.8 | 0.00 | 0.00 | 0.00 | 47 | 1014.6 |
| 20260901185827 | 89 | 344 | 1.7 | 7.8 | 0.00 | 0.00 | 0.00 | 49 | 1014.6 |
| 20260901185709 | 89 | 350 | 1.7 | 7.8 | 0.00 | 0.00 | 0.00 | 50 | 1014.6 |
| 20260901185558 | 89 | 346 | 2.6 | 7.8 | 0.00 | 0.00 | 0.00 | 50 | 1014.6 |
| 20260901185503 | 89 | 338 | 3.5 | 7.8 | 0.00 | 0.00 | 0.00 | 54 | 1014.6 |
| 20260901185407 | 88 | 348 | 4.3 | 7.8 | 0.00 | 0.00 | 0.00 | 52 | 1014.6 |
| 20260901185313 | 88 | 360 | 5.2 | 7.8 | 0.00 | 0.00 | 0.00 | 55 | 1014.6 |
| 20260901185157 | 88 | 346 | 4.3 | 7.0 | 0.00 | 0.00 | 0.00 | 50 | 1014.6 |
| 20260901185101 | 88 | 360 | 4.3 | 7.0 | 0.00 | 0.00 | 0.00 | 53 | 1014.6 |
| 20260901185006 | 88 | 350 | 4.3 | 7.0 | 0.00 | 0.00 | 0.00 | 53 | 1014.6 |
| 20260901184916 | 88 | 44 | 4.3 | 7.8 | 0.00 | 0.00 | 0.00 | 50 | 1014.6 |
| 20260901184818 | 88 | 40 | 3.5 | 7.8 | 0.00 | 0.00 | 0.00 | 50 | 1014.6 |
| 20260901184656 | 88 | 36 | 2.6 | 7.8 | 0.00 | 0.00 | 0.00 | 52 | 1014.6 |
| 20260901184600 | 88 | 56 | 3.5 | 7.8 | 0.00 | 0.00 | 0.00 | 52 | 1014.7 |
| 20260901184504 | 88 | 51 | 3.5 | 7.8 | 0.00 | 0.00 | 0.00 | 52 | 1014.7 |
| 20260901184406 | 87 | 12 | 3.5 | 7.8 | 0.00 | 0.00 | 0.00 | 55 | 1014.7 |
| 20260901184309 | 87 | 53 | 1.7 | 7.8 | 0.00 | 0.00 | 0.00 | 50 | 1014.7 |
| 20260901184157 | 87 | 350 | 3.5 | 7.8 | 0.00 | 0.00 | 0.00 | 53 | 1014.7 |
| 20260901184120 | 87 | 350 | 4.3 | 7.8 | 0.00 | 0.00 | 0.00 | 55 | 1014.7 |
| 20260901183958 | 87 | 334 | 3.5 | 7.0 | 0.00 | 0.00 | 0.00 | 56 | 1014.8 |
| 20260901183922 | 86 | 344 | 1.7 | 4.3 | 0.00 | 0.00 | 0.00 | 56 | 1014.7 |
| 20260901183802 | 86 | 30 | 0.0 | 3.5 | 0.00 | 0.00 | 0.00 | 56 | 1014.7 |
| 20260901183726 | 86 | 355 | 0.9 | 3.5 | 0.00 | 0.00 | 0.00 | 52 | 1014.8 |
| 20260901183609 | 86 | 355 | 1.7 | 3.5 | 0.00 | 0.00 | 0.00 | 51 | 1014.8 |
| 20260901183502 | 86 | 355 | 0.9 | 3.5 | 0.00 | 0.00 | 0.00 | 52 | 1014.8 |
| 20260901183426 | 86 | 355 | 0.9 | 3.5 | 0.00 | 0.00 | 0.00 | 52 | 1014.8 |
| 20260901183352 | 85 | 350 | 0.9 | 3.5 | 0.00 | 0.00 | 0.00 | 53 | 1014.9 |
| 20260901183247 | 85 | 351 | 1.7 | 3.5 | 0.00 | 0.00 | 0.00 | 61 | 1014.9 |
| 20260901183006 | 85 | 77 | 1.7 | 3.5 | 0.00 | 0.00 | 0.00 | 59 | 1014.9 |
| 20260901182910 | 85 | 112 | 1.7 | 3.5 | 0.00 | 0.00 | 0.00 | 55 | 1014.9 |
| 20260901182754 | 85 | 130 | 1.7 | 3.5 | 0.00 | 0.00 | 0.00 | 53 | 1014.8 |
| 20260901182719 | 85 | 130 | 2.6 | 3.5 | 0.00 | 0.00 | 0.00 | 53 | 1014.9 |
| 20260901182603 | 85 | 146 | 1.7 | 3.5 | 0.00 | 0.00 | 0.00 | 52 | 1014.9 |
| 20260901182508 | 85 | 151 | 1.7 | 4.3 | 0.00 | 0.00 | 0.00 | 52 | 1014.9 |
| 20260901182357 | 85 | 151 | 2.6 | 4.3 | 0.00 | 0.00 | 0.00 | 52 | 1014.8 |
| 20260901182300 | 85 | 151 | 1.7 | 4.3 | 0.00 | 0.00 | 0.00 | 51 | 1014.9 |
| 20260901182204 | 86 | 151 | 1.7 | 4.3 | 0.00 | 0.00 | 0.00 | 52 | 1014.9 |
| 20260901182108 | 86 | 103 | 1.7 | 4.3 | 0.00 | 0.00 | 0.00 | 52 | 1014.9 |
| 20260901182013 | 86 | 103 | 0.9 | 4.3 | 0.00 | 0.00 | 0.00 | 53 | 1014.9 |
| 20260901181858 | 86 | 32 | 1.7 | 4.3 | 0.00 | 0.00 | 0.00 | 55 | 1014.9 |
| 20260901181807 | 85 | 32 | 2.6 | 4.3 | 0.00 | 0.00 | 0.00 | 58 | 1014.9 |
| 20260901181711 | 85 | 33 | 2.6 | 4.3 | 0.00 | 0.00 | 0.00 | 57 | 1015.0 |
| 20260901181618 | 85 | 31 | 2.6 | 5.2 | 0.00 | 0.00 | 0.00 | 58 | 1014.9 |
| 20260901181455 | 85 | 70 | 1.7 | 5.2 | 0.00 | 0.00 | 0.00 | 55 | 1014.9 |
| 20260901181400 | 85 | 78 | 1.7 | 6.1 | 0.00 | 0.00 | 0.00 | 55 | 1015.0 |
| 20260901181306 | 85 | 78 | 2.6 | 6.1 | 0.00 | 0.00 | 0.00 | 56 | 1015.0 |
| 20260901181154 | 85 | 26 | 2.6 | 6.1 | 0.00 | 0.00 | 0.00 | 58 | 1015.1 |
| 20260901181100 | 85 | 26 | 2.6 | 6.1 | 0.00 | 0.00 | 0.00 | 55 | 1015.1 |
| 20260901181004 | 85 | 36 | 2.6 | 6.1 | 0.00 | 0.00 | 0.00 | 56 | 1015.0 |
| 20260901180928 | 85 | 34 | 3.5 | 6.1 | 0.00 | 0.00 | 0.00 | 54 | 1015.0 |
| 20260901180811 | 85 | 45 | 3.5 | 6.1 | 0.00 | 0.00 | 0.00 | 56 | 1015.1 |
| 20260901180656 | 85 | 61 | 3.5 | 6.1 | 0.00 | 0.00 | 0.00 | 53 | 1015.2 |
| 20260901180605 | 85 | 80 | 2.6 | 6.1 | 0.00 | 0.00 | 0.00 | 53 | 1015.1 |
| 20260901180509 | 85 | 69 | 0.9 | 3.5 | 0.00 | 0.00 | 0.00 | 56 | 1015.1 |
| 20260901180354 | 85 | 68 | 0.9 | 3.5 | 0.00 | 0.00 | 0.00 | 56 | 1015.1 |
| 20260901180259 | 85 | 68 | 0.9 | 3.5 | 0.00 | 0.00 | 0.00 | 57 | 1015.1 |
| 20260901180205 | 85 | 67 | 1.7 | 3.5 | 0.00 | 0.00 | 0.00 | 56 | 1015.1 |
| 20260901180129 | 85 | 68 | 1.7 | 4.3 | 0.00 | 0.00 | 0.00 | 56 | 1015.1 |
| 20260901175958 | 85 | 68 | 1.7 | 4.3 | 0.00 | 0.00 | 0.00 | 55 | 1015.2 |
| 20260901175903 | 85 | 56 | 1.7 | 4.3 | 0.00 | 0.00 | 0.00 | 57 | 1015.2 |
| 20260901175807 | 85 | 26 | 1.7 | 4.3 | 0.00 | 0.00 | 0.00 | 56 | 1015.2 |
| 20260901175733 | 85 | 27 | 2.6 | 4.3 | 0.00 | 0.00 | 0.00 | 54 | 1015.2 |
| 20260901175616 | 85 | 5 | 1.7 | 4.3 | 0.00 | 0.00 | 0.00 | 58 | 1015.3 |
| 20260901175541 | 85 | 36 | 1.7 | 4.3 | 0.00 | 0.00 | 0.00 | 58 | 1015.3 |
| 20260901175358 | 85 | 355 | 2.6 | 4.3 | 0.00 | 0.00 | 0.00 | 58 | 1015.4 |
| 20260901175322 | 85 | 5 | 2.6 | 4.3 | 0.00 | 0.00 | 0.00 | 61 | 1015.4 |
| 20260901175230 | 84 | 25 | 1.7 | 4.3 | 0.00 | 0.00 | 0.00 | 59 | 1015.4 |
| 20260901175054 | 84 | 100 | 1.7 | 5.2 | 0.00 | 0.00 | 0.00 | 55 | 1015.4 |
| 20260901174959 | 84 | 99 | 1.7 | 5.2 | 0.00 | 0.00 | 0.00 | 57 | 1015.4 |
| 20260901174905 | 84 | 98 | 1.7 | 5.2 | 0.00 | 0.00 | 0.00 | 58 | 1015.4 |
| 20260901174829 | 84 | 98 | 2.6 | 5.2 | 0.00 | 0.00 | 0.00 | 58 | 1015.4 |
| 20260901174713 | 84 | 98 | 2.6 | 5.2 | 0.00 | 0.00 | 0.00 | 58 | 1015.4 |
| 20260901174601 | 84 | 63 | 2.6 | 5.2 | 0.00 | 0.00 | 0.00 | 60 | 1015.4 |
| 20260901174507 | 84 | 28 | 2.6 | 5.2 | 0.00 | 0.00 | 0.00 | 61 | 1015.4 |
| 20260901174411 | 84 | 71 | 3.5 | 5.2 | 0.00 | 0.00 | 0.00 | 56 | 1015.4 |
| 20260901174318 | 84 | 74 | 3.5 | 5.2 | 0.00 | 0.00 | 0.00 | 57 | 1015.4 |
| 20260901174155 | 84 | 66 | 3.5 | 5.2 | 0.00 | 0.00 | 0.00 | 58 | 1015.5 |
| 20260901174100 | 84 | 115 | 2.6 | 5.2 | 0.00 | 0.00 | 0.00 | 57 | 1015.4 |
| 20260901174009 | 84 | 121 | 1.7 | 5.2 | 0.00 | 0.00 | 0.00 | 56 | 1015.4 |
| 20260901173913 | 84 | 87 | 0.9 | 5.2 | 0.00 | 0.00 | 0.00 | 58 | 1015.5 |
| 20260901173758 | 84 | 86 | 1.7 | 5.2 | 0.00 | 0.00 | 0.00 | 56 | 1015.5 |
| 20260901173703 | 84 | 86 | 3.5 | 5.2 | 0.00 | 0.00 | 0.00 | 57 | 1015.5 |
| 20260901173607 | 84 | 85 | 3.5 | 5.2 | 0.00 | 0.00 | 0.00 | 56 | 1015.5 |
| 20260901173513 | 84 | 93 | 2.6 | 5.2 | 0.00 | 0.00 | 0.00 | 57 | 1015.5 |
| 20260901173401 | 84 | 108 | 0.9 | 5.2 | 0.00 | 0.00 | 0.00 | 56 | 1015.5 |
| 20260901173306 | 84 | 109 | 1.7 | 5.2 | 0.00 | 0.00 | 0.00 | 57 | 1015.5 |
| 20260901173211 | 84 | 109 | 1.7 | 5.2 | 0.00 | 0.00 | 0.00 | 56 | 1015.5 |
| 20260901173117 | 84 | 109 | 3.5 | 5.2 | 0.00 | 0.00 | 0.00 | 56 | 1015.5 |
| 20260901173001 | 84 | 107 | 2.6 | 5.2 | 0.00 | 0.00 | 0.00 | 57 | 1015.5 |
| 20260901172906 | 83 | 107 | 0.9 | 5.2 | 0.00 | 0.00 | 0.00 | 57 | 1015.5 |
| 20260901172814 | 83 | 138 | 0.9 | 3.5 | 0.00 | 0.00 | 0.00 | 56 | 1015.5 |
| 20260901172658 | 83 | 138 | 1.7 | 3.5 | 0.00 | 0.00 | 0.00 | 57 | 1015.6 |
| 20260901172603 | 83 | 138 | 1.7 | 4.3 | 0.00 | 0.00 | 0.00 | 56 | 1015.5 |
| 20260901172507 | 83 | 138 | 1.7 | 4.3 | 0.00 | 0.00 | 0.00 | 56 | 1015.5 |
| 20260901172432 | 83 | 138 | 1.7 | 4.3 | 0.00 | 0.00 | 0.00 | 58 | 1015.5 |
| 20260901172316 | 83 | 165 | 1.7 | 7.0 | 0.00 | 0.00 | 0.00 | 56 | 1015.5 |
| 20260901172201 | 83 | 165 | 1.7 | 7.0 | 0.00 | 0.00 | 0.00 | 56 | 1015.5 |
| 20260901172109 | 83 | 165 | 1.7 | 7.0 | 0.00 | 0.00 | 0.00 | 60 | 1015.5 |
| 20260901171954 | 83 | 140 | 2.6 | 7.0 | 0.00 | 0.00 | 0.00 | 57 | 1015.6 |
| 20260901171859 | 83 | 132 | 2.6 | 7.0 | 0.00 | 0.00 | 0.00 | 57 | 1015.5 |
| 20260901171804 | 83 | 132 | 2.6 | 7.0 | 0.00 | 0.00 | 0.00 | 57 | 1015.6 |
| 20260901171709 | 84 | 113 | 2.6 | 7.0 | 0.00 | 0.00 | 0.00 | 57 | 1015.6 |
| 20260901171635 | 84 | 105 | 2.6 | 7.0 | 0.00 | 0.00 | 0.00 | 57 | 1015.6 |
| 20260901171502 | 84 | 109 | 2.6 | 7.0 | 0.00 | 0.00 | 0.00 | 61 | 1015.5 |
| 20260901171427 | 84 | 53 | 2.6 | 4.3 | 0.00 | 0.00 | 0.00 | 60 | 1015.5 |
| 20260901171331 | 83 | 53 | 1.7 | 4.3 | 0.00 | 0.00 | 0.00 | 61 | 1015.5 |
| 20260901171154 | 83 | 52 | 0.9 | 4.3 | 0.00 | 0.00 | 0.00 | 60 | 1015.5 |
| 20260901171059 | 83 | 53 | 0.9 | 4.3 | 0.00 | 0.00 | 0.00 | 58 | 1015.4 |
| 20260901171005 | 83 | 53 | 0.0 | 4.3 | 0.00 | 0.00 | 0.00 | 58 | 1015.5 |
| 20260901170909 | 83 | 53 | 0.0 | 4.3 | 0.00 | 0.00 | 0.00 | 58 | 1015.5 |
| 20260901170759 | 83 | 53 | 0.9 | 5.2 | 0.00 | 0.00 | 0.00 | 59 | 1015.6 |
| 20260901170724 | 83 | 53 | 1.7 | 5.2 | 0.00 | 0.00 | 0.00 | 60 | 1015.5 |
| 20260901170607 | 83 | 31 | 2.6 | 5.2 | 0.00 | 0.00 | 0.00 | 61 | 1015.5 |
| 20260901170512 | 83 | 32 | 1.7 | 5.2 | 0.00 | 0.00 | 0.00 | 62 | 1015.6 |
| 20260901170356 | 83 | 43 | 0.9 | 5.2 | 0.00 | 0.00 | 0.00 | 60 | 1015.6 |
| 20260901170302 | 83 | 43 | 1.7 | 5.2 | 0.00 | 0.00 | 0.00 | 63 | 1015.5 |
| 20260901170230 | 83 | 43 | 2.6 | 5.2 | 0.00 | 0.00 | 0.00 | 63 | 1015.5 |
| 20260901170054 | 82 | 30 | 3.5 | 5.2 | 0.00 | 0.00 | 0.00 | 62 | 1015.6 |
| 20260901165958 | 82 | 39 | 3.5 | 5.2 | 0.00 | 0.00 | 0.00 | 64 | 1015.5 |
| 20260901165923 | 82 | 42 | 1.7 | 6.1 | 0.00 | 0.00 | 0.00 | 62 | 1015.4 |
| 20260901165806 | 82 | 108 | 1.7 | 7.0 | 0.00 | 0.00 | 0.00 | 58 | 1015.4 |
| 20260901165710 | 82 | 109 | 2.6 | 7.0 | 0.00 | 0.00 | 0.00 | 58 | 1015.4 |
| 20260901165616 | 83 | 96 | 3.5 | 7.0 | 0.00 | 0.00 | 0.00 | 58 | 1015.4 |
| 20260901165504 | 83 | 109 | 2.6 | 7.0 | 0.00 | 0.00 | 0.00 | 57 | 1015.4 |
| 20260901165408 | 83 | 91 | 3.5 | 7.0 | 0.00 | 0.00 | 0.00 | 57 | 1015.4 |
| 20260901165314 | 83 | 91 | 3.5 | 7.0 | 0.00 | 0.00 | 0.00 | 57 | 1015.4 |
| 20260901165159 | 83 | 80 | 4.3 | 7.0 | 0.00 | 0.00 | 0.00 | 57 | 1015.3 |
| 20260901165103 | 83 | 89 | 4.3 | 7.0 | 0.00 | 0.00 | 0.00 | 62 | 1015.4 |
| 20260901165007 | 83 | 66 | 2.6 | 4.3 | 0.00 | 0.00 | 0.00 | 63 | 1015.4 |
| 20260901164857 | 83 | 63 | 1.7 | 4.3 | 0.00 | 0.00 | 0.00 | 61 | 1015.4 |
| 20260901164801 | 83 | 69 | 2.6 | 3.5 | 0.00 | 0.00 | 0.00 | 62 | 1015.4 |
| 20260901164706 | 82 | 54 | 2.6 | 3.5 | 0.00 | 0.00 | 0.00 | 65 | 1015.4 |
| 20260901164611 | 82 | 33 | 2.6 | 4.3 | 0.00 | 0.00 | 0.00 | 64 | 1015.4 |
| 20260901164456 | 82 | 26 | 1.7 | 4.3 | 0.00 | 0.00 | 0.00 | 63 | 1015.4 |
| 20260901164421 | 82 | 94 | 1.7 | 4.3 | 0.00 | 0.00 | 0.00 | 62 | 1015.4 |
| 20260901164308 | 82 | 94 | 1.7 | 4.3 | 0.00 | 0.00 | 0.00 | 63 | 1015.4 |
| 20260901164233 | 82 | 77 | 1.7 | 5.2 | 0.00 | 0.00 | 0.00 | 62 | 1015.4 |
| 20260901164118 | 82 | 77 | 1.7 | 5.2 | 0.00 | 0.00 | 0.00 | 64 | 1015.6 |
| 20260901163955 | 82 | 77 | 2.6 | 5.2 | 0.00 | 0.00 | 0.00 | 62 | 1015.5 |
| 20260901163900 | 82 | 97 | 2.6 | 5.2 | 0.00 | 0.00 | 0.00 | 63 | 1015.5 |
| 20260901163805 | 82 | 82 | 2.6 | 5.2 | 0.00 | 0.00 | 0.00 | 62 | 1015.4 |
| 20260901163710 | 82 | 100 | 2.6 | 5.2 | 0.00 | 0.00 | 0.00 | 64 | 1015.4 |
| 20260901163558 | 82 | 96 | 2.6 | 5.2 | 0.00 | 0.00 | 0.00 | 66 | 1015.5 |
| 20260901163503 | 81 | 80 | 3.5 | 5.2 | 0.00 | 0.00 | 0.00 | 66 | 1015.5 |
| 20260901163427 | 81 | 42 | 3.5 | 5.2 | 0.00 | 0.00 | 0.00 | 64 | 1015.5 |
| 20260901163310 | 81 | 86 | 1.7 | 5.2 | 0.00 | 0.00 | 0.00 | 65 | 1015.5 |
| 20260901163156 | 81 | 75 | 1.7 | 5.2 | 0.00 | 0.00 | 0.00 | 66 | 1015.5 |
| 20260901163120 | 81 | 49 | 0.9 | 5.2 | 0.00 | 0.00 | 0.00 | 63 | 1015.5 |
| 20260901163008 | 81 | 56 | 1.7 | 5.2 | 0.00 | 0.00 | 0.00 | 63 | 1015.5 |
| 20260901162912 | 81 | 55 | 2.6 | 5.2 | 0.00 | 0.00 | 0.00 | 64 | 1015.6 |
| 20260901162818 | 81 | 52 | 3.5 | 5.2 | 0.00 | 0.00 | 0.00 | 66 | 1015.6 |
| 20260901162655 | 81 | 44 | 3.5 | 5.2 | 0.00 | 0.00 | 0.00 | 66 | 1015.5 |
| 20260901162600 | 81 | 46 | 4.3 | 5.2 | 0.00 | 0.00 | 0.00 | 67 | 1015.5 |
| 20260901162525 | 80 | 39 | 3.5 | 5.2 | 0.00 | 0.00 | 0.00 | 65 | 1015.4 |
| 20260901162409 | 80 | 74 | 3.5 | 7.0 | 0.00 | 0.00 | 0.00 | 64 | 1015.4 |
| 20260901162318 | 80 | 76 | 2.6 | 7.0 | 0.00 | 0.00 | 0.00 | 64 | 1015.4 |
| 20260901162155 | 80 | 92 | 2.6 | 7.0 | 0.00 | 0.00 | 0.00 | 68 | 1015.4 |
| 20260901162100 | 80 | 83 | 2.6 | 7.0 | 0.00 | 0.00 | 0.00 | 65 | 1015.5 |
| 20260901162026 | 80 | 84 | 3.5 | 7.0 | 0.00 | 0.00 | 0.00 | 67 | 1015.5 |
| 20260901161909 | 80 | 63 | 3.5 | 7.0 | 0.00 | 0.00 | 0.00 | 66 | 1015.5 |
| 20260901161754 | 80 | 59 | 3.5 | 7.0 | 0.00 | 0.00 | 0.00 | 67 | 1015.4 |
| 20260901161703 | 80 | 61 | 4.3 | 7.0 | 0.00 | 0.00 | 0.00 | 66 | 1015.4 |
| 20260901161606 | 80 | 118 | 4.3 | 7.0 | 0.00 | 0.00 | 0.00 | 67 | 1015.4 |
| 20260901161510 | 80 | 110 | 3.5 | 7.0 | 0.00 | 0.00 | 0.00 | 66 | 1015.4 |
| 20260901161416 | 80 | 104 | 4.3 | 7.0 | 0.00 | 0.00 | 0.00 | 67 | 1015.4 |
| 20260901161259 | 80 | 98 | 4.3 | 7.0 | 0.00 | 0.00 | 0.00 | 66 | 1015.4 |
| 20260901161224 | 80 | 97 | 4.3 | 7.0 | 0.00 | 0.00 | 0.00 | 66 | 1015.5 |
| 20260901161108 | 80 | 101 | 3.5 | 6.1 | 0.00 | 0.00 | 0.00 | 65 | 1015.5 |
| 20260901160956 | 80 | 101 | 3.5 | 6.1 | 0.00 | 0.00 | 0.00 | 69 | 1015.5 |
| 20260901160901 | 80 | 80 | 3.5 | 6.1 | 0.00 | 0.00 | 0.00 | 69 | 1015.6 |
| 20260901160806 | 80 | 76 | 2.6 | 6.1 | 0.00 | 0.00 | 0.00 | 69 | 1015.6 |
| 20260901160711 | 80 | 49 | 2.6 | 4.3 | 0.00 | 0.00 | 0.00 | 70 | 1015.6 |
| 20260901160615 | 80 | 94 | 2.6 | 4.3 | 0.00 | 0.00 | 0.00 | 68 | 1015.6 |
| 20260901160459 | 80 | 95 | 1.7 | 4.3 | 0.00 | 0.00 | 0.00 | 69 | 1015.6 |
| 20260901160409 | 80 | 99 | 1.7 | 4.3 | 0.00 | 0.00 | 0.00 | 70 | 1015.6 |
| 20260901160313 | 80 | 126 | 1.7 | 4.3 | 0.00 | 0.00 | 0.00 | 67 | 1015.7 |
| 20260901160159 | 80 | 127 | 2.6 | 4.3 | 0.00 | 0.00 | 0.00 | 67 | 1015.6 |
| 20260901160007 | 80 | 49 | 0.9 | 3.5 | 0.00 | 0.00 | 0.00 | 70 | 1015.7 |
| 20260901155856 | 80 | 40 | 1.7 | 3.5 | 0.00 | 0.00 | 0.00 | 70 | 1015.7 |
| 20260901155800 | 80 | 40 | 1.7 | 3.5 | 0.00 | 0.00 | 0.00 | 71 | 1015.8 |
| 20260901155705 | 80 | 40 | 1.7 | 3.5 | 0.00 | 0.00 | 0.00 | 71 | 1015.8 |
| 20260901155609 | 80 | 40 | 2.6 | 3.5 | 0.00 | 0.00 | 0.00 | 71 | 1015.8 |
| 20260901155513 | 79 | 47 | 2.6 | 4.3 | 0.00 | 0.00 | 0.00 | 70 | 1015.7 |
| 20260901155359 | 79 | 17 | 1.7 | 4.3 | 0.00 | 0.00 | 0.00 | 70 | 1015.7 |
| 20260901155307 | 79 | 17 | 1.7 | 4.3 | 0.00 | 0.00 | 0.00 | 69 | 1015.7 |
| 20260901155212 | 79 | 355 | 2.6 | 4.3 | 0.00 | 0.00 | 0.00 | 69 | 1015.8 |
| 20260901155056 | 79 | 31 | 2.6 | 4.3 | 0.00 | 0.00 | 0.00 | 69 | 1015.7 |
| 20260901155001 | 79 | 32 | 2.6 | 5.2 | 0.00 | 0.00 | 0.00 | 70 | 1015.7 |
| 20260901154906 | 79 | 32 | 2.6 | 5.2 | 0.00 | 0.00 | 0.00 | 71 | 1015.7 |
| 20260901154811 | 79 | 32 | 2.6 | 5.2 | 0.00 | 0.00 | 0.00 | 71 | 1015.7 |
| 20260901154700 | 79 | 43 | 2.6 | 5.2 | 0.00 | 0.00 | 0.00 | 70 | 1015.8 |
| 20260901154605 | 79 | 78 | 2.6 | 5.2 | 0.00 | 0.00 | 0.00 | 72 | 1015.7 |
| 20260901154511 | 79 | 79 | 2.6 | 5.2 | 0.00 | 0.00 | 0.00 | 70 | 1015.7 |
| 20260901154356 | 78 | 94 | 2.6 | 5.2 | 0.00 | 0.00 | 0.00 | 70 | 1015.7 |
| 20260901154300 | 78 | 85 | 3.5 | 5.2 | 0.00 | 0.00 | 0.00 | 69 | 1015.8 |
| 20260901154205 | 78 | 73 | 3.5 | 5.2 | 0.00 | 0.00 | 0.00 | 71 | 1015.7 |
| 20260901154113 | 78 | 75 | 2.6 | 5.2 | 0.00 | 0.00 | 0.00 | 73 | 1015.7 |
| 20260901153956 | 78 | 60 | 1.7 | 3.5 | 0.00 | 0.00 | 0.00 | 73 | 1015.7 |
| 20260901153901 | 78 | 60 | 1.7 | 6.1 | 0.00 | 0.00 | 0.00 | 73 | 1015.8 |
| 20260901153806 | 78 | 55 | 1.7 | 6.1 | 0.00 | 0.00 | 0.00 | 73 | 1015.8 |
| 20260901153711 | 78 | 87 | 0.9 | 6.1 | 0.00 | 0.00 | 0.00 | 73 | 1015.7 |
| 20260901153556 | 78 | 87 | 1.7 | 6.1 | 0.00 | 0.00 | 0.00 | 72 | 1015.6 |
| 20260901153504 | 78 | 88 | 0.9 | 6.1 | 0.00 | 0.00 | 0.00 | 70 | 1015.7 |
| 20260901153410 | 78 | 88 | 1.7 | 6.1 | 0.00 | 0.00 | 0.00 | 71 | 1015.7 |
| 20260901153334 | 78 | 88 | 1.7 | 6.1 | 0.00 | 0.00 | 0.00 | 70 | 1015.7 |
| 20260901153217 | 78 | 69 | 2.6 | 6.1 | 0.00 | 0.00 | 0.00 | 71 | 1015.8 |
| 20260901153055 | 78 | 69 | 3.5 | 6.1 | 0.00 | 0.00 | 0.00 | 69 | 1015.7 |
| 20260901153020 | 78 | 75 | 4.3 | 6.1 | 0.00 | 0.00 | 0.00 | 69 | 1015.7 |
| 20260901152903 | 78 | 80 | 3.5 | 6.1 | 0.00 | 0.00 | 0.00 | 69 | 1015.6 |
| 20260901152811 | 78 | 76 | 2.6 | 6.1 | 0.00 | 0.00 | 0.00 | 70 | 1015.6 |
| 20260901152656 | 78 | 45 | 1.7 | 4.3 | 0.00 | 0.00 | 0.00 | 71 | 1015.7 |
| 20260901152600 | 79 | 45 | 2.6 | 4.3 | 0.00 | 0.00 | 0.00 | 71 | 1015.7 |
| 20260901152505 | 78 | 38 | 2.6 | 4.3 | 0.00 | 0.00 | 0.00 | 70 | 1015.6 |
| 20260901152409 | 79 | 63 | 2.6 | 4.3 | 0.00 | 0.00 | 0.00 | 70 | 1015.6 |
| 20260901152258 | 79 | 55 | 1.7 | 4.3 | 0.00 | 0.00 | 0.00 | 72 | 1015.6 |
| 20260901152223 | 79 | 55 | 2.6 | 4.3 | 0.00 | 0.00 | 0.00 | 72 | 1015.6 |
| 20260901152127 | 79 | 56 | 2.6 | 4.3 | 0.00 | 0.00 | 0.00 | 72 | 1015.6 |
| 20260901152011 | 79 | 67 | 2.6 | 4.3 | 0.00 | 0.00 | 0.00 | 71 | 1015.6 |
| 20260901151857 | 79 | 67 | 2.6 | 4.3 | 0.00 | 0.00 | 0.00 | 70 | 1015.6 |
| 20260901151801 | 79 | 65 | 2.6 | 4.3 | 0.00 | 0.00 | 0.00 | 73 | 1015.6 |
| 20260901151705 | 79 | 41 | 2.6 | 4.3 | 0.00 | 0.00 | 0.00 | 74 | 1015.6 |
| 20260901151554 | 78 | 339 | 1.7 | 4.3 | 0.00 | 0.00 | 0.00 | 73 | 1015.6 |
| 20260901151520 | 78 | 38 | 1.7 | 4.3 | 0.00 | 0.00 | 0.00 | 73 | 1015.6 |
| 20260901151403 | 78 | 61 | 2.6 | 4.3 | 0.00 | 0.00 | 0.00 | 72 | 1015.6 |
| 20260901151309 | 78 | 61 | 2.6 | 4.3 | 0.00 | 0.00 | 0.00 | 71 | 1015.6 |
| 20260901151213 | 78 | 70 | 2.6 | 4.3 | 0.00 | 0.00 | 0.00 | 73 | 1015.7 |
| 20260901151139 | 78 | 65 | 2.6 | 6.1 | 0.00 | 0.00 | 0.00 | 73 | 1015.6 |
| 20260901150955 | 78 | 56 | 2.6 | 6.1 | 0.00 | 0.00 | 0.00 | 72 | 1015.7 |
| 20260901150924 | 78 | 56 | 2.6 | 6.1 | 0.00 | 0.00 | 0.00 | 74 | 1015.6 |
| 20260901150828 | 78 | 57 | 1.7 | 6.1 | 0.00 | 0.00 | 0.00 | 74 | 1015.6 |
| 20260901150731 | 78 | 38 | 2.6 | 6.1 | 0.00 | 0.00 | 0.00 | 74 | 1015.8 |
| 20260901150555 | 77 | 37 | 1.7 | 6.1 | 0.00 | 0.00 | 0.00 | 73 | 1015.8 |
| 20260901150501 | 77 | 34 | 2.6 | 6.1 | 0.00 | 0.00 | 0.00 | 74 | 1015.7 |
| 20260901150405 | 77 | 51 | 2.6 | 6.1 | 0.00 | 0.00 | 0.00 | 74 | 1015.8 |
| 20260901150309 | 77 | 107 | 3.5 | 6.1 | 0.00 | 0.00 | 0.00 | 76 | 1015.8 |
| 20260901150158 | 77 | 49 | 2.6 | 5.2 | 0.00 | 0.00 | 0.00 | 75 | 1015.7 |
| 20260901150104 | 77 | 74 | 2.6 | 5.2 | 0.00 | 0.00 | 0.00 | 79 | 1015.7 |
| 20260901150008 | 77 | 18 | 2.6 | 5.2 | 0.00 | 0.00 | 0.00 | 79 | 1015.7 |
| 20260901145913 | 77 | 49 | 2.6 | 5.2 | 0.00 | 0.00 | 0.00 | 79 | 1015.7 |
| 20260901145759 | 76 | 5 | 3.5 | 5.2 | 0.00 | 0.00 | 0.00 | 79 | 1015.8 |
| 20260901145703 | 76 | 360 | 3.5 | 5.2 | 0.00 | 0.00 | 0.00 | 80 | 1015.7 |
| 20260901145611 | 76 | 351 | 3.5 | 4.3 | 0.00 | 0.00 | 0.00 | 79 | 1015.7 |
| 20260901145456 | 76 | 327 | 2.6 | 4.3 | 0.00 | 0.00 | 0.00 | 79 | 1015.6 |
| 20260901145401 | 76 | 349 | 1.7 | 4.3 | 0.00 | 0.00 | 0.00 | 80 | 1015.7 |
| 20260901145326 | 75 | 355 | 1.7 | 4.3 | 0.00 | 0.00 | 0.00 | 80 | 1015.6 |
| 20260901145230 | 75 | 273 | 1.7 | 4.3 | 0.00 | 0.00 | 0.00 | 80 | 1015.6 |
| 20260901145113 | 75 | 5 | 1.7 | 4.3 | 0.00 | 0.00 | 0.00 | 81 | 1015.6 |
| 20260901145002 | 75 | 34 | 1.7 | 4.3 | 0.00 | 0.00 | 0.00 | 82 | 1015.7 |
| 20260901144905 | 75 | 24 | 1.7 | 4.3 | 0.00 | 0.00 | 0.00 | 82 | 1015.6 |
| 20260901144810 | 75 | 22 | 1.7 | 4.3 | 0.00 | 0.00 | 0.00 | 81 | 1015.6 |
| 20260901144654 | 74 | 22 | 2.6 | 5.2 | 0.00 | 0.00 | 0.00 | 82 | 1015.6 |
| 20260901144620 | 74 | 15 | 2.6 | 5.2 | 0.00 | 0.00 | 0.00 | 82 | 1015.6 |
| 20260901144503 | 74 | 10 | 2.6 | 5.2 | 0.00 | 0.00 | 0.00 | 82 | 1015.7 |
| 20260901144409 | 74 | 5 | 1.7 | 5.2 | 0.00 | 0.00 | 0.00 | 81 | 1015.7 |
| 20260901144257 | 74 | 36 | 1.7 | 5.2 | 0.00 | 0.00 | 0.00 | 82 | 1015.7 |
| 20260901144201 | 74 | 36 | 2.6 | 5.2 | 0.00 | 0.00 | 0.00 | 83 | 1015.6 |
| 20260901144105 | 74 | 37 | 3.5 | 5.2 | 0.00 | 0.00 | 0.00 | 83 | 1015.7 |
| 20260901144010 | 74 | 51 | 3.5 | 5.2 | 0.00 | 0.00 | 0.00 | 82 | 1015.7 |
| 20260901143855 | 74 | 22 | 3.5 | 5.2 | 0.00 | 0.00 | 0.00 | 82 | 1015.8 |
| 20260901143803 | 74 | 34 | 2.6 | 5.2 | 0.00 | 0.00 | 0.00 | 82 | 1015.7 |
| 20260901143707 | 74 | 13 | 2.6 | 7.0 | 0.00 | 0.00 | 0.00 | 82 | 1015.7 |
| 20260901143612 | 74 | 355 | 2.6 | 7.0 | 0.00 | 0.00 | 0.00 | 83 | 1015.8 |
| 20260901143518 | 74 | 5 | 2.6 | 7.0 | 0.00 | 0.00 | 0.00 | 83 | 1015.8 |
| 20260901143355 | 73 | 31 | 2.6 | 7.0 | 0.00 | 0.00 | 0.00 | 84 | 1015.7 |
| 20260901143300 | 73 | 360 | 3.5 | 7.0 | 0.00 | 0.00 | 0.00 | 83 | 1015.8 |
| 20260901143224 | 73 | 360 | 3.5 | 7.0 | 0.00 | 0.00 | 0.00 | 83 | 1015.8 |
| 20260901143113 | 73 | 327 | 4.3 | 7.0 | 0.00 | 0.00 | 0.00 | 84 | 1015.8 |
| 20260901143018 | 73 | 355 | 4.3 | 7.0 | 0.00 | 0.00 | 0.00 | 85 | 1015.8 |
| 20260901142901 | 73 | 360 | 4.3 | 7.0 | 0.00 | 0.00 | 0.00 | 85 | 1015.8 |
| 20260901142826 | 73 | 336 | 4.3 | 7.0 | 0.00 | 0.00 | 0.00 | 85 | 1015.8 |
| 20260901142729 | 73 | 351 | 3.5 | 5.2 | 0.00 | 0.00 | 0.00 | 85 | 1015.8 |
| 20260901142613 | 73 | 360 | 3.5 | 5.2 | 0.00 | 0.00 | 0.00 | 85 | 1015.9 |
| 20260901142458 | 73 | 345 | 3.5 | 5.2 | 0.00 | 0.00 | 0.00 | 87 | 1015.8 |
| 20260901142406 | 73 | 355 | 2.6 | 6.1 | 0.00 | 0.00 | 0.00 | 87 | 1015.8 |
| 20260901142312 | 73 | 342 | 2.6 | 5.2 | 0.00 | 0.00 | 0.00 | 87 | 1015.9 |
| 20260901142157 | 72 | 315 | 3.5 | 5.2 | 0.00 | 0.00 | 0.00 | 87 | 1015.8 |
| 20260901142101 | 72 | 19 | 3.5 | 5.2 | 0.00 | 0.00 | 0.00 | 88 | 1015.9 |
| 20260901142005 | 72 | 5 | 3.5 | 5.2 | 0.00 | 0.00 | 0.00 | 88 | 1015.9 |
| 20260901141909 | 72 | 11 | 3.5 | 7.0 | 0.00 | 0.00 | 0.00 | 88 | 1015.9 |
| 20260901141758 | 72 | 360 | 4.3 | 7.0 | 0.00 | 0.00 | 0.00 | 89 | 1015.9 |
| 20260901141703 | 72 | 360 | 4.3 | 7.0 | 0.00 | 0.00 | 0.00 | 89 | 1015.9 |
| 20260901141606 | 72 | 350 | 3.5 | 7.0 | 0.00 | 0.00 | 0.00 | 90 | 1015.9 |
| 20260901141511 | 72 | 355 | 3.5 | 7.0 | 0.00 | 0.00 | 0.00 | 90 | 1015.9 |
| 20260901141355 | 72 | 355 | 3.5 | 7.0 | 0.00 | 0.00 | 0.00 | 90 | 1015.8 |
| 20260901141304 | 72 | 360 | 4.3 | 7.8 | 0.00 | 0.00 | 0.00 | 90 | 1015.9 |
| 20260901141208 | 72 | 360 | 4.3 | 7.8 | 0.00 | 0.00 | 0.00 | 91 | 1015.9 |
| 20260901141114 | 71 | 9 | 4.3 | 7.8 | 0.00 | 0.00 | 0.00 | 91 | 1015.8 |
| 20260901140958 | 72 | 360 | 4.3 | 7.8 | 0.00 | 0.00 | 0.00 | 92 | 1015.9 |
| 20260901140903 | 71 | 16 | 4.3 | 7.8 | 0.00 | 0.00 | 0.00 | 93 | 1015.9 |
| 20260901140827 | 71 | 360 | 4.3 | 7.8 | 0.00 | 0.00 | 0.00 | 93 | 1015.9 |
| 20260901140707 | 71 | 348 | 5.2 | 7.8 | 0.00 | 0.00 | 0.00 | 94 | 1015.9 |
| 20260901140556 | 71 | 347 | 6.1 | 7.8 | 0.00 | 0.00 | 0.00 | 94 | 1015.9 |
| 20260901140500 | 71 | 349 | 5.2 | 7.8 | 0.00 | 0.00 | 0.00 | 95 | 1015.9 |
| 20260901140426 | 71 | 355 | 4.3 | 7.0 | 0.00 | 0.00 | 0.00 | 95 | 1015.8 |
| 20260901140310 | 71 | 324 | 3.5 | 5.2 | 0.00 | 0.00 | 0.00 | 95 | 1015.8 |
| 20260901140154 | 71 | 18 | 3.5 | 5.2 | 0.00 | 0.00 | 0.00 | 96 | 1015.9 |
| 20260901140119 | 71 | 350 | 4.3 | 5.2 | 0.00 | 0.00 | 0.00 | 97 | 1015.9 |
| 20260901140002 | 71 | 336 | 3.5 | 5.2 | 0.00 | 0.00 | 0.00 | 97 | 1015.8 |
| 20260901135931 | 70 | 316 | 3.5 | 5.2 | 0.00 | 0.00 | 0.00 | 97 | 1015.8 |
| 20260901135814 | 70 | 340 | 3.5 | 5.2 | 0.00 | 0.00 | 0.00 | 97 | 1015.9 |
| 20260901135658 | 70 | 9 | 3.5 | 5.2 | 0.00 | 0.00 | 0.00 | 97 | 1015.9 |
| 20260901135602 | 70 | 342 | 3.5 | 5.2 | 0.00 | 0.00 | 0.00 | 97 | 1015.9 |
| 20260901135527 | 70 | 360 | 2.6 | 7.0 | 0.00 | 0.00 | 0.00 | 97 | 1015.9 |
| 20260901135410 | 70 | 316 | 2.6 | 7.0 | 0.00 | 0.00 | 0.00 | 97 | 1015.9 |
| 20260901135254 | 70 | 344 | 3.5 | 7.0 | 0.00 | 0.00 | 0.00 | 97 | 1016.0 |
| 20260901135203 | 70 | 355 | 3.5 | 7.0 | 0.00 | 0.00 | 0.00 | 98 | 1016.0 |
| 20260901135107 | 69 | 355 | 2.6 | 7.0 | 0.00 | 0.00 | 0.00 | 98 | 1016.0 |
| 20260901135033 | 69 | 360 | 2.6 | 7.0 | 0.00 | 0.00 | 0.00 | 98 | 1016.0 |
| 20260901134856 | 69 | 355 | 3.5 | 7.0 | 0.00 | 0.00 | 0.00 | 98 | 1016.0 |
| 20260901134821 | 69 | 327 | 4.3 | 7.0 | 0.00 | 0.00 | 0.00 | 98 | 1015.9 |
| 20260901134705 | 69 | 355 | 3.5 | 7.0 | 0.00 | 0.00 | 0.00 | 98 | 1015.9 |
| 20260901134609 | 69 | 338 | 2.6 | 5.2 | 0.00 | 0.00 | 0.00 | 98 | 1015.9 |
| 20260901134458 | 69 | 5 | 2.6 | 5.2 | 0.00 | 0.00 | 0.00 | 98 | 1015.9 |
| 20260901134403 | 69 | 24 | 1.7 | 5.2 | 0.00 | 0.00 | 0.00 | 98 | 1015.9 |
| 20260901134307 | 69 | 5 | 2.6 | 5.2 | 0.00 | 0.00 | 0.00 | 98 | 1015.9 |
| 20260901134212 | 69 | 9 | 2.6 | 5.2 | 0.00 | 0.00 | 0.00 | 98 | 1015.9 |
| 20260901134117 | 68 | 5 | 3.5 | 5.2 | 0.00 | 0.00 | 0.00 | 98 | 1015.9 |
| 20260901133955 | 68 | 340 | 4.3 | 5.2 | 0.00 | 0.00 | 0.00 | 98 | 1015.9 |
| 20260901133923 | 68 | 340 | 3.5 | 5.2 | 0.00 | 0.00 | 0.00 | 98 | 1015.8 |
| 20260901133808 | 68 | 330 | 3.5 | 4.3 | 0.00 | 0.00 | 0.00 | 98 | 1015.8 |
| 20260901133712 | 68 | 360 | 3.5 | 4.3 | 0.00 | 0.00 | 0.00 | 98 | 1015.8 |
| 20260901133556 | 68 | 11 | 3.5 | 4.3 | 0.00 | 0.00 | 0.00 | 98 | 1015.7 |
| 20260901133501 | 68 | 333 | 2.6 | 4.3 | 0.00 | 0.00 | 0.00 | 98 | 1015.7 |
| 20260901133427 | 68 | 322 | 2.6 | 4.3 | 0.00 | 0.00 | 0.00 | 98 | 1015.7 |
| 20260901133254 | 68 | 324 | 2.6 | 4.3 | 0.00 | 0.00 | 0.00 | 98 | 1015.6 |
| 20260901133220 | 68 | 317 | 2.6 | 4.3 | 0.00 | 0.00 | 0.00 | 98 | 1015.7 |
| 20260901133103 | 68 | 323 | 2.6 | 4.3 | 0.00 | 0.00 | 0.00 | 98 | 1015.6 |
| 20260901133007 | 68 | 334 | 2.6 | 4.3 | 0.00 | 0.00 | 0.00 | 98 | 1015.6 |
| 20260901132912 | 68 | 327 | 1.7 | 4.3 | 0.00 | 0.00 | 0.00 | 98 | 1015.6 |
| 20260901132756 | 68 | 283 | 1.7 | 2.6 | 0.00 | 0.00 | 0.00 | 98 | 1015.6 |
| 20260901132701 | 68 | 283 | 0.9 | 2.6 | 0.00 | 0.00 | 0.00 | 98 | 1015.6 |
| 20260901132610 | 68 | 283 | 0.9 | 2.6 | 0.00 | 0.00 | 0.00 | 98 | 1015.6 |
| 20260901132454 | 67 | 283 | 0.9 | 2.6 | 0.00 | 0.00 | 0.00 | 98 | 1015.6 |
| 20260901132400 | 67 | 283 | 1.7 | 2.6 | 0.00 | 0.00 | 0.00 | 98 | 1015.6 |
| 20260901132307 | 67 | 283 | 1.7 | 2.6 | 0.00 | 0.00 | 0.00 | 98 | 1015.7 |
| 20260901132209 | 67 | 283 | 1.7 | 2.6 | 0.00 | 0.00 | 0.00 | 98 | 1015.7 |
| 20260901132134 | 67 | 282 | 1.7 | 2.6 | 0.00 | 0.00 | 0.00 | 98 | 1015.6 |
| 20260901132002 | 67 | 282 | 0.9 | 2.6 | 0.00 | 0.00 | 0.00 | 99 | 1015.6 |
| 20260901131927 | 67 | 282 | 0.9 | 2.6 | 0.00 | 0.00 | 0.00 | 99 | 1015.6 |
| 20260901131754 | 67 | 280 | 0.9 | 1.7 | 0.00 | 0.00 | 0.00 | 98 | 1015.6 |
| 20260901131719 | 67 | 280 | 0.9 | 1.7 | 0.00 | 0.00 | 0.00 | 98 | 1015.6 |
| 20260901131557 | 67 | 280 | 0.9 | 1.7 | 0.00 | 0.00 | 0.00 | 99 | 1015.6 |
| 20260901131522 | 67 | 280 | 0.9 | 1.7 | 0.00 | 0.00 | 0.00 | 99 | 1015.6 |
| 20260901131425 | 67 | 280 | 0.9 | 1.7 | 0.00 | 0.00 | 0.00 | 99 | 1015.5 |
| 20260901131313 | 67 | 280 | 1.7 | 1.7 | 0.00 | 0.00 | 0.00 | 99 | 1015.5 |
| 20260901131158 | 67 | 280 | 1.7 | 1.7 | 0.00 | 0.00 | 0.00 | 99 | 1015.5 |
| 20260901131122 | 67 | 280 | 1.7 | 1.7 | 0.00 | 0.00 | 0.00 | 98 | 1015.6 |
| 20260901131006 | 67 | 280 | 0.9 | 1.7 | 0.00 | 0.00 | 0.00 | 99 | 1015.6 |
| 20260901130911 | 66 | 280 | 0.9 | 2.6 | 0.00 | 0.00 | 0.00 | 99 | 1015.5 |
| 20260901130816 | 66 | 280 | 0.9 | 2.6 | 0.00 | 0.00 | 0.00 | 99 | 1015.4 |
| 20260901130700 | 66 | 280 | 0.9 | 2.6 | 0.00 | 0.00 | 0.00 | 99 | 1015.4 |
| 20260901130629 | 66 | 280 | 0.9 | 2.6 | 0.00 | 0.00 | 0.00 | 99 | 1015.4 |
| 20260901130512 | 66 | 280 | 0.0 | 2.6 | 0.00 | 0.00 | 0.00 | 99 | 1015.4 |
| 20260901130417 | 66 | 280 | 0.9 | 3.5 | 0.00 | 0.00 | 0.00 | 99 | 1015.4 |
| 20260901130254 | 66 | 280 | 0.9 | 3.5 | 0.00 | 0.00 | 0.00 | 99 | 1015.4 |
| 20260901130200 | 66 | 280 | 1.7 | 3.5 | 0.00 | 0.00 | 0.00 | 99 | 1015.4 |
| 20260901130104 | 66 | 280 | 0.9 | 3.5 | 0.00 | 0.00 | 0.00 | 99 | 1015.4 |
| 20260901130013 | 66 | 280 | 0.9 | 3.5 | 0.00 | 0.00 | 0.00 | 99 | 1015.4 |
| 20260901125919 | 65 | 280 | 0.9 | 3.5 | 0.00 | 0.00 | 0.00 | 99 | 1015.4 |
| 20260901125756 | 65 | 279 | 1.7 | 3.5 | 0.00 | 0.00 | 0.00 | 99 | 1015.4 |
| 20260901125721 | 65 | 279 | 1.7 | 3.5 | 0.00 | 0.00 | 0.00 | 99 | 1015.3 |
| 20260901125605 | 65 | 281 | 0.9 | 3.5 | 0.00 | 0.00 | 0.00 | 99 | 1015.3 |
| 20260901125531 | 65 | 236 | 0.9 | 3.5 | 0.00 | 0.00 | 0.00 | 99 | 1015.3 |
| 20260901125434 | 65 | 236 | 0.9 | 3.5 | 0.00 | 0.00 | 0.00 | 99 | 1015.4 |
| 20260901125308 | 65 | 236 | 1.7 | 3.5 | 0.00 | 0.00 | 0.00 | 99 | 1015.4 |
| 20260901125207 | 65 | 236 | 1.7 | 3.5 | 0.00 | 0.00 | 0.00 | 99 | 1015.4 |
| 20260901125112 | 65 | 235 | 1.7 | 3.5 | 0.00 | 0.00 | 0.00 | 99 | 1015.4 |
| 20260901125017 | 64 | 235 | 1.7 | 3.5 | 0.00 | 0.00 | 0.00 | 99 | 1015.4 |
| 20260901124855 | 64 | 190 | 1.7 | 2.6 | 0.00 | 0.00 | 0.00 | 99 | 1015.5 |
| 20260901124800 | 64 | 190 | 0.9 | 2.6 | 0.00 | 0.00 | 0.00 | 99 | 1015.5 |
| 20260901124708 | 64 | 190 | 0.9 | 2.6 | 0.00 | 0.00 | 0.00 | 99 | 1015.5 |
| 20260901124613 | 63 | 190 | 0.9 | 2.6 | 0.00 | 0.00 | 0.00 | 98 | 1015.4 |
| 20260901124539 | 63 | 190 | 0.9 | 2.6 | 0.00 | 0.00 | 0.00 | 99 | 1015.5 |
| 20260901124356 | 63 | 190 | 0.9 | 2.6 | 0.00 | 0.00 | 0.00 | 98 | 1015.6 |
| 20260901124300 | 63 | 190 | 0.9 | 2.6 | 0.00 | 0.00 | 0.00 | 98 | 1015.6 |
| 20260901124225 | 63 | 190 | 0.9 | 2.6 | 0.00 | 0.00 | 0.00 | 98 | 1015.5 |
| 20260901124129 | 62 | 190 | 1.7 | 2.6 | 0.00 | 0.00 | 0.00 | 99 | 1015.5 |
| 20260901123955 | 62 | 190 | 0.9 | 2.6 | 0.00 | 0.00 | 0.00 | 98 | 1015.6 |
| 20260901123919 | 62 | 190 | 0.9 | 1.7 | 0.00 | 0.00 | 0.00 | 98 | 1015.5 |
| 20260901123803 | 62 | 190 | 0.9 | 1.7 | 0.00 | 0.00 | 0.00 | 98 | 1015.5 |
| 20260901123708 | 62 | 190 | 0.9 | 1.7 | 0.00 | 0.00 | 0.00 | 98 | 1015.5 |
| 20260901123613 | 61 | 190 | 0.9 | 1.7 | 0.00 | 0.00 | 0.00 | 98 | 1015.6 |
| 20260901123457 | 61 | 190 | 0.9 | 1.7 | 0.00 | 0.00 | 0.00 | 98 | 1015.5 |
| 20260901123423 | 61 | 190 | 0.9 | 1.7 | 0.00 | 0.00 | 0.00 | 98 | 1015.4 |
| 20260901123327 | 61 | 190 | 0.9 | 1.7 | 0.00 | 0.00 | 0.00 | 98 | 1015.4 |
| 20260901123214 | 61 | 190 | 0.9 | 1.7 | 0.00 | 0.00 | 0.00 | 98 | 1015.5 |
| 20260901123119 | 61 | 190 | 0.0 | 1.7 | 0.00 | 0.00 | 0.00 | 98 | 1015.5 |
| 20260901122956 | 61 | 190 | 0.0 | 0.9 | 0.00 | 0.00 | 0.00 | 98 | 1015.5 |
| 20260901122901 | 60 | 190 | 0.0 | 0.9 | 0.00 | 0.00 | 0.00 | 98 | 1015.5 |
| 20260901122806 | 60 | 190 | 0.0 | 0.9 | 0.00 | 0.00 | 0.00 | 98 | 1015.5 |
| 20260901122655 | 60 | 190 | 0.0 | 0.9 | 0.00 | 0.00 | 0.00 | 98 | 1015.5 |
| 20260901122600 | 60 | 190 | 0.0 | 0.9 | 0.00 | 0.00 | 0.00 | 98 | 1015.5 |
| 20260901122505 | 60 | 190 | 0.0 | 0.9 | 0.00 | 0.00 | 0.00 | 98 | 1015.5 |
| 20260901122410 | 60 | 190 | 0.0 | 0.9 | 0.00 | 0.00 | 0.00 | 98 | 1015.4 |
| 20260901122317 | 60 | 190 | 0.0 | 0.9 | 0.00 | 0.00 | 0.00 | 98 | 1015.4 |
| 20260901122154 | 60 | 190 | 0.0 | 0.0 | 0.00 | 0.00 | 0.00 | 98 | 1015.3 |
| 20260901122103 | 60 | 190 | 0.0 | 0.0 | 0.00 | 0.00 | 0.00 | 98 | 1015.4 |
| 20260901122028 | 60 | 190 | 0.0 | 0.0 | 0.00 | 0.00 | 0.00 | 98 | 1015.4 |
| 20260901121912 | 60 | 190 | 0.0 | 0.0 | 0.00 | 0.00 | 0.00 | 98 | 1015.3 |
| 20260901121817 | 60 | 190 | 0.0 | 0.0 | 0.00 | 0.00 | 0.00 | 98 | 1015.4 |
| 20260901121655 | 60 | 190 | 0.0 | 0.0 | 0.00 | 0.00 | 0.00 | 97 | 1015.3 |
| 20260901121619 | 59 | 190 | 0.0 | 0.0 | 0.00 | 0.00 | 0.00 | 97 | 1015.4 |
| 20260901121503 | 59 | 190 | 0.0 | 0.0 | 0.00 | 0.00 | 0.00 | 97 | 1015.4 |
| 20260901121427 | 59 | 190 | 0.0 | 0.0 | 0.00 | 0.00 | 0.00 | 97 | 1015.4 |
| 20260901121314 | 59 | 190 | 0.0 | 0.0 | 0.00 | 0.00 | 0.00 | 97 | 1015.4 |
| 20260901121218 | 59 | 190 | 0.0 | 0.0 | 0.00 | 0.00 | 0.00 | 97 | 1015.4 |
| 20260901121102 | 59 | 190 | 0.0 | 0.0 | 0.00 | 0.00 | 0.00 | 97 | 1015.5 |
| 20260901121027 | 59 | 190 | 0.0 | 0.0 | 0.00 | 0.00 | 0.00 | 97 | 1015.5 |
| 20260901120911 | 59 | 190 | 0.0 | 0.0 | 0.00 | 0.00 | 0.00 | 97 | 1015.4 |
| 20260901120815 | 59 | 190 | 0.0 | 0.0 | 0.00 | 0.00 | 0.00 | 97 | 1015.4 |
| 20260901120719 | 59 | 190 | 0.0 | 0.0 | 0.00 | 0.00 | 0.00 | 97 | 1015.4 |
| 20260901120602 | 59 | 190 | 0.0 | 0.0 | 0.00 | 0.00 | 0.00 | 97 | 1015.4 |
| 20260901120510 | 59 | 190 | 0.0 | 0.0 | 0.00 | 0.00 | 0.00 | 97 | 1015.4 |
| 20260901120416 | 59 | 190 | 0.0 | 0.9 | 0.00 | 0.00 | 0.00 | 97 | 1015.4 |
| 20260901120254 | 59 | 190 | 0.0 | 0.9 | 0.00 | 0.00 | 0.00 | 97 | 1015.4 |
| 20260901120219 | 59 | 190 | 0.0 | 0.9 | 0.00 | 0.00 | 0.00 | 97 | 1015.4 |
| 20260901120027 | 59 | 190 | 0.0 | 0.9 | 0.00 | 0.00 | 0.00 | 97 | 1015.3 |
| 20260901115855 | 59 | 190 | 0.0 | 0.9 | 0.00 | 0.00 | 0.00 | 97 | 1015.3 |
| 20260901115800 | 59 | 190 | 0.0 | 0.9 | 0.00 | 0.00 | 0.00 | 97 | 1015.3 |
| 20260901115706 | 59 | 190 | 0.0 | 1.7 | 0.00 | 0.00 | 0.00 | 97 | 1015.3 |
| 20260901115610 | 59 | 190 | 0.0 | 1.7 | 0.00 | 0.00 | 0.00 | 97 | 1015.2 |
| 20260901115516 | 59 | 190 | 0.0 | 1.7 | 0.00 | 0.00 | 0.00 | 97 | 1015.3 |
| 20260901115355 | 59 | 190 | 0.9 | 1.7 | 0.00 | 0.00 | 0.00 | 97 | 1015.3 |
| 20260901115306 | 59 | 190 | 0.9 | 1.7 | 0.00 | 0.00 | 0.00 | 97 | 1015.3 |
| 20260901115208 | 59 | 190 | 0.9 | 1.7 | 0.00 | 0.00 | 0.00 | 97 | 1015.3 |
| 20260901115113 | 59 | 190 | 0.9 | 1.7 | 0.00 | 0.00 | 0.00 | 97 | 1015.3 |
| 20260901115017 | 59 | 190 | 0.9 | 1.7 | 0.00 | 0.00 | 0.00 | 97 | 1015.3 |
| 20260901114855 | 59 | 190 | 0.9 | 1.7 | 0.00 | 0.00 | 0.00 | 97 | 1015.3 |
| 20260901114759 | 59 | 190 | 0.9 | 0.9 | 0.00 | 0.00 | 0.00 | 97 | 1015.3 |
| 20260901114724 | 59 | 190 | 0.9 | 0.9 | 0.00 | 0.00 | 0.00 | 97 | 1015.2 |
| 20260901114631 | 59 | 190 | 0.9 | 0.9 | 0.00 | 0.00 | 0.00 | 97 | 1015.2 |
| 20260901114515 | 59 | 190 | 0.9 | 0.9 | 0.00 | 0.00 | 0.00 | 97 | 1015.1 |
| 20260901114421 | 59 | 190 | 0.9 | 0.9 | 0.00 | 0.00 | 0.00 | 96 | 1015.1 |
| 20260901114258 | 59 | 190 | 0.9 | 0.9 | 0.00 | 0.00 | 0.00 | 97 | 1015.2 |
| 20260901114203 | 59 | 190 | 0.9 | 0.9 | 0.00 | 0.00 | 0.00 | 97 | 1015.1 |
| 20260901114107 | 59 | 190 | 0.0 | 0.9 | 0.00 | 0.00 | 0.00 | 97 | 1015.1 |
| 20260901113956 | 59 | 190 | 0.0 | 0.0 | 0.00 | 0.00 | 0.00 | 97 | 1015.1 |
| 20260901113921 | 59 | 190 | 0.0 | 0.0 | 0.00 | 0.00 | 0.00 | 97 | 1015.2 |
| 20260901113805 | 59 | 190 | 0.0 | 0.0 | 0.00 | 0.00 | 0.00 | 97 | 1015.2 |
| 20260901113710 | 59 | 190 | 0.0 | 0.0 | 0.00 | 0.00 | 0.00 | 97 | 1015.2 |
| 20260901113617 | 59 | 190 | 0.0 | 0.0 | 0.00 | 0.00 | 0.00 | 97 | 1015.1 |
| 20260901113454 | 59 | 190 | 0.0 | 0.0 | 0.00 | 0.00 | 0.00 | 97 | 1015.1 |
| 20260901113359 | 59 | 190 | 0.0 | 0.0 | 0.00 | 0.00 | 0.00 | 97 | 1015.1 |
| 20260901113308 | 59 | 190 | 0.0 | 0.0 | 0.00 | 0.00 | 0.00 | 97 | 1015.1 |
| 20260901113212 | 59 | 190 | 0.0 | 0.0 | 0.00 | 0.00 | 0.00 | 97 | 1015.1 |
| 20260901113117 | 59 | 190 | 0.0 | 0.0 | 0.00 | 0.00 | 0.00 | 97 | 1015.1 |
| 20260901113000 | 59 | 190 | 0.0 | 0.0 | 0.00 | 0.00 | 0.00 | 97 | 1015.1 |
| 20260901112906 | 59 | 190 | 0.0 | 0.0 | 0.00 | 0.00 | 0.00 | 97 | 1015.1 |
| 20260901112810 | 59 | 190 | 0.0 | 0.0 | 0.00 | 0.00 | 0.00 | 97 | 1015.0 |
| 20260901112719 | 59 | 190 | 0.0 | 0.0 | 0.00 | 0.00 | 0.00 | 97 | 1015.1 |
| 20260901112603 | 59 | 190 | 0.0 | 0.0 | 0.00 | 0.00 | 0.00 | 97 | 1015.0 |
| 20260901112508 | 59 | 190 | 0.0 | 0.9 | 0.00 | 0.00 | 0.00 | 97 | 1015.0 |
| 20260901112413 | 59 | 190 | 0.0 | 0.9 | 0.00 | 0.00 | 0.00 | 97 | 1015.0 |
| 20260901112317 | 59 | 190 | 0.0 | 0.9 | 0.00 | 0.00 | 0.00 | 97 | 1015.0 |
| 20260901112201 | 59 | 190 | 0.0 | 0.9 | 0.00 | 0.00 | 0.00 | 97 | 1015.0 |
| 20260901112106 | 59 | 190 | 0.0 | 0.9 | 0.00 | 0.00 | 0.00 | 97 | 1015.0 |
| 20260901112015 | 59 | 190 | 0.0 | 0.9 | 0.00 | 0.00 | 0.00 | 97 | 1015.0 |
| 20260901111942 | 59 | 190 | 0.0 | 0.9 | 0.00 | 0.00 | 0.00 | 97 | 1015.0 |
| 20260901111758 | 59 | 190 | 0.0 | 0.9 | 0.00 | 0.00 | 0.00 | 96 | 1015.0 |
| 20260901111703 | 59 | 190 | 0.9 | 1.7 | 0.00 | 0.00 | 0.00 | 97 | 1015.0 |
| 20260901111608 | 59 | 190 | 0.9 | 1.7 | 0.00 | 0.00 | 0.00 | 97 | 1015.0 |
| 20260901111513 | 59 | 190 | 0.9 | 1.7 | 0.00 | 0.00 | 0.00 | 97 | 1014.9 |
| 20260901111402 | 59 | 190 | 0.9 | 1.7 | 0.00 | 0.00 | 0.00 | 97 | 1015.0 |
| 20260901111307 | 59 | 190 | 0.9 | 1.7 | 0.00 | 0.00 | 0.00 | 97 | 1015.0 |
| 20260901111212 | 59 | 190 | 0.9 | 1.7 | 0.00 | 0.00 | 0.00 | 97 | 1014.9 |
| 20260901111117 | 59 | 190 | 0.9 | 1.7 | 0.00 | 0.00 | 0.00 | 97 | 1014.9 |
| 20260901110954 | 59 | 190 | 0.9 | 1.7 | 0.00 | 0.00 | 0.00 | 97 | 1014.7 |
| 20260901110859 | 59 | 190 | 0.9 | 0.9 | 0.00 | 0.00 | 0.00 | 97 | 1014.7 |
| 20260901110809 | 59 | 190 | 0.9 | 0.9 | 0.00 | 0.00 | 0.00 | 97 | 1014.7 |
| 20260901110713 | 59 | 190 | 0.9 | 0.9 | 0.00 | 0.00 | 0.00 | 97 | 1014.7 |
| 20260901110618 | 59 | 190 | 0.0 | 0.9 | 0.00 | 0.00 | 0.00 | 97 | 1014.8 |
| 20260901110502 | 59 | 190 | 0.0 | 0.0 | 0.00 | 0.00 | 0.00 | 97 | 1014.8 |
| 20260901110407 | 59 | 190 | 0.0 | 0.0 | 0.00 | 0.00 | 0.00 | 97 | 1014.8 |
| 20260901110312 | 59 | 190 | 0.0 | 0.0 | 0.00 | 0.00 | 0.00 | 97 | 1014.8 |
| 20260901110200 | 59 | 190 | 0.0 | 0.0 | 0.00 | 0.00 | 0.00 | 97 | 1014.8 |
| 20260901110105 | 59 | 190 | 0.0 | 0.0 | 0.00 | 0.00 | 0.00 | 97 | 1014.8 |
| 20260901110011 | 59 | 190 | 0.0 | 0.0 | 0.00 | 0.00 | 0.00 | 97 | 1014.7 |
| 20260901105916 | 59 | 190 | 0.0 | 0.0 | 0.00 | 0.00 | 0.00 | 97 | 1014.8 |
| 20260901105754 | 59 | 190 | 0.0 | 0.0 | 0.00 | 0.00 | 0.00 | 97 | 1014.8 |
| 20260901105659 | 59 | 190 | 0.0 | 0.0 | 0.00 | 0.00 | 0.00 | 97 | 1014.6 |
| 20260901105608 | 59 | 190 | 0.0 | 0.0 | 0.00 | 0.00 | 0.00 | 97 | 1014.6 |
| 20260901105513 | 59 | 190 | 0.0 | 0.9 | 0.00 | 0.00 | 0.00 | 97 | 1014.7 |
| 20260901105357 | 59 | 190 | 0.0 | 0.9 | 0.00 | 0.00 | 0.00 | 97 | 1014.7 |
| 20260901105305 | 59 | 190 | 0.0 | 0.9 | 0.00 | 0.00 | 0.00 | 97 | 1014.7 |
| 20260901105227 | 59 | 190 | 0.0 | 0.9 | 0.00 | 0.00 | 0.00 | 97 | 1014.7 |
| 20260901105111 | 59 | 190 | 0.0 | 0.9 | 0.00 | 0.00 | 0.00 | 97 | 1014.8 |
| 20260901105000 | 59 | 190 | 0.0 | 0.9 | 0.00 | 0.00 | 0.00 | 97 | 1014.8 |
| 20260901104905 | 59 | 190 | 0.0 | 1.7 | 0.00 | 0.00 | 0.00 | 97 | 1014.8 |
| 20260901104810 | 59 | 190 | 0.0 | 1.7 | 0.00 | 0.00 | 0.00 | 97 | 1014.8 |
| 20260901104716 | 59 | 190 | 0.9 | 1.7 | 0.00 | 0.00 | 0.00 | 97 | 1014.8 |
| 20260901104554 | 59 | 190 | 0.9 | 2.6 | 0.00 | 0.00 | 0.00 | 96 | 1014.8 |
| 20260901104459 | 60 | 190 | 0.9 | 2.6 | 0.00 | 0.00 | 0.00 | 96 | 1014.8 |
| 20260901104428 | 60 | 190 | 0.9 | 2.6 | 0.00 | 0.00 | 0.00 | 96 | 1014.8 |
| 20260901104312 | 60 | 190 | 0.9 | 2.6 | 0.00 | 0.00 | 0.00 | 96 | 1014.8 |
| 20260901104218 | 60 | 190 | 0.9 | 2.6 | 0.00 | 0.00 | 0.00 | 96 | 1014.7 |
| 20260901104056 | 60 | 190 | 1.7 | 2.6 | 0.00 | 0.00 | 0.00 | 96 | 1014.7 |
| 20260901104002 | 60 | 190 | 1.7 | 2.6 | 0.00 | 0.00 | 0.00 | 96 | 1014.7 |
| 20260901103927 | 60 | 190 | 1.7 | 2.6 | 0.00 | 0.00 | 0.00 | 97 | 1014.7 |
| 20260901103809 | 60 | 190 | 1.7 | 2.6 | 0.00 | 0.00 | 0.00 | 97 | 1014.7 |
| 20260901103718 | 60 | 190 | 1.7 | 1.7 | 0.00 | 0.00 | 0.00 | 97 | 1014.7 |
| 20260901103556 | 60 | 244 | 0.9 | 2.6 | 0.00 | 0.00 | 0.00 | 97 | 1014.7 |
| 20260901103501 | 60 | 244 | 0.9 | 2.6 | 0.00 | 0.00 | 0.00 | 97 | 1014.6 |
| 20260901103406 | 60 | 244 | 0.0 | 2.6 | 0.00 | 0.00 | 0.00 | 97 | 1014.6 |
| 20260901103330 | 60 | 244 | 0.0 | 2.6 | 0.00 | 0.00 | 0.00 | 97 | 1014.6 |
| 20260901103214 | 60 | 244 | 0.9 | 2.6 | 0.00 | 0.00 | 0.00 | 97 | 1014.6 |
| 20260901103103 | 60 | 244 | 0.9 | 2.6 | 0.00 | 0.00 | 0.00 | 97 | 1014.5 |
| 20260901103008 | 60 | 244 | 1.7 | 2.6 | 0.00 | 0.00 | 0.00 | 97 | 1014.5 |
| 20260901102912 | 60 | 244 | 1.7 | 2.6 | 0.00 | 0.00 | 0.00 | 97 | 1014.5 |
| 20260901102757 | 60 | 244 | 1.7 | 2.6 | 0.00 | 0.00 | 0.00 | 97 | 1014.6 |
| 20260901102702 | 61 | 244 | 1.7 | 2.6 | 0.00 | 0.00 | 0.00 | 97 | 1014.6 |
| 20260901102606 | 61 | 244 | 1.7 | 2.6 | 0.00 | 0.00 | 0.00 | 97 | 1014.6 |
| 20260901102455 | 61 | 244 | 0.9 | 2.6 | 0.00 | 0.00 | 0.00 | 97 | 1014.5 |
| 20260901102400 | 61 | 245 | 0.0 | 0.9 | 0.00 | 0.00 | 0.00 | 97 | 1014.4 |
| 20260901102306 | 61 | 245 | 0.0 | 0.9 | 0.00 | 0.00 | 0.00 | 97 | 1014.5 |
| 20260901102209 | 61 | 245 | 0.0 | 1.7 | 0.00 | 0.00 | 0.00 | 97 | 1014.5 |
| 20260901102134 | 61 | 245 | 0.0 | 1.7 | 0.00 | 0.00 | 0.00 | 97 | 1014.5 |
| 20260901102017 | 61 | 245 | 0.0 | 1.7 | 0.00 | 0.00 | 0.00 | 98 | 1014.4 |
| 20260901101901 | 61 | 245 | 0.0 | 1.7 | 0.00 | 0.00 | 0.00 | 98 | 1014.4 |
| 20260901101810 | 61 | 245 | 0.0 | 1.7 | 0.00 | 0.00 | 0.00 | 98 | 1014.4 |
| 20260901101655 | 61 | 245 | 0.0 | 1.7 | 0.00 | 0.00 | 0.00 | 98 | 1014.4 |
| 20260901101620 | 61 | 245 | 0.9 | 1.7 | 0.00 | 0.00 | 0.00 | 98 | 1014.4 |
| 20260901101505 | 61 | 245 | 0.9 | 1.7 | 0.00 | 0.00 | 0.00 | 98 | 1014.4 |
| 20260901101429 | 60 | 245 | 0.9 | 1.7 | 0.00 | 0.00 | 0.00 | 98 | 1014.4 |
| 20260901101333 | 60 | 245 | 0.9 | 1.7 | 0.00 | 0.00 | 0.00 | 98 | 1014.4 |
| 20260901101217 | 60 | 245 | 0.0 | 1.7 | 0.00 | 0.00 | 0.00 | 98 | 1014.4 |
| 20260901101106 | 60 | 245 | 0.0 | 2.6 | 0.00 | 0.00 | 0.00 | 97 | 1014.4 |
| 20260901101010 | 60 | 245 | 0.0 | 2.6 | 0.00 | 0.00 | 0.00 | 97 | 1014.3 |
| 20260901100855 | 60 | 245 | 0.9 | 2.6 | 0.00 | 0.00 | 0.00 | 97 | 1014.4 |
| 20260901100821 | 60 | 245 | 0.9 | 2.6 | 0.00 | 0.00 | 0.00 | 97 | 1014.4 |
| 20260901100659 | 60 | 245 | 0.9 | 3.5 | 0.00 | 0.00 | 0.00 | 97 | 1014.4 |
| 20260901100623 | 60 | 245 | 0.9 | 3.5 | 0.00 | 0.00 | 0.00 | 97 | 1014.4 |
| 20260901100507 | 60 | 245 | 0.9 | 3.5 | 0.00 | 0.00 | 0.00 | 97 | 1014.4 |
| 20260901100416 | 60 | 245 | 1.7 | 3.5 | 0.00 | 0.00 | 0.00 | 97 | 1014.3 |
| 20260901100258 | 60 | 245 | 1.7 | 3.5 | 0.00 | 0.00 | 0.00 | 97 | 1014.3 |
| 20260901100204 | 60 | 245 | 1.7 | 3.5 | 0.00 | 0.00 | 0.00 | 97 | 1014.3 |
| 20260901100128 | 60 | 245 | 1.7 | 3.5 | 0.00 | 0.00 | 0.00 | 97 | 1014.3 |
| 20260901100012 | 60 | 245 | 1.7 | 3.5 | 0.00 | 0.00 | 0.00 | 97 | 1014.1 |
| 20260901095857 | 60 | 245 | 1.7 | 3.5 | 0.00 | 0.00 | 0.00 | 97 | 1014.2 |
| 20260901095806 | 60 | 244 | 1.7 | 2.6 | 0.00 | 0.00 | 0.00 | 97 | 1014.2 |
| 20260901095710 | 59 | 244 | 1.7 | 2.6 | 0.00 | 0.00 | 0.00 | 97 | 1014.1 |
| 20260901095615 | 59 | 244 | 1.7 | 2.6 | 0.00 | 0.00 | 0.00 | 97 | 1014.2 |
| 20260901095459 | 59 | 216 | 1.7 | 2.6 | 0.00 | 0.00 | 0.00 | 97 | 1014.1 |
| 20260901095404 | 59 | 215 | 1.7 | 2.6 | 0.00 | 0.00 | 0.00 | 97 | 1014.1 |
| 20260901095309 | 59 | 112 | 0.9 | 1.7 | 0.00 | 0.00 | 0.00 | 97 | 1014.1 |
| 20260901095157 | 60 | 111 | 0.9 | 1.7 | 0.00 | 0.00 | 0.00 | 97 | 1014.2 |
| 20260901095101 | 59 | 111 | 0.9 | 1.7 | 0.00 | 0.00 | 0.00 | 97 | 1014.2 |
| 20260901095006 | 60 | 111 | 0.9 | 1.7 | 0.00 | 0.00 | 0.00 | 97 | 1014.2 |
| 20260901094912 | 60 | 111 | 0.0 | 0.9 | 0.00 | 0.00 | 0.00 | 97 | 1014.2 |
| 20260901094816 | 60 | 111 | 0.0 | 0.9 | 0.00 | 0.00 | 0.00 | 97 | 1014.3 |
| 20260901094654 | 59 | 111 | 0.0 | 0.0 | 0.00 | 0.00 | 0.00 | 96 | 1014.2 |
| 20260901094603 | 59 | 111 | 0.0 | 0.0 | 0.00 | 0.00 | 0.00 | 96 | 1014.2 |
| 20260901094528 | 59 | 111 | 0.0 | 0.0 | 0.00 | 0.00 | 0.00 | 96 | 1014.2 |
| 20260901094432 | 60 | 111 | 0.0 | 0.0 | 0.00 | 0.00 | 0.00 | 96 | 1014.2 |
| 20260901094254 | 60 | 111 | 0.0 | 0.0 | 0.00 | 0.00 | 0.00 | 96 | 1014.2 |
| 20260901094159 | 60 | 111 | 0.0 | 0.0 | 0.00 | 0.00 | 0.00 | 96 | 1014.2 |
| 20260901094124 | 60 | 111 | 0.0 | 0.0 | 0.00 | 0.00 | 0.00 | 96 | 1014.1 |
| 20260901094008 | 60 | 111 | 0.0 | 0.0 | 0.00 | 0.00 | 0.00 | 97 | 1014.1 |
| 20260901093933 | 60 | 111 | 0.0 | 0.0 | 0.00 | 0.00 | 0.00 | 97 | 1014.1 |
| 20260901093817 | 60 | 111 | 0.0 | 0.0 | 0.00 | 0.00 | 0.00 | 97 | 1014.1 |
| 20260901093725 | 60 | 111 | 0.0 | 0.0 | 0.00 | 0.00 | 0.00 | 96 | 1014.1 |
| 20260901093609 | 60 | 111 | 0.0 | 0.0 | 0.00 | 0.00 | 0.00 | 96 | 1014.1 |
| 20260901093513 | 60 | 111 | 0.0 | 0.0 | 0.00 | 0.00 | 0.00 | 96 | 1014.1 |
| 20260901093439 | 60 | 111 | 0.0 | 0.0 | 0.00 | 0.00 | 0.00 | 96 | 1014.1 |
| 20260901093256 | 60 | 111 | 0.0 | 0.0 | 0.00 | 0.00 | 0.00 | 96 | 1014.1 |
| 20260901093201 | 60 | 111 | 0.0 | 0.0 | 0.00 | 0.00 | 0.00 | 96 | 1014.1 |
| 20260901093106 | 60 | 111 | 0.0 | 0.0 | 0.00 | 0.00 | 0.00 | 96 | 1014.1 |
| 20260901092955 | 60 | 111 | 0.0 | 0.0 | 0.00 | 0.00 | 0.00 | 96 | 1014.1 |
| 20260901092920 | 60 | 111 | 0.0 | 0.0 | 0.00 | 0.00 | 0.00 | 96 | 1014.2 |
| 20260901092824 | 60 | 111 | 0.0 | 0.0 | 0.00 | 0.00 | 0.00 | 96 | 1014.1 |
| 20260901092727 | 60 | 111 | 0.0 | 0.0 | 0.00 | 0.00 | 0.00 | 96 | 1014.1 |
| 20260901092611 | 60 | 111 | 0.0 | 0.0 | 0.00 | 0.00 | 0.00 | 96 | 1014.0 |
| 20260901092537 | 60 | 111 | 0.0 | 0.0 | 0.00 | 0.00 | 0.00 | 96 | 1014.1 |
| 20260901092354 | 60 | 111 | 0.0 | 0.0 | 0.00 | 0.00 | 0.00 | 96 | 1014.1 |
| 20260901092305 | 60 | 111 | 0.0 | 0.0 | 0.00 | 0.00 | 0.00 | 96 | 1014.1 |
| 20260901092228 | 60 | 111 | 0.0 | 0.0 | 0.00 | 0.00 | 0.00 | 96 | 1014.1 |
| 20260901092111 | 60 | 111 | 0.0 | 0.0 | 0.00 | 0.00 | 0.00 | 96 | 1014.1 |
| 20260901092017 | 60 | 111 | 0.0 | 0.0 | 0.00 | 0.00 | 0.00 | 96 | 1014.1 |
| 20260901091854 | 60 | 111 | 0.0 | 0.0 | 0.00 | 0.00 | 0.00 | 96 | 1014.1 |
| 20260901091819 | 60 | 111 | 0.0 | 0.0 | 0.00 | 0.00 | 0.00 | 96 | 1014.1 |
| 20260901091704 | 60 | 111 | 0.0 | 0.0 | 0.00 | 0.00 | 0.00 | 96 | 1014.1 |
| 20260901091612 | 60 | 111 | 0.0 | 0.0 | 0.00 | 0.00 | 0.00 | 96 | 1014.1 |
| 20260901091517 | 60 | 111 | 0.0 | 0.0 | 0.00 | 0.00 | 0.00 | 96 | 1014.0 |
| 20260901091402 | 60 | 111 | 0.0 | 0.0 | 0.00 | 0.00 | 0.00 | 96 | 1014.1 |
| 20260901091306 | 60 | 111 | 0.0 | 0.0 | 0.00 | 0.00 | 0.00 | 96 | 1014.1 |
| 20260901091211 | 61 | 111 | 0.0 | 0.0 | 0.00 | 0.00 | 0.00 | 96 | 1014.2 |
| 20260901091055 | 61 | 111 | 0.0 | 0.9 | 0.00 | 0.00 | 0.00 | 96 | 1014.2 |
| 20260901091004 | 61 | 111 | 0.0 | 1.7 | 0.00 | 0.00 | 0.00 | 96 | 1014.2 |
| 20260901090909 | 61 | 111 | 0.0 | 1.7 | 0.00 | 0.00 | 0.00 | 96 | 1014.2 |
| 20260901090755 | 61 | 111 | 0.0 | 1.7 | 0.00 | 0.00 | 0.00 | 97 | 1014.3 |
| 20260901090659 | 61 | 111 | 0.0 | 1.7 | 0.00 | 0.00 | 0.00 | 96 | 1014.3 |
| 20260901090604 | 61 | 111 | 0.0 | 1.7 | 0.00 | 0.00 | 0.00 | 97 | 1014.2 |
| 20260901090509 | 61 | 111 | 0.0 | 1.7 | 0.00 | 0.00 | 0.00 | 97 | 1014.2 |
| 20260901090418 | 61 | 111 | 0.0 | 1.7 | 0.00 | 0.00 | 0.00 | 97 | 1014.2 |
| 20260901090256 | 61 | 111 | 0.9 | 1.7 | 0.00 | 0.00 | 0.00 | 97 | 1014.2 |
| 20260901090201 | 61 | 111 | 1.7 | 1.7 | 0.00 | 0.00 | 0.00 | 97 | 1014.2 |
| 20260901090105 | 61 | 111 | 1.7 | 1.7 | 0.00 | 0.00 | 0.00 | 97 | 1014.3 |
| 20260901090029 | 61 | 111 | 0.9 | 1.7 | 0.00 | 0.00 | 0.00 | 97 | 1014.3 |
| 20260901085912 | 61 | 111 | 0.9 | 1.7 | 0.00 | 0.00 | 0.00 | 97 | 1014.2 |
| 20260901085800 | 61 | 111 | 0.0 | 1.7 | 0.00 | 0.00 | 0.00 | 97 | 1014.2 |
| 20260901085704 | 61 | 111 | 0.0 | 0.0 | 0.00 | 0.00 | 0.00 | 97 | 1014.3 |
| 20260901085609 | 61 | 111 | 0.0 | 0.0 | 0.00 | 0.00 | 0.00 | 97 | 1014.3 |
| 20260901085534 | 61 | 111 | 0.0 | 0.0 | 0.00 | 0.00 | 0.00 | 97 | 1014.2 |
| 20260901085419 | 61 | 111 | 0.0 | 0.0 | 0.00 | 0.00 | 0.00 | 97 | 1014.1 |
| 20260901085305 | 61 | 111 | 0.0 | 0.0 | 0.00 | 0.00 | 0.00 | 97 | 1014.2 |
| 20260901085207 | 61 | 111 | 0.0 | 0.0 | 0.00 | 0.00 | 0.00 | 97 | 1014.2 |
| 20260901085056 | 61 | 111 | 0.0 | 0.0 | 0.00 | 0.00 | 0.00 | 96 | 1014.2 |
| 20260901085001 | 61 | 111 | 0.0 | 0.0 | 0.00 | 0.00 | 0.00 | 96 | 1014.1 |
| 20260901084905 | 61 | 111 | 0.0 | 0.0 | 0.00 | 0.00 | 0.00 | 96 | 1014.1 |
| 20260901084734 | 61 | 111 | 0.0 | 0.0 | 0.00 | 0.00 | 0.00 | 96 | 1014.2 |
| 20260901084618 | 61 | 111 | 0.0 | 0.0 | 0.00 | 0.00 | 0.00 | 96 | 1014.1 |
| 20260901084502 | 61 | 111 | 0.0 | 0.0 | 0.00 | 0.00 | 0.00 | 97 | 1014.2 |
| 20260901084406 | 61 | 111 | 0.0 | 0.0 | 0.00 | 0.00 | 0.00 | 97 | 1014.2 |
| 20260901084254 | 61 | 111 | 0.0 | 0.0 | 0.00 | 0.00 | 0.00 | 97 | 1014.2 |
| 20260901084200 | 61 | 111 | 0.0 | 0.0 | 0.00 | 0.00 | 0.00 | 97 | 1014.1 |
| 20260901084104 | 61 | 111 | 0.0 | 0.0 | 0.00 | 0.00 | 0.00 | 97 | 1014.1 |
| 20260901084029 | 61 | 111 | 0.0 | 0.0 | 0.00 | 0.00 | 0.00 | 96 | 1014.1 |
| 20260901083913 | 61 | 111 | 0.0 | 0.0 | 0.00 | 0.00 | 0.00 | 96 | 1014.1 |
| 20260901083818 | 61 | 111 | 0.0 | 0.0 | 0.00 | 0.00 | 0.00 | 96 | 1014.0 |
| 20260901083706 | 61 | 111 | 0.0 | 0.0 | 0.00 | 0.00 | 0.00 | 96 | 1014.0 |
| 20260901083631 | 61 | 111 | 0.0 | 0.0 | 0.00 | 0.00 | 0.00 | 96 | 1014.1 |
| 20260901083455 | 61 | 111 | 0.0 | 0.9 | 0.00 | 0.00 | 0.00 | 97 | 1014.1 |
| 20260901083420 | 61 | 111 | 0.0 | 0.9 | 0.00 | 0.00 | 0.00 | 97 | 1014.1 |
| 20260901083258 | 61 | 111 | 0.0 | 0.9 | 0.00 | 0.00 | 0.00 | 97 | 1014.0 |
| 20260901083204 | 61 | 111 | 0.0 | 0.9 | 0.00 | 0.00 | 0.00 | 97 | 1014.0 |
| 20260901083108 | 61 | 111 | 0.0 | 0.9 | 0.00 | 0.00 | 0.00 | 96 | 1014.0 |
| 20260901083016 | 61 | 111 | 0.0 | 1.7 | 0.00 | 0.00 | 0.00 | 96 | 1014.0 |
| 20260901082900 | 60 | 111 | 0.0 | 1.7 | 0.00 | 0.00 | 0.00 | 96 | 1014.0 |
| 20260901082825 | 60 | 111 | 0.0 | 1.7 | 0.00 | 0.00 | 0.00 | 96 | 1014.0 |
| 20260901082709 | 60 | 111 | 0.0 | 1.7 | 0.00 | 0.00 | 0.00 | 96 | 1014.0 |
| 20260901082634 | 60 | 111 | 0.0 | 1.7 | 0.00 | 0.00 | 0.00 | 96 | 1014.0 |
| 20260901082457 | 60 | 111 | 0.0 | 1.7 | 0.00 | 0.00 | 0.00 | 96 | 1014.0 |
| 20260901082402 | 61 | 111 | 0.9 | 1.7 | 0.00 | 0.00 | 0.00 | 95 | 1014.0 |
| 20260901082311 | 61 | 111 | 0.9 | 1.7 | 0.00 | 0.00 | 0.00 | 95 | 1014.0 |
| 20260901082157 | 61 | 111 | 0.9 | 1.7 | 0.00 | 0.00 | 0.00 | 95 | 1014.0 |
| 20260901082121 | 61 | 111 | 0.9 | 1.7 | 0.00 | 0.00 | 0.00 | 96 | 1014.0 |
| 20260901082005 | 61 | 111 | 0.9 | 1.7 | 0.00 | 0.00 | 0.00 | 96 | 1014.1 |
| 20260901081929 | 61 | 111 | 0.9 | 1.7 | 0.00 | 0.00 | 0.00 | 97 | 1014.1 |
| 20260901081813 | 61 | 111 | 0.9 | 1.7 | 0.00 | 0.00 | 0.00 | 97 | 1014.0 |
| 20260901081702 | 61 | 111 | 0.9 | 0.9 | 0.00 | 0.00 | 0.00 | 96 | 1014.0 |
| 20260901081605 | 61 | 111 | 0.0 | 0.9 | 0.00 | 0.00 | 0.00 | 96 | 1014.0 |
| 20260901081510 | 61 | 111 | 0.0 | 0.9 | 0.00 | 0.00 | 0.00 | 96 | 1014.0 |
| 20260901081415 | 61 | 111 | 0.0 | 0.9 | 0.00 | 0.00 | 0.00 | 96 | 1014.1 |
| 20260901081319 | 61 | 111 | 0.0 | 0.9 | 0.00 | 0.00 | 0.00 | 96 | 1014.1 |
| 20260901081203 | 61 | 111 | 0.0 | 1.7 | 0.00 | 0.00 | 0.00 | 96 | 1014.1 |
| 20260901081128 | 61 | 111 | 0.0 | 1.7 | 0.00 | 0.00 | 0.00 | 96 | 1014.1 |
| 20260901081011 | 61 | 111 | 0.0 | 1.7 | 0.00 | 0.00 | 0.00 | 96 | 1014.1 |
| 20260901080900 | 61 | 111 | 0.9 | 1.7 | 0.00 | 0.00 | 0.00 | 96 | 1014.0 |
| 20260901080805 | 61 | 111 | 0.9 | 1.7 | 0.00 | 0.00 | 0.00 | 96 | 1014.0 |
| 20260901080710 | 61 | 111 | 0.9 | 1.7 | 0.00 | 0.00 | 0.00 | 96 | 1014.1 |
| 20260901080555 | 61 | 111 | 0.9 | 1.7 | 0.00 | 0.00 | 0.00 | 95 | 1014.1 |
| 20260901080520 | 61 | 111 | 0.9 | 1.7 | 0.00 | 0.00 | 0.00 | 95 | 1014.1 |
| 20260901080358 | 61 | 111 | 0.9 | 1.7 | 0.00 | 0.00 | 0.00 | 95 | 1014.1 |
| 20260901080307 | 61 | 111 | 0.9 | 1.7 | 0.00 | 0.00 | 0.00 | 95 | 1014.1 |
| 20260901080212 | 61 | 111 | 0.9 | 1.7 | 0.00 | 0.00 | 0.00 | 95 | 1014.1 |
| 20260901080057 | 61 | 111 | 0.9 | 1.7 | 0.00 | 0.00 | 0.00 | 96 | 1014.2 |
| 20260901080001 | 61 | 111 | 0.9 | 0.9 | 0.00 | 0.00 | 0.00 | 96 | 1014.2 |
| 20260901075927 | 61 | 111 | 0.0 | 0.9 | 0.00 | 0.00 | 0.00 | 96 | 1014.2 |
| 20260901075830 | 61 | 111 | 0.0 | 0.0 | 0.00 | 0.00 | 0.00 | 96 | 1014.1 |
| 20260901075658 | 61 | 111 | 0.0 | 0.0 | 0.00 | 0.00 | 0.00 | 96 | 1014.1 |
| 20260901075603 | 61 | 111 | 0.0 | 0.0 | 0.00 | 0.00 | 0.00 | 95 | 1014.3 |
| 20260901075508 | 61 | 111 | 0.0 | 0.0 | 0.00 | 0.00 | 0.00 | 95 | 1014.3 |
| 20260901075413 | 61 | 111 | 0.0 | 0.0 | 0.00 | 0.00 | 0.00 | 95 | 1014.2 |
| 20260901075257 | 61 | 111 | 0.0 | 0.0 | 0.00 | 0.00 | 0.00 | 96 | 1014.3 |
| 20260901075201 | 61 | 111 | 0.0 | 0.0 | 0.00 | 0.00 | 0.00 | 96 | 1014.3 |
| 20260901075110 | 61 | 111 | 0.0 | 0.0 | 0.00 | 0.00 | 0.00 | 96 | 1014.3 |
| 20260901074955 | 61 | 111 | 0.0 | 0.0 | 0.00 | 0.00 | 0.00 | 96 | 1014.2 |
| 20260901074900 | 61 | 111 | 0.0 | 0.0 | 0.00 | 0.00 | 0.00 | 96 | 1014.3 |
| 20260901074805 | 61 | 111 | 0.0 | 0.0 | 0.00 | 0.00 | 0.00 | 96 | 1014.3 |
| 20260901074710 | 61 | 111 | 0.0 | 0.0 | 0.00 | 0.00 | 0.00 | 96 | 1014.3 |
| 20260901074634 | 61 | 111 | 0.0 | 0.0 | 0.00 | 0.00 | 0.00 | 95 | 1014.2 |
| 20260901074518 | 61 | 111 | 0.0 | 0.0 | 0.00 | 0.00 | 0.00 | 95 | 1014.3 |
| 20260901074406 | 61 | 111 | 0.0 | 0.0 | 0.00 | 0.00 | 0.00 | 95 | 1014.3 |
| 20260901074311 | 61 | 111 | 0.0 | 0.0 | 0.00 | 0.00 | 0.00 | 96 | 1014.3 |
| 20260901074216 | 61 | 111 | 0.0 | 0.0 | 0.00 | 0.00 | 0.00 | 96 | 1014.3 |
| 20260901074054 | 62 | 111 | 0.0 | 0.0 | 0.00 | 0.00 | 0.00 | 96 | 1014.4 |
| 20260901073959 | 61 | 111 | 0.0 | 0.0 | 0.00 | 0.00 | 0.00 | 96 | 1014.4 |
| 20260901073904 | 62 | 111 | 0.0 | 0.0 | 0.00 | 0.00 | 0.00 | 96 | 1014.5 |
| 20260901073834 | 62 | 111 | 0.0 | 0.0 | 0.00 | 0.00 | 0.00 | 96 | 1014.5 |
| 20260901073717 | 62 | 111 | 0.0 | 0.0 | 0.00 | 0.00 | 0.00 | 96 | 1014.5 |
| 20260901073621 | 62 | 111 | 0.0 | 0.0 | 0.00 | 0.00 | 0.00 | 96 | 1014.4 |
| 20260901073458 | 62 | 111 | 0.0 | 0.0 | 0.00 | 0.00 | 0.00 | 96 | 1014.5 |
| 20260901073403 | 61 | 111 | 0.0 | 0.0 | 0.00 | 0.00 | 0.00 | 96 | 1014.4 |
| 20260901073308 | 62 | 111 | 0.0 | 0.0 | 0.00 | 0.00 | 0.00 | 96 | 1014.4 |
| 20260901073233 | 62 | 111 | 0.0 | 0.0 | 0.00 | 0.00 | 0.00 | 96 | 1014.4 |
| 20260901073120 | 62 | 111 | 0.0 | 0.0 | 0.00 | 0.00 | 0.00 | 95 | 1014.5 |
| 20260901072958 | 62 | 111 | 0.0 | 0.0 | 0.00 | 0.00 | 0.00 | 95 | 1014.5 |
| 20260901072903 | 62 | 111 | 0.0 | 0.0 | 0.00 | 0.00 | 0.00 | 95 | 1014.5 |
| 20260901072809 | 62 | 111 | 0.0 | 0.0 | 0.00 | 0.00 | 0.00 | 95 | 1014.5 |
| 20260901072733 | 62 | 111 | 0.0 | 0.0 | 0.00 | 0.00 | 0.00 | 95 | 1014.4 |
| 20260901072557 | 62 | 111 | 0.0 | 0.0 | 0.00 | 0.00 | 0.00 | 95 | 1014.5 |
| 20260901072506 | 62 | 111 | 0.0 | 0.0 | 0.00 | 0.00 | 0.00 | 95 | 1014.5 |
| 20260901072410 | 62 | 111 | 0.0 | 0.0 | 0.00 | 0.00 | 0.00 | 95 | 1014.5 |
| 20260901072255 | 62 | 111 | 0.0 | 0.0 | 0.00 | 0.00 | 0.00 | 95 | 1014.5 |
| 20260901072219 | 62 | 111 | 0.0 | 0.0 | 0.00 | 0.00 | 0.00 | 95 | 1014.5 |
| 20260901072103 | 62 | 111 | 0.0 | 0.0 | 0.00 | 0.00 | 0.00 | 95 | 1014.5 |
| 20260901072008 | 62 | 111 | 0.0 | 0.0 | 0.00 | 0.00 | 0.00 | 95 | 1014.5 |
| 20260901071933 | 62 | 111 | 0.0 | 0.0 | 0.00 | 0.00 | 0.00 | 95 | 1014.5 |
| 20260901071821 | 62 | 111 | 0.0 | 0.0 | 0.00 | 0.00 | 0.00 | 95 | 1014.6 |
| 20260901071658 | 62 | 111 | 0.0 | 0.0 | 0.00 | 0.00 | 0.00 | 95 | 1014.6 |
| 20260901071624 | 62 | 111 | 0.0 | 0.0 | 0.00 | 0.00 | 0.00 | 95 | 1014.6 |
| 20260901071507 | 62 | 111 | 0.0 | 0.0 | 0.00 | 0.00 | 0.00 | 96 | 1014.6 |
| 20260901071432 | 62 | 111 | 0.0 | 0.0 | 0.00 | 0.00 | 0.00 | 96 | 1014.6 |
| 20260901071255 | 62 | 111 | 0.0 | 0.0 | 0.00 | 0.00 | 0.00 | 96 | 1014.6 |
| 20260901071220 | 62 | 111 | 0.0 | 0.0 | 0.00 | 0.00 | 0.00 | 96 | 1014.7 |
| 20260901071107 | 62 | 111 | 0.0 | 0.0 | 0.00 | 0.00 | 0.00 | 96 | 1014.7 |
| 20260901071012 | 62 | 111 | 0.0 | 0.0 | 0.00 | 0.00 | 0.00 | 96 | 1014.7 |
| 20260901070857 | 62 | 111 | 0.0 | 0.0 | 0.00 | 0.00 | 0.00 | 96 | 1014.7 |
| 20260901070802 | 62 | 111 | 0.0 | 0.0 | 0.00 | 0.00 | 0.00 | 96 | 1014.7 |
| 20260901070706 | 62 | 111 | 0.0 | 0.0 | 0.00 | 0.00 | 0.00 | 96 | 1014.7 |
| 20260901070612 | 62 | 111 | 0.0 | 0.0 | 0.00 | 0.00 | 0.00 | 96 | 1014.7 |
| 20260901070501 | 62 | 111 | 0.0 | 0.0 | 0.00 | 0.00 | 0.00 | 96 | 1014.7 |
| 20260901070405 | 62 | 111 | 0.0 | 0.0 | 0.00 | 0.00 | 0.00 | 96 | 1014.7 |
| 20260901070331 | 62 | 111 | 0.0 | 0.9 | 0.00 | 0.00 | 0.00 | 96 | 1014.7 |
| 20260901070154 | 62 | 111 | 0.0 | 0.9 | 0.00 | 0.00 | 0.00 | 96 | 1014.7 |
| 20260901070059 | 62 | 111 | 0.0 | 0.9 | 0.00 | 0.00 | 0.00 | 95 | 1014.7 |
| 20260901070004 | 62 | 111 | 0.0 | 0.9 | 0.00 | 0.00 | 0.00 | 95 | 1014.7 |
| 20260901065912 | 62 | 111 | 0.0 | 0.9 | 0.00 | 0.00 | 0.00 | 95 | 1014.7 |
| 20260901065816 | 62 | 111 | 0.0 | 0.9 | 0.00 | 0.00 | 0.00 | 95 | 1014.7 |
| 20260901065700 | 62 | 111 | 0.0 | 0.9 | 0.00 | 0.00 | 0.00 | 95 | 1014.7 |
| 20260901065604 | 62 | 111 | 0.0 | 0.9 | 0.00 | 0.00 | 0.00 | 95 | 1014.7 |
| 20260901065509 | 62 | 111 | 0.0 | 0.9 | 0.00 | 0.00 | 0.00 | 95 | 1014.7 |
| 20260901065414 | 62 | 111 | 0.0 | 0.9 | 0.00 | 0.00 | 0.00 | 95 | 1014.7 |
| 20260901065305 | 62 | 111 | 0.0 | 0.9 | 0.00 | 0.00 | 0.00 | 95 | 1014.8 |
| 20260901065207 | 62 | 111 | 0.0 | 0.0 | 0.00 | 0.00 | 0.00 | 95 | 1014.8 |
| 20260901065111 | 62 | 111 | 0.0 | 0.0 | 0.00 | 0.00 | 0.00 | 95 | 1014.8 |
| 20260901065015 | 62 | 111 | 0.0 | 0.0 | 0.00 | 0.00 | 0.00 | 95 | 1014.8 |
| 20260901064859 | 62 | 111 | 0.0 | 0.0 | 0.00 | 0.00 | 0.00 | 95 | 1014.7 |
| 20260901064804 | 62 | 111 | 0.0 | 0.0 | 0.00 | 0.00 | 0.00 | 95 | 1014.8 |
| 20260901064709 | 63 | 111 | 0.0 | 0.0 | 0.00 | 0.00 | 0.00 | 95 | 1014.8 |
| 20260901064618 | 63 | 111 | 0.0 | 0.0 | 0.00 | 0.00 | 0.00 | 95 | 1014.7 |
| 20260901064456 | 63 | 111 | 0.0 | 0.0 | 0.00 | 0.00 | 0.00 | 95 | 1014.7 |
| 20260901064400 | 63 | 111 | 0.0 | 0.0 | 0.00 | 0.00 | 0.00 | 95 | 1014.8 |
| 20260901064304 | 63 | 111 | 0.0 | 0.0 | 0.00 | 0.00 | 0.00 | 96 | 1014.8 |
| 20260901064208 | 63 | 111 | 0.0 | 0.0 | 0.00 | 0.00 | 0.00 | 95 | 1014.8 |
| 20260901064133 | 63 | 111 | 0.0 | 0.0 | 0.00 | 0.00 | 0.00 | 95 | 1014.8 |
| 20260901064002 | 63 | 111 | 0.0 | 0.0 | 0.00 | 0.00 | 0.00 | 95 | 1014.8 |
| 20260901063906 | 63 | 111 | 0.0 | 0.0 | 0.00 | 0.00 | 0.00 | 95 | 1014.8 |
| 20260901063810 | 63 | 111 | 0.0 | 0.0 | 0.00 | 0.00 | 0.00 | 95 | 1014.8 |
| 20260901063655 | 63 | 111 | 0.0 | 0.0 | 0.00 | 0.00 | 0.00 | 95 | 1014.8 |
| 20260901063600 | 63 | 111 | 0.0 | 0.0 | 0.00 | 0.00 | 0.00 | 95 | 1014.8 |
| 20260901063505 | 63 | 111 | 0.0 | 0.0 | 0.00 | 0.00 | 0.00 | 95 | 1014.8 |
| 20260901063434 | 63 | 111 | 0.0 | 0.0 | 0.00 | 0.00 | 0.00 | 95 | 1014.7 |
| 20260901063259 | 63 | 111 | 0.0 | 0.0 | 0.00 | 0.00 | 0.00 | 95 | 1014.7 |
| 20260901063203 | 63 | 111 | 0.0 | 0.0 | 0.00 | 0.00 | 0.00 | 95 | 1014.7 |
| 20260901063107 | 63 | 111 | 0.0 | 0.0 | 0.00 | 0.00 | 0.00 | 95 | 1014.7 |
| 20260901063012 | 63 | 111 | 0.0 | 0.0 | 0.00 | 0.00 | 0.00 | 95 | 1014.7 |
| 20260901062857 | 63 | 111 | 0.0 | 0.0 | 0.00 | 0.00 | 0.00 | 95 | 1014.7 |
| 20260901062826 | 63 | 111 | 0.0 | 0.0 | 0.00 | 0.00 | 0.00 | 95 | 1014.7 |
| 20260901062709 | 63 | 111 | 0.0 | 0.0 | 0.00 | 0.00 | 0.00 | 95 | 1014.7 |
| 20260901062554 | 63 | 111 | 0.0 | 0.0 | 0.00 | 0.00 | 0.00 | 95 | 1014.6 |
| 20260901062519 | 63 | 111 | 0.0 | 0.0 | 0.00 | 0.00 | 0.00 | 95 | 1014.6 |
| 20260901062423 | 63 | 111 | 0.0 | 0.0 | 0.00 | 0.00 | 0.00 | 95 | 1014.6 |
| 20260901062310 | 63 | 111 | 0.0 | 0.0 | 0.00 | 0.00 | 0.00 | 95 | 1014.6 |
| 20260901062211 | 63 | 111 | 0.0 | 0.0 | 0.00 | 0.00 | 0.00 | 95 | 1014.6 |
| 20260901062120 | 63 | 111 | 0.0 | 0.0 | 0.00 | 0.00 | 0.00 | 95 | 1014.6 |
| 20260901061958 | 63 | 111 | 0.0 | 0.0 | 0.00 | 0.00 | 0.00 | 95 | 1014.7 |
| 20260901061903 | 63 | 111 | 0.0 | 0.0 | 0.00 | 0.00 | 0.00 | 95 | 1014.6 |
| 20260901061808 | 63 | 111 | 0.0 | 0.0 | 0.00 | 0.00 | 0.00 | 95 | 1014.6 |
| 20260901061733 | 63 | 111 | 0.0 | 0.0 | 0.00 | 0.00 | 0.00 | 95 | 1014.7 |
| 20260901061556 | 63 | 111 | 0.0 | 0.0 | 0.00 | 0.00 | 0.00 | 95 | 1014.7 |
| 20260901061505 | 63 | 111 | 0.0 | 0.0 | 0.00 | 0.00 | 0.00 | 95 | 1014.7 |
| 20260901061410 | 63 | 111 | 0.0 | 0.0 | 0.00 | 0.00 | 0.00 | 95 | 1014.7 |
| 20260901061334 | 63 | 111 | 0.0 | 0.0 | 0.00 | 0.00 | 0.00 | 95 | 1014.7 |
| 20260901061159 | 63 | 111 | 0.0 | 0.0 | 0.00 | 0.00 | 0.00 | 95 | 1014.7 |
| 20260901061104 | 63 | 111 | 0.0 | 0.0 | 0.00 | 0.00 | 0.00 | 95 | 1014.8 |
| 20260901061008 | 63 | 111 | 0.0 | 0.0 | 0.00 | 0.00 | 0.00 | 95 | 1014.8 |
| 20260901060857 | 63 | 111 | 0.0 | 0.0 | 0.00 | 0.00 | 0.00 | 95 | 1014.7 |
| 20260901060801 | 63 | 111 | 0.0 | 0.0 | 0.00 | 0.00 | 0.00 | 95 | 1014.6 |
| 20260901060706 | 63 | 111 | 0.0 | 0.0 | 0.00 | 0.00 | 0.00 | 95 | 1014.6 |
| 20260901060611 | 63 | 111 | 0.0 | 0.0 | 0.00 | 0.00 | 0.00 | 95 | 1014.6 |
| 20260901060455 | 63 | 111 | 0.0 | 0.0 | 0.00 | 0.00 | 0.00 | 95 | 1014.6 |
| 20260901060400 | 63 | 111 | 0.0 | 0.0 | 0.00 | 0.00 | 0.00 | 95 | 1014.6 |
| 20260901060310 | 63 | 111 | 0.0 | 0.0 | 0.00 | 0.00 | 0.00 | 95 | 1014.6 |
| 20260901060154 | 63 | 111 | 0.0 | 0.0 | 0.00 | 0.00 | 0.00 | 95 | 1014.6 |
| 20260901060059 | 63 | 111 | 0.0 | 0.0 | 0.00 | 0.00 | 0.00 | 95 | 1014.6 |
| 20260901060004 | 63 | 111 | 0.0 | 0.0 | 0.00 | 0.00 | 0.00 | 95 | 1014.6 |
| 20260901055908 | 63 | 111 | 0.0 | 0.0 | 0.00 | 0.00 | 0.00 | 95 | 1014.6 |
| 20260901055814 | 63 | 111 | 0.0 | 0.0 | 0.00 | 0.00 | 0.00 | 95 | 1014.6 |
| 20260901055702 | 63 | 111 | 0.0 | 0.0 | 0.00 | 0.00 | 0.00 | 95 | 1014.5 |
| 20260901055606 | 63 | 111 | 0.0 | 0.0 | 0.00 | 0.00 | 0.00 | 95 | 1014.5 |
| 20260901055511 | 63 | 111 | 0.0 | 0.0 | 0.00 | 0.00 | 0.00 | 95 | 1014.5 |
| 20260901055416 | 63 | 111 | 0.0 | 0.0 | 0.00 | 0.00 | 0.00 | 95 | 1014.5 |
| 20260901055254 | 63 | 111 | 0.0 | 0.0 | 0.00 | 0.00 | 0.00 | 95 | 1014.5 |
| 20260901055200 | 64 | 111 | 0.0 | 0.0 | 0.00 | 0.00 | 0.00 | 95 | 1014.5 |
| 20260901055108 | 63 | 111 | 0.0 | 0.0 | 0.00 | 0.00 | 0.00 | 95 | 1014.5 |
| 20260901055033 | 63 | 111 | 0.0 | 0.0 | 0.00 | 0.00 | 0.00 | 95 | 1014.5 |
| 20260901054857 | 63 | 111 | 0.0 | 0.0 | 0.00 | 0.00 | 0.00 | 95 | 1014.6 |
| 20260901054822 | 64 | 111 | 0.0 | 0.0 | 0.00 | 0.00 | 0.00 | 95 | 1014.6 |
| 20260901054726 | 63 | 111 | 0.0 | 0.0 | 0.00 | 0.00 | 0.00 | 95 | 1014.6 |
| 20260901054610 | 63 | 111 | 0.0 | 0.0 | 0.00 | 0.00 | 0.00 | 95 | 1014.6 |
| 20260901054455 | 63 | 111 | 0.0 | 0.0 | 0.00 | 0.00 | 0.00 | 95 | 1014.6 |
| 20260901054404 | 63 | 111 | 0.0 | 0.0 | 0.00 | 0.00 | 0.00 | 95 | 1014.6 |
| 20260901054308 | 64 | 111 | 0.0 | 0.0 | 0.00 | 0.00 | 0.00 | 95 | 1014.6 |
| 20260901054212 | 64 | 111 | 0.0 | 0.0 | 0.00 | 0.00 | 0.00 | 95 | 1014.5 |
| 20260901054057 | 63 | 111 | 0.0 | 0.0 | 0.00 | 0.00 | 0.00 | 95 | 1014.5 |
| 20260901054002 | 63 | 111 | 0.0 | 0.0 | 0.00 | 0.00 | 0.00 | 95 | 1014.5 |
| 20260901053908 | 63 | 111 | 0.0 | 0.0 | 0.00 | 0.00 | 0.00 | 95 | 1014.5 |
| 20260901053756 | 63 | 111 | 0.0 | 0.0 | 0.00 | 0.00 | 0.00 | 94 | 1014.5 |
| 20260901053657 | 63 | 111 | 0.0 | 0.0 | 0.00 | 0.00 | 0.00 | 94 | 1014.4 |
| 20260901053603 | 63 | 111 | 0.0 | 0.0 | 0.00 | 0.00 | 0.00 | 94 | 1014.4 |
| 20260901053507 | 63 | 111 | 0.0 | 0.0 | 0.00 | 0.00 | 0.00 | 94 | 1014.4 |
| 20260901053412 | 63 | 111 | 0.0 | 0.0 | 0.00 | 0.00 | 0.00 | 94 | 1014.4 |
| 20260901053301 | 63 | 111 | 0.0 | 0.0 | 0.00 | 0.00 | 0.00 | 94 | 1014.4 |
| 20260901053205 | 63 | 111 | 0.0 | 0.0 | 0.00 | 0.00 | 0.00 | 94 | 1014.3 |
| 20260901053109 | 64 | 111 | 0.0 | 0.0 | 0.00 | 0.00 | 0.00 | 94 | 1014.3 |
| 20260901052955 | 64 | 111 | 0.0 | 0.0 | 0.00 | 0.00 | 0.00 | 94 | 1014.4 |
| 20260901052859 | 64 | 111 | 0.0 | 0.0 | 0.00 | 0.00 | 0.00 | 94 | 1014.4 |
| 20260901052804 | 64 | 111 | 0.0 | 0.0 | 0.00 | 0.00 | 0.00 | 94 | 1014.5 |
| 20260901052712 | 64 | 111 | 0.0 | 0.0 | 0.00 | 0.00 | 0.00 | 94 | 1014.5 |
| 20260901052617 | 64 | 111 | 0.0 | 0.0 | 0.00 | 0.00 | 0.00 | 94 | 1014.4 |
| 20260901052502 | 64 | 111 | 0.0 | 0.0 | 0.00 | 0.00 | 0.00 | 94 | 1014.4 |
| 20260901052426 | 64 | 111 | 0.0 | 0.0 | 0.00 | 0.00 | 0.00 | 94 | 1014.4 |
| 20260901052330 | 64 | 111 | 0.0 | 0.0 | 0.00 | 0.00 | 0.00 | 94 | 1014.4 |
| 20260901052233 | 64 | 111 | 0.0 | 0.9 | 0.00 | 0.00 | 0.00 | 94 | 1014.4 |
| 20260901052057 | 64 | 111 | 0.0 | 0.9 | 0.00 | 0.00 | 0.00 | 94 | 1014.4 |
| 20260901052002 | 64 | 111 | 0.0 | 1.7 | 0.00 | 0.00 | 0.00 | 94 | 1014.4 |
| 20260901051911 | 64 | 111 | 0.0 | 1.7 | 0.00 | 0.00 | 0.00 | 94 | 1014.4 |
| 20260901051756 | 64 | 111 | 0.0 | 1.7 | 0.00 | 0.00 | 0.00 | 94 | 1014.4 |
| 20260901051702 | 64 | 111 | 0.0 | 1.7 | 0.00 | 0.00 | 0.00 | 94 | 1014.4 |
| 20260901051606 | 64 | 111 | 0.0 | 1.7 | 0.00 | 0.00 | 0.00 | 94 | 1014.4 |
| 20260901051511 | 64 | 111 | 0.0 | 1.7 | 0.00 | 0.00 | 0.00 | 94 | 1014.3 |
| 20260901051415 | 64 | 111 | 0.9 | 1.7 | 0.00 | 0.00 | 0.00 | 94 | 1014.3 |
| 20260901051303 | 64 | 111 | 0.9 | 1.7 | 0.00 | 0.00 | 0.00 | 94 | 1014.3 |
| 20260901051209 | 64 | 111 | 0.9 | 1.7 | 0.00 | 0.00 | 0.00 | 94 | 1014.3 |
| 20260901051133 | 64 | 111 | 0.9 | 1.7 | 0.00 | 0.00 | 0.00 | 94 | 1014.3 |
| 20260901051017 | 64 | 111 | 0.9 | 0.9 | 0.00 | 0.00 | 0.00 | 94 | 1014.3 |
| 20260901050901 | 64 | 111 | 0.0 | 0.9 | 0.00 | 0.00 | 0.00 | 94 | 1014.4 |
| 20260901050805 | 64 | 111 | 0.0 | 0.0 | 0.00 | 0.00 | 0.00 | 94 | 1014.4 |
| 20260901050730 | 64 | 111 | 0.0 | 0.0 | 0.00 | 0.00 | 0.00 | 94 | 1014.3 |
| 20260901050558 | 64 | 111 | 0.0 | 0.0 | 0.00 | 0.00 | 0.00 | 94 | 1014.2 |
| 20260901050503 | 64 | 111 | 0.0 | 0.0 | 0.00 | 0.00 | 0.00 | 94 | 1014.2 |
| 20260901050408 | 65 | 111 | 0.0 | 0.0 | 0.00 | 0.00 | 0.00 | 94 | 1014.2 |
| 20260901050313 | 65 | 111 | 0.0 | 0.0 | 0.00 | 0.00 | 0.00 | 94 | 1014.3 |
| 20260901050218 | 65 | 111 | 0.0 | 0.0 | 0.00 | 0.00 | 0.00 | 94 | 1014.3 |
| 20260901050056 | 64 | 111 | 0.0 | 0.0 | 0.00 | 0.00 | 0.00 | 94 | 1014.2 |
| 20260901050005 | 64 | 111 | 0.0 | 0.0 | 0.00 | 0.00 | 0.00 | 94 | 1014.2 |
| 20260901045910 | 64 | 111 | 0.0 | 0.0 | 0.00 | 0.00 | 0.00 | 94 | 1014.2 |
| 20260901045756 | 65 | 111 | 0.0 | 0.0 | 0.00 | 0.00 | 0.00 | 94 | 1014.2 |
| 20260901045721 | 64 | 111 | 0.0 | 0.0 | 0.00 | 0.00 | 0.00 | 94 | 1014.1 |
| 20260901045624 | 65 | 111 | 0.0 | 0.0 | 0.00 | 0.00 | 0.00 | 94 | 1014.1 |
| 20260901045507 | 65 | 111 | 0.0 | 0.0 | 0.00 | 0.00 | 0.00 | 94 | 1014.1 |
| 20260901045355 | 65 | 111 | 0.0 | 0.0 | 0.00 | 0.00 | 0.00 | 94 | 1014.1 |
| 20260901045319 | 65 | 111 | 0.0 | 0.0 | 0.00 | 0.00 | 0.00 | 94 | 1014.1 |
| 20260901045157 | 65 | 111 | 0.0 | 0.0 | 0.00 | 0.00 | 0.00 | 94 | 1014.1 |
| 20260901045102 | 65 | 111 | 0.0 | 0.0 | 0.00 | 0.00 | 0.00 | 94 | 1014.1 |
| 20260901045006 | 65 | 111 | 0.0 | 0.0 | 0.00 | 0.00 | 0.00 | 94 | 1014.1 |
| 20260901044911 | 65 | 111 | 0.0 | 0.0 | 0.00 | 0.00 | 0.00 | 94 | 1014.1 |
| 20260901044800 | 65 | 111 | 0.0 | 0.0 | 0.00 | 0.00 | 0.00 | 94 | 1014.1 |
| 20260901044704 | 65 | 111 | 0.0 | 0.0 | 0.00 | 0.00 | 0.00 | 94 | 1014.1 |
| 20260901044609 | 65 | 111 | 0.0 | 0.0 | 0.00 | 0.00 | 0.00 | 94 | 1014.1 |
| 20260901044454 | 65 | 111 | 0.0 | 0.0 | 0.00 | 0.00 | 0.00 | 94 | 1014.0 |
| 20260901044400 | 65 | 111 | 0.0 | 0.0 | 0.00 | 0.00 | 0.00 | 93 | 1014.0 |
| 20260901044303 | 65 | 111 | 0.0 | 0.0 | 0.00 | 0.00 | 0.00 | 93 | 1014.0 |
| 20260901044214 | 65 | 111 | 0.0 | 0.0 | 0.00 | 0.00 | 0.00 | 93 | 1014.0 |
| 20260901044056 | 65 | 111 | 0.0 | 0.0 | 0.00 | 0.00 | 0.00 | 93 | 1014.0 |
| 20260901044000 | 65 | 111 | 0.0 | 0.0 | 0.00 | 0.00 | 0.00 | 93 | 1014.0 |
| 20260901043905 | 65 | 111 | 0.0 | 0.0 | 0.00 | 0.00 | 0.00 | 93 | 1014.0 |
| 20260901043809 | 65 | 111 | 0.0 | 0.0 | 0.00 | 0.00 | 0.00 | 93 | 1014.0 |
| 20260901043654 | 65 | 111 | 0.0 | 0.0 | 0.00 | 0.00 | 0.00 | 94 | 1014.0 |
| 20260901043603 | 65 | 111 | 0.0 | 0.0 | 0.00 | 0.00 | 0.00 | 94 | 1013.9 |
| 20260901043506 | 65 | 111 | 0.0 | 0.0 | 0.00 | 0.00 | 0.00 | 94 | 1014.0 |
| 20260901043411 | 65 | 111 | 0.0 | 0.0 | 0.00 | 0.00 | 0.00 | 94 | 1014.0 |
| 20260901043256 | 65 | 111 | 0.0 | 0.0 | 0.00 | 0.00 | 0.00 | 94 | 1014.0 |
| 20260901043201 | 65 | 111 | 0.0 | 0.0 | 0.00 | 0.00 | 0.00 | 94 | 1014.0 |
| 20260901043105 | 65 | 111 | 0.0 | 0.0 | 0.00 | 0.00 | 0.00 | 94 | 1013.9 |
| 20260901042954 | 65 | 111 | 0.0 | 0.0 | 0.00 | 0.00 | 0.00 | 94 | 1013.9 |
| 20260901042859 | 65 | 111 | 0.0 | 0.0 | 0.00 | 0.00 | 0.00 | 94 | 1014.0 |
| 20260901042803 | 65 | 111 | 0.0 | 0.0 | 0.00 | 0.00 | 0.00 | 94 | 1013.9 |
| 20260901042708 | 65 | 111 | 0.0 | 0.0 | 0.00 | 0.00 | 0.00 | 94 | 1013.9 |
| 20260901042612 | 65 | 111 | 0.0 | 0.0 | 0.00 | 0.00 | 0.00 | 94 | 1013.9 |
| 20260901042501 | 65 | 111 | 0.0 | 0.0 | 0.00 | 0.00 | 0.00 | 94 | 1013.8 |
| 20260901042407 | 65 | 111 | 0.0 | 0.0 | 0.00 | 0.00 | 0.00 | 93 | 1013.8 |
| 20260901042311 | 65 | 111 | 0.0 | 0.0 | 0.00 | 0.00 | 0.00 | 93 | 1013.8 |
| 20260901042156 | 65 | 111 | 0.0 | 0.0 | 0.00 | 0.00 | 0.00 | 93 | 1013.8 |
| 20260901042121 | 66 | 111 | 0.0 | 0.0 | 0.00 | 0.00 | 0.00 | 93 | 1013.8 |
| 20260901042004 | 66 | 111 | 0.0 | 0.0 | 0.00 | 0.00 | 0.00 | 93 | 1013.8 |
| 20260901041908 | 66 | 111 | 0.0 | 0.0 | 0.00 | 0.00 | 0.00 | 93 | 1013.8 |
| 20260901041816 | 66 | 111 | 0.0 | 0.0 | 0.00 | 0.00 | 0.00 | 93 | 1013.9 |
| 20260901041700 | 66 | 111 | 0.0 | 0.0 | 0.00 | 0.00 | 0.00 | 93 | 1013.9 |
| 20260901041625 | 66 | 111 | 0.0 | 0.0 | 0.00 | 0.00 | 0.00 | 93 | 1013.9 |
| 20260901041508 | 66 | 111 | 0.0 | 0.0 | 0.00 | 0.00 | 0.00 | 93 | 1013.9 |
| 20260901041432 | 66 | 111 | 0.0 | 0.0 | 0.00 | 0.00 | 0.00 | 93 | 1013.9 |
| 20260901041316 | 66 | 111 | 0.0 | 0.0 | 0.00 | 0.00 | 0.00 | 93 | 1013.8 |
| 20260901041200 | 66 | 111 | 0.0 | 0.0 | 0.00 | 0.00 | 0.00 | 93 | 1013.9 |
| 20260901041108 | 66 | 111 | 0.0 | 0.0 | 0.00 | 0.00 | 0.00 | 93 | 1013.9 |
| 20260901041013 | 66 | 111 | 0.0 | 0.0 | 0.00 | 0.00 | 0.00 | 93 | 1013.9 |
| 20260901040917 | 66 | 111 | 0.0 | 0.0 | 0.00 | 0.00 | 0.00 | 93 | 1013.9 |
| 20260901040821 | 66 | 111 | 0.0 | 0.0 | 0.00 | 0.00 | 0.00 | 93 | 1013.9 |
| 20260901040704 | 66 | 111 | 0.0 | 0.0 | 0.00 | 0.00 | 0.00 | 93 | 1013.9 |
| 20260901040609 | 66 | 111 | 0.0 | 0.0 | 0.00 | 0.00 | 0.00 | 93 | 1013.9 |
| 20260901040534 | 66 | 111 | 0.0 | 0.0 | 0.00 | 0.00 | 0.00 | 93 | 1013.9 |
| 20260901040401 | 66 | 111 | 0.0 | 0.0 | 0.00 | 0.00 | 0.00 | 93 | 1013.9 |
| 20260901040326 | 66 | 111 | 0.0 | 0.0 | 0.00 | 0.00 | 0.00 | 93 | 1013.9 |
| 20260901040210 | 66 | 111 | 0.0 | 0.0 | 0.00 | 0.00 | 0.00 | 93 | 1013.9 |
| 20260901040134 | 66 | 111 | 0.0 | 0.0 | 0.00 | 0.00 | 0.00 | 93 | 1013.9 |
| 20260901035958 | 66 | 111 | 0.0 | 0.0 | 0.00 | 0.00 | 0.00 | 93 | 1013.8 |
| 20260901035903 | 66 | 111 | 0.0 | 0.0 | 0.00 | 0.00 | 0.00 | 93 | 1013.8 |
| 20260901035808 | 66 | 111 | 0.0 | 0.0 | 0.00 | 0.00 | 0.00 | 93 | 1013.8 |
| 20260901035717 | 66 | 111 | 0.0 | 0.0 | 0.00 | 0.00 | 0.00 | 93 | 1013.8 |
| 20260901035600 | 66 | 111 | 0.0 | 0.0 | 0.00 | 0.00 | 0.00 | 93 | 1013.8 |
| 20260901035504 | 66 | 111 | 0.0 | 0.0 | 0.00 | 0.00 | 0.00 | 93 | 1013.8 |
| 20260901035409 | 66 | 111 | 0.0 | 0.0 | 0.00 | 0.00 | 0.00 | 93 | 1013.8 |
| 20260901035254 | 66 | 111 | 0.0 | 0.0 | 0.00 | 0.00 | 0.00 | 93 | 1013.9 |
| 20260901035219 | 66 | 111 | 0.0 | 0.0 | 0.00 | 0.00 | 0.00 | 93 | 1013.9 |
| 20260901035103 | 66 | 111 | 0.0 | 0.0 | 0.00 | 0.00 | 0.00 | 93 | 1013.9 |
| 20260901035012 | 66 | 111 | 0.0 | 0.0 | 0.00 | 0.00 | 0.00 | 93 | 1013.9 |
| 20260901034856 | 66 | 111 | 0.0 | 0.0 | 0.00 | 0.00 | 0.00 | 93 | 1014.0 |
| 20260901034801 | 66 | 111 | 0.0 | 0.0 | 0.00 | 0.00 | 0.00 | 93 | 1013.9 |
| 20260901034727 | 66 | 111 | 0.0 | 0.0 | 0.00 | 0.00 | 0.00 | 93 | 1014.0 |
| 20260901034630 | 66 | 111 | 0.0 | 0.0 | 0.00 | 0.00 | 0.00 | 93 | 1014.0 |
| 20260901034454 | 66 | 111 | 0.0 | 0.0 | 0.00 | 0.00 | 0.00 | 93 | 1014.0 |
| 20260901034403 | 66 | 111 | 0.0 | 0.0 | 0.00 | 0.00 | 0.00 | 93 | 1014.0 |
| 20260901034308 | 67 | 111 | 0.0 | 0.0 | 0.00 | 0.00 | 0.00 | 93 | 1014.0 |
| 20260901034211 | 67 | 111 | 0.0 | 0.0 | 0.00 | 0.00 | 0.00 | 93 | 1014.0 |
| 20260901034055 | 67 | 111 | 0.0 | 0.0 | 0.00 | 0.00 | 0.00 | 93 | 1013.9 |
| 20260901034001 | 67 | 111 | 0.0 | 0.0 | 0.00 | 0.00 | 0.00 | 93 | 1013.9 |
| 20260901033905 | 67 | 111 | 0.0 | 0.0 | 0.00 | 0.00 | 0.00 | 93 | 1013.9 |
| 20260901033754 | 67 | 111 | 0.0 | 0.0 | 0.00 | 0.00 | 0.00 | 93 | 1014.0 |
| 20260901033659 | 67 | 111 | 0.0 | 0.0 | 0.00 | 0.00 | 0.00 | 93 | 1013.9 |
| 20260901033604 | 67 | 111 | 0.0 | 0.0 | 0.00 | 0.00 | 0.00 | 93 | 1013.9 |
| 20260901033528 | 67 | 111 | 0.0 | 0.0 | 0.00 | 0.00 | 0.00 | 93 | 1013.9 |
| 20260901033413 | 67 | 111 | 0.0 | 0.0 | 0.00 | 0.00 | 0.00 | 93 | 1013.9 |
| 20260901033257 | 67 | 111 | 0.0 | 0.0 | 0.00 | 0.00 | 0.00 | 93 | 1013.9 |
| 20260901033202 | 67 | 111 | 0.0 | 0.0 | 0.00 | 0.00 | 0.00 | 93 | 1013.9 |
| 20260901033110 | 67 | 111 | 0.0 | 0.0 | 0.00 | 0.00 | 0.00 | 93 | 1013.9 |
| 20260901032956 | 67 | 111 | 0.0 | 0.0 | 0.00 | 0.00 | 0.00 | 92 | 1013.9 |
| 20260901032859 | 67 | 111 | 0.0 | 0.0 | 0.00 | 0.00 | 0.00 | 92 | 1013.8 |
| 20260901032824 | 67 | 111 | 0.0 | 0.0 | 0.00 | 0.00 | 0.00 | 92 | 1013.8 |
| 20260901032708 | 67 | 111 | 0.0 | 0.0 | 0.00 | 0.00 | 0.00 | 92 | 1013.8 |
| 20260901032613 | 67 | 111 | 0.0 | 0.0 | 0.00 | 0.00 | 0.00 | 92 | 1013.8 |
| 20260901032502 | 67 | 111 | 0.0 | 0.0 | 0.00 | 0.00 | 0.00 | 92 | 1013.8 |
| 20260901032408 | 67 | 111 | 0.0 | 0.0 | 0.00 | 0.00 | 0.00 | 92 | 1013.8 |
| 20260901032311 | 67 | 111 | 0.0 | 0.0 | 0.00 | 0.00 | 0.00 | 92 | 1013.8 |
| 20260901032157 | 67 | 111 | 0.0 | 0.0 | 0.00 | 0.00 | 0.00 | 93 | 1013.8 |
| 20260901032101 | 67 | 111 | 0.0 | 0.0 | 0.00 | 0.00 | 0.00 | 93 | 1013.7 |
| 20260901032026 | 67 | 111 | 0.0 | 0.0 | 0.00 | 0.00 | 0.00 | 93 | 1013.8 |
| 20260901031930 | 67 | 111 | 0.0 | 0.0 | 0.00 | 0.00 | 0.00 | 93 | 1013.8 |
| 20260901031838 | 67 | 111 | 0.0 | 0.0 | 0.00 | 0.00 | 0.00 | 93 | 1013.7 |
| 20260901031655 | 67 | 111 | 0.0 | 0.0 | 0.00 | 0.00 | 0.00 | 93 | 1013.7 |
| 20260901031619 | 67 | 111 | 0.0 | 0.0 | 0.00 | 0.00 | 0.00 | 93 | 1013.7 |
| 20260901031457 | 67 | 111 | 0.0 | 0.9 | 0.00 | 0.00 | 0.00 | 93 | 1013.8 |
| 20260901031401 | 67 | 111 | 0.0 | 0.9 | 0.00 | 0.00 | 0.00 | 93 | 1013.8 |
| 20260901031307 | 67 | 111 | 0.0 | 0.9 | 0.00 | 0.00 | 0.00 | 92 | 1013.7 |
| 20260901031217 | 67 | 111 | 0.0 | 0.9 | 0.00 | 0.00 | 0.00 | 92 | 1013.7 |
| 20260901031054 | 67 | 111 | 0.0 | 0.9 | 0.00 | 0.00 | 0.00 | 92 | 1013.7 |
| 20260901031019 | 68 | 111 | 0.0 | 0.9 | 0.00 | 0.00 | 0.00 | 92 | 1013.7 |
| 20260901030857 | 68 | 111 | 0.0 | 1.7 | 0.00 | 0.00 | 0.00 | 92 | 1013.8 |
| 20260901030821 | 68 | 111 | 0.0 | 1.7 | 0.00 | 0.00 | 0.00 | 92 | 1013.8 |
| 20260901030705 | 68 | 111 | 0.0 | 1.7 | 0.00 | 0.00 | 0.00 | 92 | 1013.8 |
| 20260901030554 | 68 | 111 | 0.0 | 2.6 | 0.00 | 0.00 | 0.00 | 92 | 1013.8 |
| 20260901030459 | 68 | 111 | 0.0 | 2.6 | 0.00 | 0.00 | 0.00 | 92 | 1013.8 |
| 20260901030424 | 68 | 111 | 0.0 | 2.6 | 0.00 | 0.00 | 0.00 | 92 | 1013.8 |
| 20260901030308 | 68 | 111 | 0.0 | 2.6 | 0.00 | 0.00 | 0.00 | 92 | 1013.8 |
| 20260901030213 | 68 | 111 | 0.0 | 2.6 | 0.00 | 0.00 | 0.00 | 92 | 1013.8 |
| 20260901030139 | 68 | 111 | 0.0 | 2.6 | 0.00 | 0.00 | 0.00 | 92 | 1013.8 |
| 20260901025957 | 68 | 111 | 0.0 | 2.6 | 0.00 | 0.00 | 0.00 | 92 | 1013.8 |
| 20260901025905 | 68 | 111 | 0.9 | 2.6 | 0.00 | 0.00 | 0.00 | 92 | 1013.8 |
| 20260901025809 | 68 | 111 | 0.9 | 2.6 | 0.00 | 0.00 | 0.00 | 92 | 1013.8 |
| 20260901025735 | 68 | 111 | 0.0 | 2.6 | 0.00 | 0.00 | 0.00 | 92 | 1013.8 |
| 20260901025618 | 68 | 112 | 0.9 | 2.6 | 0.00 | 0.00 | 0.00 | 91 | 1013.8 |
| 20260901025456 | 68 | 112 | 0.9 | 2.6 | 0.00 | 0.00 | 0.00 | 91 | 1013.8 |
| 20260901025401 | 68 | 112 | 0.0 | 1.7 | 0.00 | 0.00 | 0.00 | 91 | 1013.8 |
| 20260901025306 | 68 | 112 | 0.0 | 1.7 | 0.00 | 0.00 | 0.00 | 91 | 1013.8 |
| 20260901025154 | 68 | 112 | 0.0 | 1.7 | 0.00 | 0.00 | 0.00 | 91 | 1013.8 |
| 20260901025059 | 68 | 112 | 0.9 | 1.7 | 0.00 | 0.00 | 0.00 | 91 | 1013.8 |
| 20260901025004 | 68 | 112 | 0.9 | 1.7 | 0.00 | 0.00 | 0.00 | 91 | 1013.8 |
| 20260901024929 | 68 | 112 | 0.9 | 1.7 | 0.00 | 0.00 | 0.00 | 91 | 1013.8 |
| 20260901024812 | 68 | 112 | 0.9 | 1.7 | 0.00 | 0.00 | 0.00 | 91 | 1013.8 |
| 20260901024657 | 68 | 112 | 0.9 | 1.7 | 0.00 | 0.00 | 0.00 | 91 | 1013.7 |
| 20260901024606 | 68 | 112 | 0.0 | 1.7 | 0.00 | 0.00 | 0.00 | 91 | 1013.7 |
| 20260901024511 | 68 | 112 | 0.0 | 0.0 | 0.00 | 0.00 | 0.00 | 90 | 1013.7 |
| 20260901024417 | 68 | 112 | 0.0 | 0.0 | 0.00 | 0.00 | 0.00 | 90 | 1013.8 |
| 20260901024321 | 68 | 112 | 0.0 | 0.0 | 0.00 | 0.00 | 0.00 | 90 | 1013.8 |
| 20260901024158 | 68 | 112 | 0.0 | 0.0 | 0.00 | 0.00 | 0.00 | 90 | 1013.7 |
| 20260901024103 | 68 | 112 | 0.0 | 0.0 | 0.00 | 0.00 | 0.00 | 89 | 1013.6 |
| 20260901024012 | 68 | 112 | 0.0 | 0.0 | 0.00 | 0.00 | 0.00 | 89 | 1013.6 |
| 20260901023917 | 68 | 112 | 0.0 | 0.0 | 0.00 | 0.00 | 0.00 | 89 | 1013.7 |
| 20260901023842 | 68 | 112 | 0.0 | 0.0 | 0.00 | 0.00 | 0.00 | 89 | 1013.6 |
| 20260901023658 | 68 | 112 | 0.0 | 0.0 | 0.00 | 0.00 | 0.00 | 89 | 1013.5 |
| 20260901023603 | 68 | 112 | 0.0 | 0.0 | 0.00 | 0.00 | 0.00 | 89 | 1013.5 |
| 20260901023507 | 68 | 112 | 0.0 | 0.0 | 0.00 | 0.00 | 0.00 | 89 | 1013.5 |
| 20260901023357 | 68 | 112 | 0.0 | 0.0 | 0.00 | 0.00 | 0.00 | 89 | 1013.5 |
| 20260901023301 | 68 | 112 | 0.0 | 0.0 | 0.00 | 0.00 | 0.00 | 90 | 1013.5 |
| 20260901023225 | 68 | 112 | 0.0 | 0.9 | 0.00 | 0.00 | 0.00 | 90 | 1013.5 |
| 20260901023109 | 68 | 112 | 0.0 | 0.9 | 0.00 | 0.00 | 0.00 | 90 | 1013.5 |
| 20260901023034 | 69 | 112 | 0.0 | 0.9 | 0.00 | 0.00 | 0.00 | 90 | 1013.5 |
| 20260901022918 | 69 | 112 | 0.0 | 0.9 | 0.00 | 0.00 | 0.00 | 90 | 1013.5 |
| 20260901022756 | 69 | 112 | 0.0 | 0.9 | 0.00 | 0.00 | 0.00 | 90 | 1013.5 |
| 20260901022705 | 69 | 112 | 0.0 | 0.9 | 0.00 | 0.00 | 0.00 | 90 | 1013.6 |
| 20260901022610 | 69 | 112 | 0.0 | 0.9 | 0.00 | 0.00 | 0.00 | 90 | 1013.6 |
| 20260901022515 | 69 | 112 | 0.0 | 0.9 | 0.00 | 0.00 | 0.00 | 90 | 1013.5 |
| 20260901022357 | 69 | 112 | 0.0 | 0.9 | 0.00 | 0.00 | 0.00 | 89 | 1013.4 |
| 20260901022305 | 69 | 112 | 0.9 | 0.9 | 0.00 | 0.00 | 0.00 | 89 | 1013.4 |
| 20260901022207 | 69 | 112 | 0.9 | 0.9 | 0.00 | 0.00 | 0.00 | 89 | 1013.4 |
| 20260901022055 | 69 | 112 | 0.9 | 0.9 | 0.00 | 0.00 | 0.00 | 89 | 1013.4 |
| 20260901022001 | 69 | 112 | 0.9 | 0.9 | 0.00 | 0.00 | 0.00 | 89 | 1013.4 |
| 20260901021905 | 69 | 112 | 0.9 | 0.9 | 0.00 | 0.00 | 0.00 | 89 | 1013.4 |
| 20260901021809 | 69 | 112 | 0.0 | 0.9 | 0.00 | 0.00 | 0.00 | 89 | 1013.4 |
| 20260901021734 | 69 | 112 | 0.0 | 0.0 | 0.00 | 0.00 | 0.00 | 89 | 1013.4 |
| 20260901021557 | 69 | 112 | 0.0 | 0.0 | 0.00 | 0.00 | 0.00 | 89 | 1013.3 |
| 20260901021501 | 69 | 112 | 0.0 | 0.0 | 0.00 | 0.00 | 0.00 | 89 | 1013.4 |
| 20260901021410 | 69 | 112 | 0.0 | 0.0 | 0.00 | 0.00 | 0.00 | 89 | 1013.4 |
| 20260901021255 | 69 | 112 | 0.0 | 0.0 | 0.00 | 0.00 | 0.00 | 88 | 1013.4 |
| 20260901021221 | 69 | 112 | 0.0 | 0.0 | 0.00 | 0.00 | 0.00 | 88 | 1013.4 |
| 20260901021058 | 69 | 112 | 0.0 | 0.0 | 0.00 | 0.00 | 0.00 | 88 | 1013.4 |
| 20260901021023 | 69 | 112 | 0.0 | 0.0 | 0.00 | 0.00 | 0.00 | 88 | 1013.4 |
| 20260901020927 | 69 | 112 | 0.0 | 0.0 | 0.00 | 0.00 | 0.00 | 88 | 1013.4 |
| 20260901020852 | 70 | 112 | 0.0 | 0.0 | 0.00 | 0.00 | 0.00 | 88 | 1013.4 |
| 20260901020735 | 70 | 112 | 0.0 | 0.0 | 0.00 | 0.00 | 0.00 | 88 | 1013.4 |
| 20260901020454 | 70 | 112 | 0.0 | 0.0 | 0.00 | 0.00 | 0.00 | 88 | 1013.3 |
| 20260901020420 | 70 | 112 | 0.0 | 0.0 | 0.00 | 0.00 | 0.00 | 88 | 1013.3 |
| 20260901020258 | 70 | 112 | 0.0 | 0.0 | 0.00 | 0.00 | 0.00 | 88 | 1013.4 |
| 20260901020203 | 70 | 112 | 0.0 | 0.0 | 0.00 | 0.00 | 0.00 | 88 | 1013.3 |
| 20260901020109 | 70 | 112 | 0.0 | 0.0 | 0.00 | 0.00 | 0.00 | 88 | 1013.3 |
| 20260901020010 | 70 | 112 | 0.0 | 0.0 | 0.00 | 0.00 | 0.00 | 88 | 1013.3 |
| 20260901015919 | 70 | 112 | 0.0 | 0.0 | 0.00 | 0.00 | 0.00 | 88 | 1013.3 |
| 20260901015756 | 70 | 112 | 0.0 | 0.0 | 0.00 | 0.00 | 0.00 | 88 | 1013.2 |
| 20260901015702 | 70 | 112 | 0.0 | 0.0 | 0.00 | 0.00 | 0.00 | 87 | 1013.3 |
| 20260901015606 | 70 | 112 | 0.0 | 0.0 | 0.00 | 0.00 | 0.00 | 87 | 1013.2 |
| 20260901015511 | 70 | 112 | 0.0 | 0.0 | 0.00 | 0.00 | 0.00 | 87 | 1013.2 |
| 20260901015400 | 70 | 112 | 0.0 | 0.0 | 0.00 | 0.00 | 0.00 | 87 | 1013.2 |
| 20260901015306 | 70 | 112 | 0.0 | 0.0 | 0.00 | 0.00 | 0.00 | 87 | 1013.3 |
| 20260901015229 | 70 | 112 | 0.0 | 0.0 | 0.00 | 0.00 | 0.00 | 86 | 1013.3 |
| 20260901015112 | 71 | 112 | 0.0 | 0.0 | 0.00 | 0.00 | 0.00 | 86 | 1013.2 |
| 20260901015017 | 71 | 112 | 0.0 | 0.0 | 0.00 | 0.00 | 0.00 | 86 | 1013.2 |
| 20260901014854 | 71 | 112 | 0.0 | 0.9 | 0.00 | 0.00 | 0.00 | 86 | 1013.1 |
| 20260901014757 | 71 | 112 | 0.0 | 0.9 | 0.00 | 0.00 | 0.00 | 86 | 1013.1 |
| 20260901014702 | 71 | 112 | 0.0 | 0.9 | 0.00 | 0.00 | 0.00 | 86 | 1013.1 |
| 20260901014610 | 71 | 112 | 0.0 | 0.9 | 0.00 | 0.00 | 0.00 | 87 | 1013.1 |
| 20260901014455 | 71 | 112 | 0.0 | 0.9 | 0.00 | 0.00 | 0.00 | 86 | 1013.2 |
| 20260901014420 | 71 | 112 | 0.0 | 0.9 | 0.00 | 0.00 | 0.00 | 86 | 1013.2 |
| 20260901014258 | 71 | 112 | 0.0 | 1.7 | 0.00 | 0.00 | 0.00 | 86 | 1013.2 |
| 20260901014223 | 71 | 112 | 0.0 | 1.7 | 0.00 | 0.00 | 0.00 | 86 | 1013.2 |
| 20260901014127 | 71 | 112 | 0.0 | 1.7 | 0.00 | 0.00 | 0.00 | 86 | 1013.1 |
| 20260901013954 | 71 | 112 | 0.0 | 1.7 | 0.00 | 0.00 | 0.00 | 86 | 1013.1 |
| 20260901013859 | 71 | 112 | 0.0 | 1.7 | 0.00 | 0.00 | 0.00 | 86 | 1013.2 |
| 20260901013803 | 71 | 112 | 0.0 | 1.7 | 0.00 | 0.00 | 0.00 | 86 | 1013.2 |
| 20260901013707 | 72 | 112 | 0.0 | 1.7 | 0.00 | 0.00 | 0.00 | 86 | 1013.1 |
| 20260901013609 | 72 | 112 | 0.0 | 1.7 | 0.00 | 0.00 | 0.00 | 86 | 1013.1 |
| 20260901013511 | 72 | 112 | 0.9 | 1.7 | 0.00 | 0.00 | 0.00 | 86 | 1013.1 |
| 20260901013401 | 72 | 112 | 0.9 | 1.7 | 0.00 | 0.00 | 0.00 | 86 | 1013.0 |
| 20260901013305 | 72 | 112 | 0.0 | 1.7 | 0.00 | 0.00 | 0.00 | 86 | 1013.1 |
| 20260901013210 | 72 | 112 | 0.0 | 1.7 | 0.00 | 0.00 | 0.00 | 86 | 1013.1 |
| 20260901013055 | 72 | 112 | 0.0 | 1.7 | 0.00 | 0.00 | 0.00 | 85 | 1013.0 |
| 20260901013000 | 72 | 112 | 0.0 | 1.7 | 0.00 | 0.00 | 0.00 | 85 | 1013.0 |
| 20260901012925 | 72 | 112 | 0.9 | 1.7 | 0.00 | 0.00 | 0.00 | 85 | 1013.0 |
| 20260901012808 | 72 | 112 | 0.9 | 1.7 | 0.00 | 0.00 | 0.00 | 85 | 1013.0 |
| 20260901012717 | 72 | 112 | 0.9 | 1.7 | 0.00 | 0.00 | 0.00 | 85 | 1012.8 |
| 20260901012601 | 73 | 112 | 0.0 | 1.7 | 0.00 | 0.00 | 0.00 | 86 | 1012.9 |
| 20260901012505 | 73 | 112 | 0.0 | 1.7 | 0.00 | 0.00 | 0.00 | 85 | 1012.9 |
| 20260901012411 | 73 | 112 | 0.0 | 1.7 | 0.00 | 0.00 | 0.00 | 85 | 1012.9 |
| 20260901012315 | 73 | 112 | 0.0 | 1.7 | 0.00 | 0.00 | 0.00 | 85 | 1012.9 |
| 20260901012241 | 73 | 112 | 0.0 | 1.7 | 0.00 | 0.00 | 0.00 | 85 | 1012.9 |
| 20260901012058 | 73 | 112 | 0.0 | 1.7 | 0.00 | 0.00 | 0.00 | 85 | 1012.8 |
| 20260901012007 | 73 | 112 | 0.9 | 1.7 | 0.00 | 0.00 | 0.00 | 85 | 1012.8 |
| 20260901011912 | 73 | 112 | 0.9 | 1.7 | 0.00 | 0.00 | 0.00 | 85 | 1012.8 |
| 20260901011818 | 73 | 112 | 0.9 | 1.7 | 0.00 | 0.00 | 0.00 | 85 | 1012.8 |
| 20260901011656 | 73 | 112 | 0.9 | 1.7 | 0.00 | 0.00 | 0.00 | 85 | 1012.9 |
| 20260901011601 | 73 | 112 | 0.9 | 1.7 | 0.00 | 0.00 | 0.00 | 84 | 1012.9 |
| 20260901011506 | 73 | 112 | 0.9 | 1.7 | 0.00 | 0.00 | 0.00 | 84 | 1012.8 |
| 20260901011415 | 73 | 112 | 0.9 | 1.7 | 0.00 | 0.00 | 0.00 | 83 | 1012.9 |
| 20260901011259 | 74 | 112 | 0.9 | 1.7 | 0.00 | 0.00 | 0.00 | 83 | 1012.9 |
| 20260901011224 | 74 | 112 | 0.0 | 0.0 | 0.00 | 0.00 | 0.00 | 83 | 1012.8 |
| 20260901011107 | 74 | 112 | 0.0 | 0.0 | 0.00 | 0.00 | 0.00 | 83 | 1012.8 |
| 20260901011032 | 74 | 112 | 0.0 | 0.0 | 0.00 | 0.00 | 0.00 | 82 | 1012.9 |
| 20260901010855 | 74 | 112 | 0.0 | 0.0 | 0.00 | 0.00 | 0.00 | 82 | 1012.8 |
| 20260901010801 | 74 | 112 | 0.0 | 0.0 | 0.00 | 0.00 | 0.00 | 82 | 1012.8 |
| 20260901010708 | 74 | 112 | 0.0 | 0.0 | 0.00 | 0.00 | 0.00 | 82 | 1012.8 |
| 20260901010612 | 74 | 112 | 0.0 | 0.0 | 0.00 | 0.00 | 0.00 | 82 | 1012.8 |
| 20260901010457 | 74 | 112 | 0.0 | 0.0 | 0.00 | 0.00 | 0.00 | 82 | 1012.8 |
| 20260901010421 | 74 | 112 | 0.0 | 0.0 | 0.00 | 0.00 | 0.00 | 81 | 1012.8 |
| 20260901010259 | 75 | 112 | 0.0 | 0.0 | 0.00 | 0.00 | 0.00 | 82 | 1012.7 |
| 20260901010203 | 75 | 112 | 0.0 | 0.0 | 0.00 | 0.00 | 0.00 | 82 | 1012.7 |
| 20260901010128 | 75 | 112 | 0.0 | 0.0 | 0.00 | 0.00 | 0.00 | 81 | 1012.7 |
| 20260901010013 | 75 | 112 | 0.0 | 0.0 | 0.00 | 0.00 | 0.00 | 80 | 1012.7 |
| 20260901005919 | 75 | 112 | 0.0 | 0.0 | 0.00 | 0.00 | 0.00 | 80 | 1012.7 |
| 20260901005756 | 75 | 112 | 0.0 | 0.0 | 0.00 | 0.00 | 0.00 | 79 | 1012.8 |
| 20260901005701 | 75 | 112 | 0.0 | 0.0 | 0.00 | 0.00 | 0.00 | 78 | 1012.7 |
| 20260901005606 | 75 | 112 | 0.0 | 0.0 | 0.00 | 0.00 | 0.00 | 78 | 1012.8 |
| 20260901005455 | 75 | 112 | 0.0 | 0.0 | 0.00 | 0.00 | 0.00 | 78 | 1012.8 |
| 20260901005420 | 75 | 112 | 0.0 | 0.0 | 0.00 | 0.00 | 0.00 | 79 | 1012.8 |
| 20260901005258 | 76 | 112 | 0.0 | 0.0 | 0.00 | 0.00 | 0.00 | 79 | 1012.8 |
| 20260901005202 | 76 | 112 | 0.0 | 0.0 | 0.00 | 0.00 | 0.00 | 79 | 1012.7 |
| 20260901005107 | 76 | 112 | 0.0 | 0.0 | 0.00 | 0.00 | 0.00 | 78 | 1012.7 |
| 20260901005032 | 76 | 112 | 0.0 | 0.0 | 0.00 | 0.00 | 0.00 | 77 | 1012.7 |
| 20260901004855 | 76 | 112 | 0.0 | 0.0 | 0.00 | 0.00 | 0.00 | 76 | 1012.7 |
| 20260901004804 | 76 | 112 | 0.0 | 0.0 | 0.00 | 0.00 | 0.00 | 76 | 1012.7 |
| 20260901004709 | 76 | 112 | 0.0 | 0.0 | 0.00 | 0.00 | 0.00 | 77 | 1012.7 |
| 20260901004635 | 76 | 112 | 0.0 | 0.0 | 0.00 | 0.00 | 0.00 | 76 | 1012.7 |
| 20260901004518 | 76 | 112 | 0.0 | 0.0 | 0.00 | 0.00 | 0.00 | 75 | 1012.7 |
| 20260901004402 | 76 | 112 | 0.0 | 0.0 | 0.00 | 0.00 | 0.00 | 75 | 1012.7 |
| 20260901004307 | 77 | 112 | 0.0 | 0.9 | 0.00 | 0.00 | 0.00 | 76 | 1012.7 |
| 20260901004232 | 77 | 112 | 0.0 | 0.9 | 0.00 | 0.00 | 0.00 | 74 | 1012.7 |
| 20260901004100 | 77 | 112 | 0.0 | 0.9 | 0.00 | 0.00 | 0.00 | 74 | 1012.6 |
| 20260901004024 | 77 | 112 | 0.0 | 0.9 | 0.00 | 0.00 | 0.00 | 76 | 1012.7 |
| 20260901003908 | 77 | 112 | 0.0 | 0.9 | 0.00 | 0.00 | 0.00 | 75 | 1012.7 |
| 20260901003831 | 77 | 112 | 0.0 | 0.9 | 0.00 | 0.00 | 0.00 | 75 | 1012.6 |
| 20260901003715 | 77 | 112 | 0.0 | 0.9 | 0.00 | 0.00 | 0.00 | 74 | 1012.7 |
| 20260901003559 | 77 | 112 | 0.0 | 0.9 | 0.00 | 0.00 | 0.00 | 74 | 1012.7 |
| 20260901003504 | 78 | 112 | 0.0 | 0.9 | 0.00 | 0.00 | 0.00 | 76 | 1012.7 |
| 20260901003413 | 78 | 112 | 0.0 | 0.9 | 0.00 | 0.00 | 0.00 | 76 | 1012.7 |
| 20260901003318 | 78 | 112 | 0.0 | 0.9 | 0.00 | 0.00 | 0.00 | 75 | 1012.7 |
| 20260901003156 | 78 | 112 | 0.0 | 0.0 | 0.00 | 0.00 | 0.00 | 73 | 1012.7 |
| 20260901003101 | 78 | 112 | 0.0 | 0.0 | 0.00 | 0.00 | 0.00 | 73 | 1012.7 |
| 20260901003007 | 78 | 112 | 0.0 | 0.0 | 0.00 | 0.00 | 0.00 | 73 | 1012.7 |
| 20260901002911 | 78 | 112 | 0.0 | 0.0 | 0.00 | 0.00 | 0.00 | 73 | 1012.7 |
| 20260901002821 | 78 | 112 | 0.0 | 0.0 | 0.00 | 0.00 | 0.00 | 73 | 1012.7 |
| 20260901002658 | 79 | 112 | 0.0 | 0.0 | 0.00 | 0.00 | 0.00 | 74 | 1012.7 |
| 20260901002602 | 79 | 112 | 0.0 | 0.0 | 0.00 | 0.00 | 0.00 | 73 | 1012.6 |
| 20260901002507 | 79 | 112 | 0.0 | 0.0 | 0.00 | 0.00 | 0.00 | 73 | 1012.6 |
| 20260901002412 | 79 | 112 | 0.0 | 0.0 | 0.00 | 0.00 | 0.00 | 73 | 1012.7 |
| 20260901002338 | 79 | 112 | 0.0 | 0.0 | 0.00 | 0.00 | 0.00 | 73 | 1012.7 |
| 20260901002154 | 79 | 112 | 0.0 | 0.0 | 0.00 | 0.00 | 0.00 | 72 | 1012.8 |
| 20260901002103 | 79 | 112 | 0.0 | 0.0 | 0.00 | 0.00 | 0.00 | 72 | 1012.7 |
| 20260901002008 | 79 | 112 | 0.0 | 0.0 | 0.00 | 0.00 | 0.00 | 71 | 1012.7 |
| 20260901001913 | 79 | 112 | 0.0 | 0.0 | 0.00 | 0.00 | 0.00 | 71 | 1012.7 |
| 20260901001757 | 80 | 112 | 0.0 | 0.0 | 0.00 | 0.00 | 0.00 | 71 | 1012.7 |
| 20260901001702 | 80 | 112 | 0.0 | 0.0 | 0.00 | 0.00 | 0.00 | 70 | 1012.7 |
| 20260901001607 | 80 | 112 | 0.0 | 0.0 | 0.00 | 0.00 | 0.00 | 71 | 1012.7 |
| 20260901001456 | 80 | 112 | 0.0 | 0.0 | 0.00 | 0.00 | 0.00 | 71 | 1012.7 |
| 20260901001401 | 80 | 112 | 0.0 | 0.0 | 0.00 | 0.00 | 0.00 | 70 | 1012.7 |
| 20260901001306 | 80 | 112 | 0.0 | 0.0 | 0.00 | 0.00 | 0.00 | 71 | 1012.7 |
| 20260901001210 | 81 | 112 | 0.0 | 0.0 | 0.00 | 0.00 | 0.00 | 73 | 1012.7 |
| 20260901001115 | 81 | 112 | 0.0 | 0.0 | 0.00 | 0.00 | 0.00 | 73 | 1012.7 |
| 20260901000959 | 81 | 112 | 0.0 | 0.0 | 0.00 | 0.00 | 0.00 | 74 | 1012.7 |
| 20260901000908 | 81 | 112 | 0.0 | 0.0 | 0.00 | 0.00 | 0.00 | 72 | 1012.7 |
| 20260901000833 | 81 | 112 | 0.0 | 0.0 | 0.00 | 0.00 | 0.00 | 71 | 1012.7 |
| 20260901000719 | 81 | 112 | 0.0 | 0.0 | 0.00 | 0.00 | 0.00 | 71 | 1012.7 |
| 20260901000556 | 81 | 112 | 0.0 | 0.0 | 0.00 | 0.00 | 0.00 | 71 | 1012.7 |
| 20260901000501 | 81 | 112 | 0.0 | 0.0 | 0.00 | 0.00 | 0.00 | 68 | 1012.7 |
| 20260901000406 | 81 | 112 | 0.0 | 0.0 | 0.00 | 0.00 | 0.00 | 68 | 1012.7 |
| 20260901000255 | 81 | 112 | 0.0 | 0.0 | 0.00 | 0.00 | 0.00 | 70 | 1012.7 |
| 20260901000159 | 82 | 112 | 0.0 | 0.0 | 0.00 | 0.00 | 0.00 | 70 | 1012.7 |
| 20260901000103 | 82 | 112 | 0.0 | 0.0 | 0.00 | 0.00 | 0.00 | 69 | 1012.8 |
| 20260901000008 | 82 | 112 | 0.0 | 0.0 | 0.00 | 0.00 | 0.00 | 69 | 1012.8 |
| 20260831235934 | 82 | 112 | 0.0 | 0.0 | 0.00 | 0.00 | 0.00 | 67 | 1012.8 |
| 20260831235817 | 82 | 112 | 0.0 | 0.0 | 0.00 | 0.00 | 0.00 | 66 | 1012.7 |
| 20260831235701 | 82 | 112 | 0.0 | 0.9 | 0.00 | 0.00 | 0.00 | 66 | 1012.6 |
| 20260831235610 | 83 | 112 | 0.0 | 1.7 | 0.00 | 0.00 | 0.00 | 67 | 1012.6 |
| 20260831235455 | 83 | 112 | 0.0 | 1.7 | 0.00 | 0.00 | 0.00 | 68 | 1012.7 |
| 20260831235420 | 83 | 112 | 0.0 | 1.7 | 0.00 | 0.00 | 0.00 | 67 | 1012.7 |
| 20260831235258 | 83 | 112 | 0.0 | 1.7 | 0.00 | 0.00 | 0.00 | 66 | 1012.6 |
| 20260831235203 | 83 | 112 | 0.0 | 1.7 | 0.00 | 0.00 | 0.00 | 66 | 1012.6 |
| 20260831235108 | 83 | 112 | 0.0 | 1.7 | 0.00 | 0.00 | 0.00 | 65 | 1012.6 |
| 20260831235017 | 83 | 112 | 0.0 | 1.7 | 0.00 | 0.00 | 0.00 | 67 | 1012.7 |
| 20260831234854 | 84 | 112 | 0.9 | 1.7 | 0.00 | 0.00 | 0.00 | 68 | 1012.7 |
| 20260831234759 | 84 | 112 | 0.9 | 1.7 | 0.00 | 0.00 | 0.00 | 67 | 1012.7 |
| 20260831234704 | 84 | 112 | 0.9 | 1.7 | 0.00 | 0.00 | 0.00 | 65 | 1012.6 |
| 20260831234608 | 84 | 112 | 0.9 | 2.6 | 0.00 | 0.00 | 0.00 | 64 | 1012.6 |
| 20260831234533 | 84 | 112 | 0.9 | 2.6 | 0.00 | 0.00 | 0.00 | 64 | 1012.7 |
| 20260831234401 | 84 | 112 | 0.9 | 2.6 | 0.00 | 0.00 | 0.00 | 64 | 1012.6 |
| 20260831234326 | 84 | 112 | 0.9 | 2.6 | 0.00 | 0.00 | 0.00 | 65 | 1012.5 |
| 20260831234210 | 84 | 112 | 0.9 | 2.6 | 0.00 | 0.00 | 0.00 | 66 | 1012.5 |
| 20260831234056 | 84 | 112 | 0.9 | 2.6 | 0.00 | 0.00 | 0.00 | 65 | 1012.5 |
| 20260831233958 | 84 | 112 | 0.9 | 2.6 | 0.00 | 0.00 | 0.00 | 63 | 1012.5 |
| 20260831233902 | 84 | 112 | 0.9 | 2.6 | 0.00 | 0.00 | 0.00 | 60 | 1012.4 |
| 20260831233807 | 84 | 112 | 0.9 | 2.6 | 0.00 | 0.00 | 0.00 | 60 | 1012.4 |
| 20260831233656 | 85 | 112 | 0.9 | 1.7 | 0.00 | 0.00 | 0.00 | 62 | 1012.5 |
| 20260831233600 | 85 | 112 | 0.9 | 1.7 | 0.00 | 0.00 | 0.00 | 63 | 1012.5 |
| 20260831233505 | 85 | 112 | 0.9 | 1.7 | 0.00 | 0.00 | 0.00 | 63 | 1012.5 |
| 20260831233430 | 85 | 112 | 0.9 | 1.7 | 0.00 | 0.00 | 0.00 | 62 | 1012.5 |
| 20260831233314 | 85 | 112 | 0.9 | 1.7 | 0.00 | 0.00 | 0.00 | 62 | 1012.5 |
| 20260831233218 | 85 | 112 | 0.9 | 1.7 | 0.00 | 0.00 | 0.00 | 60 | 1012.6 |
| 20260831233102 | 85 | 112 | 0.9 | 1.7 | 0.00 | 0.00 | 0.00 | 64 | 1012.6 |
| 20260831233011 | 85 | 112 | 0.0 | 1.7 | 0.00 | 0.00 | 0.00 | 64 | 1012.6 |
| 20260831232916 | 86 | 112 | 0.0 | 1.7 | 0.00 | 0.00 | 0.00 | 63 | 1012.6 |
| 20260831232754 | 86 | 112 | 0.9 | 1.7 | 0.00 | 0.00 | 0.00 | 60 | 1012.6 |
| 20260831232720 | 86 | 112 | 0.9 | 2.6 | 0.00 | 0.00 | 0.00 | 58 | 1012.6 |
| 20260831232603 | 86 | 112 | 0.9 | 2.6 | 0.00 | 0.00 | 0.00 | 60 | 1012.6 |
| 20260831232508 | 86 | 112 | 0.9 | 2.6 | 0.00 | 0.00 | 0.00 | 56 | 1012.6 |
| 20260831232357 | 86 | 112 | 0.9 | 2.6 | 0.00 | 0.00 | 0.00 | 58 | 1012.6 |
| 20260831232305 | 86 | 112 | 0.9 | 2.6 | 0.00 | 0.00 | 0.00 | 58 | 1012.6 |
| 20260831232226 | 86 | 112 | 0.9 | 2.6 | 0.00 | 0.00 | 0.00 | 58 | 1012.6 |
| 20260831232111 | 86 | 112 | 0.9 | 2.6 | 0.00 | 0.00 | 0.00 | 56 | 1012.6 |
| 20260831232016 | 86 | 112 | 1.7 | 2.6 | 0.00 | 0.00 | 0.00 | 52 | 1012.6 |
| 20260831231854 | 87 | 112 | 1.7 | 2.6 | 0.00 | 0.00 | 0.00 | 55 | 1012.6 |
| 20260831231759 | 87 | 112 | 1.7 | 2.6 | 0.00 | 0.00 | 0.00 | 51 | 1012.6 |
| 20260831231708 | 87 | 112 | 1.7 | 2.6 | 0.00 | 0.00 | 0.00 | 51 | 1012.6 |
| 20260831231613 | 87 | 112 | 0.9 | 2.6 | 0.00 | 0.00 | 0.00 | 50 | 1012.6 |
| 20260831231518 | 87 | 112 | 0.9 | 3.5 | 0.00 | 0.00 | 0.00 | 51 | 1012.6 |
| 20260831231402 | 87 | 112 | 0.9 | 3.5 | 0.00 | 0.00 | 0.00 | 51 | 1012.6 |
| 20260831231307 | 87 | 112 | 0.9 | 3.5 | 0.00 | 0.00 | 0.00 | 50 | 1012.6 |
| 20260831231211 | 87 | 112 | 0.9 | 5.2 | 0.00 | 0.00 | 0.00 | 51 | 1012.6 |
| 20260831231121 | 87 | 112 | 0.9 | 5.2 | 0.00 | 0.00 | 0.00 | 51 | 1012.6 |
| 20260831230958 | 87 | 112 | 0.9 | 5.2 | 0.00 | 0.00 | 0.00 | 49 | 1012.5 |
| 20260831230902 | 87 | 112 | 1.7 | 5.2 | 0.00 | 0.00 | 0.00 | 51 | 1012.5 |
| 20260831230826 | 87 | 112 | 1.7 | 5.2 | 0.00 | 0.00 | 0.00 | 49 | 1012.4 |
| 20260831230710 | 87 | 112 | 2.6 | 5.2 | 0.00 | 0.00 | 0.00 | 49 | 1012.4 |
| 20260831230555 | 87 | 113 | 2.6 | 5.2 | 0.00 | 0.00 | 0.00 | 49 | 1012.5 |
| 20260831230520 | 87 | 113 | 3.5 | 5.2 | 0.00 | 0.00 | 0.00 | 49 | 1012.5 |
| 20260831230409 | 87 | 113 | 3.5 | 5.2 | 0.00 | 0.00 | 0.00 | 49 | 1012.5 |
| 20260831230313 | 87 | 115 | 3.5 | 5.2 | 0.00 | 0.00 | 0.00 | 50 | 1012.5 |
| 20260831230155 | 87 | 100 | 2.6 | 3.5 | 0.00 | 0.00 | 0.00 | 50 | 1012.5 |
| 20260831230119 | 87 | 101 | 2.6 | 3.5 | 0.00 | 0.00 | 0.00 | 50 | 1012.5 |
| 20260831230003 | 87 | 101 | 1.7 | 3.5 | 0.00 | 0.00 | 0.00 | 51 | 1012.5 |
| 20260831225908 | 87 | 96 | 1.7 | 3.5 | 0.00 | 0.00 | 0.00 | 50 | 1012.5 |
| 20260831225813 | 87 | 96 | 1.7 | 3.5 | 0.00 | 0.00 | 0.00 | 48 | 1012.5 |
| 20260831225702 | 87 | 96 | 1.7 | 3.5 | 0.00 | 0.00 | 0.00 | 48 | 1012.5 |
| 20260831225607 | 87 | 96 | 1.7 | 3.5 | 0.00 | 0.00 | 0.00 | 48 | 1012.5 |
| 20260831225512 | 87 | 95 | 0.9 | 3.5 | 0.00 | 0.00 | 0.00 | 49 | 1012.4 |
| 20260831225357 | 87 | 95 | 1.7 | 3.5 | 0.00 | 0.00 | 0.00 | 50 | 1012.5 |
| 20260831225322 | 87 | 95 | 2.6 | 3.5 | 0.00 | 0.00 | 0.00 | 50 | 1012.4 |
| 20260831225206 | 87 | 95 | 2.6 | 3.5 | 0.00 | 0.00 | 0.00 | 51 | 1012.4 |
| 20260831225056 | 87 | 100 | 2.6 | 3.5 | 0.00 | 0.00 | 0.00 | 50 | 1012.4 |
| 20260831225000 | 87 | 102 | 1.7 | 3.5 | 0.00 | 0.00 | 0.00 | 51 | 1012.4 |
| 20260831224904 | 87 | 103 | 1.7 | 3.5 | 0.00 | 0.00 | 0.00 | 50 | 1012.4 |
| 20260831224809 | 87 | 103 | 1.7 | 3.5 | 0.00 | 0.00 | 0.00 | 52 | 1012.4 |
| 20260831224655 | 87 | 103 | 1.7 | 3.5 | 0.00 | 0.00 | 0.00 | 51 | 1012.5 |
| 20260831224559 | 87 | 103 | 2.6 | 3.5 | 0.00 | 0.00 | 0.00 | 52 | 1012.5 |
| 20260831224508 | 87 | 103 | 2.6 | 3.5 | 0.00 | 0.00 | 0.00 | 50 | 1012.5 |
| 20260831224413 | 87 | 103 | 2.6 | 3.5 | 0.00 | 0.00 | 0.00 | 51 | 1012.5 |
| 20260831224318 | 87 | 103 | 2.6 | 3.5 | 0.00 | 0.00 | 0.00 | 50 | 1012.4 |
| 20260831224156 | 87 | 103 | 2.6 | 3.5 | 0.00 | 0.00 | 0.00 | 50 | 1012.5 |
| 20260831224101 | 87 | 103 | 2.6 | 4.3 | 0.00 | 0.00 | 0.00 | 50 | 1012.5 |
| 20260831224006 | 87 | 103 | 1.7 | 4.3 | 0.00 | 0.00 | 0.00 | 50 | 1012.4 |
| 20260831223855 | 87 | 88 | 1.7 | 4.3 | 0.00 | 0.00 | 0.00 | 50 | 1012.4 |
| 20260831223820 | 87 | 88 | 1.7 | 4.3 | 0.00 | 0.00 | 0.00 | 50 | 1012.4 |
| 20260831223658 | 88 | 67 | 1.7 | 4.3 | 0.00 | 0.00 | 0.00 | 50 | 1012.5 |
| 20260831223602 | 88 | 67 | 1.7 | 4.3 | 0.00 | 0.00 | 0.00 | 50 | 1012.5 |
| 20260831223507 | 88 | 67 | 1.7 | 4.3 | 0.00 | 0.00 | 0.00 | 49 | 1012.5 |
| 20260831223356 | 88 | 67 | 2.6 | 4.3 | 0.00 | 0.00 | 0.00 | 48 | 1012.4 |
| 20260831223301 | 88 | 66 | 2.6 | 4.3 | 0.00 | 0.00 | 0.00 | 50 | 1012.4 |
| 20260831223205 | 88 | 65 | 2.6 | 5.2 | 0.00 | 0.00 | 0.00 | 49 | 1012.4 |
| 20260831223129 | 88 | 105 | 2.6 | 6.1 | 0.00 | 0.00 | 0.00 | 49 | 1012.4 |
| 20260831223014 | 88 | 105 | 1.7 | 6.1 | 0.00 | 0.00 | 0.00 | 48 | 1012.3 |
| 20260831222918 | 88 | 105 | 1.7 | 6.1 | 0.00 | 0.00 | 0.00 | 49 | 1012.4 |
| 20260831222801 | 88 | 105 | 1.7 | 6.1 | 0.00 | 0.00 | 0.00 | 48 | 1012.3 |
| 20260831222710 | 88 | 105 | 2.6 | 6.1 | 0.00 | 0.00 | 0.00 | 49 | 1012.3 |
| 20260831222555 | 88 | 106 | 2.6 | 6.1 | 0.00 | 0.00 | 0.00 | 49 | 1012.4 |
| 20260831222520 | 88 | 107 | 3.5 | 6.1 | 0.00 | 0.00 | 0.00 | 49 | 1012.4 |
| 20260831222358 | 88 | 120 | 3.5 | 6.1 | 0.00 | 0.00 | 0.00 | 49 | 1012.3 |
| 20260831222306 | 88 | 109 | 3.5 | 6.1 | 0.00 | 0.00 | 0.00 | 50 | 1012.3 |
| 20260831222207 | 88 | 112 | 2.6 | 5.2 | 0.00 | 0.00 | 0.00 | 50 | 1012.3 |
| 20260831222056 | 88 | 91 | 1.7 | 5.2 | 0.00 | 0.00 | 0.00 | 50 | 1012.4 |
| 20260831222020 | 88 | 98 | 1.7 | 5.2 | 0.00 | 0.00 | 0.00 | 50 | 1012.4 |
| 20260831221858 | 88 | 99 | 0.9 | 5.2 | 0.00 | 0.00 | 0.00 | 52 | 1012.4 |
| 20260831221803 | 88 | 99 | 1.7 | 5.2 | 0.00 | 0.00 | 0.00 | 51 | 1012.3 |
| 20260831221708 | 88 | 99 | 2.6 | 5.2 | 0.00 | 0.00 | 0.00 | 51 | 1012.3 |
| 20260831221613 | 88 | 99 | 2.6 | 5.2 | 0.00 | 0.00 | 0.00 | 50 | 1012.3 |
| 20260831221502 | 88 | 78 | 2.6 | 5.2 | 0.00 | 0.00 | 0.00 | 50 | 1012.3 |
| 20260831221406 | 88 | 44 | 2.6 | 5.2 | 0.00 | 0.00 | 0.00 | 51 | 1012.2 |
| 20260831221312 | 88 | 61 | 2.6 | 7.0 | 0.00 | 0.00 | 0.00 | 50 | 1012.2 |
| 20260831221216 | 88 | 61 | 2.6 | 7.0 | 0.00 | 0.00 | 0.00 | 52 | 1012.2 |
| 20260831221141 | 88 | 42 | 2.6 | 7.0 | 0.00 | 0.00 | 0.00 | 50 | 1012.3 |
| 20260831220958 | 88 | 75 | 2.6 | 7.0 | 0.00 | 0.00 | 0.00 | 49 | 1012.2 |
| 20260831220902 | 88 | 98 | 1.7 | 7.0 | 0.00 | 0.00 | 0.00 | 47 | 1012.2 |
| 20260831220811 | 88 | 98 | 2.6 | 7.0 | 0.00 | 0.00 | 0.00 | 48 | 1012.2 |
| 20260831220657 | 88 | 78 | 4.3 | 7.0 | 0.00 | 0.00 | 0.00 | 46 | 1012.2 |
| 20260831220621 | 88 | 85 | 4.3 | 7.0 | 0.00 | 0.00 | 0.00 | 46 | 1012.3 |
| 20260831220505 | 88 | 56 | 3.5 | 7.0 | 0.00 | 0.00 | 0.00 | 47 | 1012.2 |
| 20260831220410 | 88 | 90 | 2.6 | 6.1 | 0.00 | 0.00 | 0.00 | 47 | 1012.2 |
| 20260831220314 | 88 | 63 | 2.6 | 5.2 | 0.00 | 0.00 | 0.00 | 48 | 1012.2 |
| 20260831220202 | 88 | 50 | 3.5 | 5.2 | 0.00 | 0.00 | 0.00 | 48 | 1012.2 |
| 20260831220107 | 88 | 76 | 3.5 | 5.2 | 0.00 | 0.00 | 0.00 | 47 | 1012.2 |
| 20260831220012 | 88 | 72 | 3.5 | 5.2 | 0.00 | 0.00 | 0.00 | 49 | 1012.2 |
| 20260831215857 | 88 | 98 | 2.6 | 6.1 | 0.00 | 0.00 | 0.00 | 51 | 1012.2 |
| 20260831215802 | 88 | 61 | 2.6 | 4.3 | 0.00 | 0.00 | 0.00 | 52 | 1012.2 |
| 20260831215707 | 88 | 61 | 2.6 | 4.3 | 0.00 | 0.00 | 0.00 | 52 | 1012.2 |
| 20260831215616 | 88 | 57 | 2.6 | 4.3 | 0.00 | 0.00 | 0.00 | 51 | 1012.2 |
| 20260831215454 | 88 | 59 | 2.6 | 4.3 | 0.00 | 0.00 | 0.00 | 51 | 1012.3 |
| 20260831215400 | 88 | 59 | 1.7 | 3.5 | 0.00 | 0.00 | 0.00 | 53 | 1012.2 |
| 20260831215306 | 88 | 55 | 1.7 | 5.2 | 0.00 | 0.00 | 0.00 | 51 | 1012.2 |
| 20260831215209 | 88 | 55 | 2.6 | 5.2 | 0.00 | 0.00 | 0.00 | 50 | 1012.2 |
| 20260831215058 | 88 | 57 | 2.6 | 7.0 | 0.00 | 0.00 | 0.00 | 51 | 1012.3 |
| 20260831215001 | 88 | 57 | 2.6 | 7.0 | 0.00 | 0.00 | 0.00 | 51 | 1012.3 |
| 20260831214906 | 88 | 57 | 2.6 | 7.0 | 0.00 | 0.00 | 0.00 | 51 | 1012.2 |
| 20260831214810 | 88 | 57 | 1.7 | 7.0 | 0.00 | 0.00 | 0.00 | 52 | 1012.2 |
| 20260831214655 | 88 | 55 | 2.6 | 7.0 | 0.00 | 0.00 | 0.00 | 52 | 1012.2 |
| 20260831214620 | 88 | 56 | 3.5 | 7.0 | 0.00 | 0.00 | 0.00 | 50 | 1012.2 |
| 20260831214504 | 88 | 44 | 2.6 | 7.0 | 0.00 | 0.00 | 0.00 | 48 | 1012.2 |
| 20260831214412 | 88 | 44 | 3.5 | 7.0 | 0.00 | 0.00 | 0.00 | 48 | 1012.2 |
| 20260831214257 | 88 | 76 | 3.5 | 7.0 | 0.00 | 0.00 | 0.00 | 49 | 1012.2 |
| 20260831214202 | 88 | 64 | 2.6 | 6.1 | 0.00 | 0.00 | 0.00 | 50 | 1012.2 |
| 20260831214106 | 88 | 69 | 2.6 | 6.1 | 0.00 | 0.00 | 0.00 | 50 | 1012.2 |
| 20260831214010 | 88 | 90 | 3.5 | 6.1 | 0.00 | 0.00 | 0.00 | 50 | 1012.2 |
| 20260831213859 | 88 | 92 | 3.5 | 6.1 | 0.00 | 0.00 | 0.00 | 48 | 1012.2 |
| 20260831213804 | 88 | 86 | 3.5 | 6.1 | 0.00 | 0.00 | 0.00 | 49 | 1012.1 |
| 20260831213708 | 88 | 98 | 2.6 | 6.1 | 0.00 | 0.00 | 0.00 | 50 | 1012.1 |
| 20260831213613 | 88 | 87 | 2.6 | 5.2 | 0.00 | 0.00 | 0.00 | 51 | 1012.2 |
| 20260831213518 | 88 | 58 | 2.6 | 5.2 | 0.00 | 0.00 | 0.00 | 51 | 1012.1 |
| 20260831213401 | 88 | 58 | 3.5 | 6.1 | 0.00 | 0.00 | 0.00 | 53 | 1012.1 |
| 20260831213307 | 88 | 51 | 3.5 | 6.1 | 0.00 | 0.00 | 0.00 | 52 | 1012.1 |
| 20260831213155 | 88 | 42 | 2.6 | 6.1 | 0.00 | 0.00 | 0.00 | 52 | 1012.2 |
| 20260831213100 | 88 | 78 | 2.6 | 6.1 | 0.00 | 0.00 | 0.00 | 52 | 1012.1 |
| 20260831213004 | 88 | 80 | 2.6 | 6.1 | 0.00 | 0.00 | 0.00 | 52 | 1012.1 |
| 20260831212909 | 88 | 42 | 2.6 | 6.1 | 0.00 | 0.00 | 0.00 | 54 | 1012.1 |
| 20260831212755 | 88 | 51 | 3.5 | 6.1 | 0.00 | 0.00 | 0.00 | 53 | 1012.2 |
| 20260831212659 | 88 | 43 | 3.5 | 6.1 | 0.00 | 0.00 | 0.00 | 54 | 1012.1 |
| 20260831212608 | 88 | 83 | 2.6 | 6.1 | 0.00 | 0.00 | 0.00 | 53 | 1012.1 |
| 20260831212512 | 88 | 70 | 2.6 | 5.2 | 0.00 | 0.00 | 0.00 | 53 | 1012.1 |
| 20260831212417 | 88 | 67 | 3.5 | 5.2 | 0.00 | 0.00 | 0.00 | 52 | 1012.1 |
| 20260831212301 | 88 | 69 | 3.5 | 5.2 | 0.00 | 0.00 | 0.00 | 49 | 1012.1 |
| 20260831212206 | 88 | 56 | 3.5 | 5.2 | 0.00 | 0.00 | 0.00 | 48 | 1012.1 |
| 20260831212111 | 88 | 71 | 3.5 | 7.0 | 0.00 | 0.00 | 0.00 | 49 | 1012.1 |
| 20260831212021 | 88 | 69 | 3.5 | 7.0 | 0.00 | 0.00 | 0.00 | 47 | 1012.1 |
| 20260831211904 | 88 | 82 | 3.5 | 7.0 | 0.00 | 0.00 | 0.00 | 47 | 1012.1 |
| 20260831211809 | 88 | 38 | 2.6 | 7.0 | 0.00 | 0.00 | 0.00 | 46 | 1012.1 |
| 20260831211713 | 89 | 57 | 2.6 | 9.6 | 0.00 | 0.00 | 0.00 | 47 | 1012.0 |
| 20260831211558 | 89 | 60 | 3.5 | 9.6 | 0.00 | 0.00 | 0.00 | 46 | 1012.0 |
| 20260831211503 | 89 | 77 | 3.5 | 9.6 | 0.00 | 0.00 | 0.00 | 47 | 1012.0 |
| 20260831211408 | 89 | 78 | 4.3 | 9.6 | 0.00 | 0.00 | 0.00 | 46 | 1012.0 |
| 20260831211317 | 89 | 65 | 4.3 | 9.6 | 0.00 | 0.00 | 0.00 | 47 | 1012.0 |
| 20260831211154 | 89 | 123 | 3.5 | 9.6 | 0.00 | 0.00 | 0.00 | 49 | 1012.0 |
| 20260831211059 | 89 | 66 | 3.5 | 9.6 | 0.00 | 0.00 | 0.00 | 48 | 1012.0 |
| 20260831211023 | 89 | 70 | 5.2 | 9.6 | 0.00 | 0.00 | 0.00 | 47 | 1012.0 |
| 20260831210907 | 89 | 74 | 5.2 | 9.6 | 0.00 | 0.00 | 0.00 | 50 | 1012.0 |
| 20260831210812 | 89 | 59 | 5.2 | 9.6 | 0.00 | 0.00 | 0.00 | 50 | 1012.1 |
| 20260831210702 | 89 | 68 | 5.2 | 9.6 | 0.00 | 0.00 | 0.00 | 49 | 1012.1 |
| 20260831210605 | 89 | 71 | 5.2 | 9.6 | 0.00 | 0.00 | 0.00 | 50 | 1012.1 |
| 20260831210529 | 89 | 37 | 6.1 | 9.6 | 0.00 | 0.00 | 0.00 | 52 | 1012.1 |
| 20260831210413 | 88 | 27 | 5.2 | 8.7 | 0.00 | 0.00 | 0.00 | 50 | 1012.1 |
| 20260831210318 | 89 | 76 | 4.3 | 8.7 | 0.00 | 0.00 | 0.00 | 52 | 1012.1 |
| 20260831210202 | 89 | 109 | 3.5 | 7.8 | 0.00 | 0.00 | 0.00 | 53 | 1012.0 |
| 20260831210106 | 89 | 110 | 4.3 | 7.8 | 0.00 | 0.00 | 0.00 | 53 | 1012.0 |
| 20260831205954 | 89 | 62 | 5.2 | 7.8 | 0.00 | 0.00 | 0.00 | 52 | 1012.0 |
| 20260831205900 | 89 | 74 | 4.3 | 7.8 | 0.00 | 0.00 | 0.00 | 52 | 1012.0 |
| 20260831205804 | 89 | 77 | 4.3 | 7.8 | 0.00 | 0.00 | 0.00 | 52 | 1012.0 |
| 20260831205709 | 89 | 96 | 3.5 | 7.8 | 0.00 | 0.00 | 0.00 | 51 | 1012.0 |
| 20260831205613 | 89 | 98 | 3.5 | 7.8 | 0.00 | 0.00 | 0.00 | 52 | 1012.1 |
| 20260831205458 | 89 | 94 | 2.6 | 7.8 | 0.00 | 0.00 | 0.00 | 52 | 1012.1 |
| 20260831205406 | 89 | 94 | 4.3 | 7.8 | 0.00 | 0.00 | 0.00 | 52 | 1012.1 |
| 20260831205311 | 89 | 94 | 4.3 | 7.8 | 0.00 | 0.00 | 0.00 | 51 | 1012.1 |
| 20260831205235 | 89 | 97 | 4.3 | 7.8 | 0.00 | 0.00 | 0.00 | 52 | 1012.1 |
| 20260831205139 | 89 | 84 | 4.3 | 7.8 | 0.00 | 0.00 | 0.00 | 51 | 1012.0 |
| 20260831204956 | 89 | 104 | 4.3 | 7.8 | 0.00 | 0.00 | 0.00 | 51 | 1012.1 |
| 20260831204901 | 89 | 97 | 4.3 | 7.8 | 0.00 | 0.00 | 0.00 | 51 | 1012.0 |
| 20260831204805 | 89 | 81 | 4.3 | 7.8 | 0.00 | 0.00 | 0.00 | 49 | 1012.0 |
| 20260831204655 | 89 | 84 | 3.5 | 6.1 | 0.00 | 0.00 | 0.00 | 51 | 1012.0 |
| 20260831204558 | 89 | 95 | 2.6 | 5.2 | 0.00 | 0.00 | 0.00 | 51 | 1012.0 |
| 20260831204502 | 90 | 65 | 2.6 | 5.2 | 0.00 | 0.00 | 0.00 | 53 | 1012.0 |
| 20260831204406 | 90 | 69 | 2.6 | 5.2 | 0.00 | 0.00 | 0.00 | 51 | 1012.0 |
| 20260831204331 | 90 | 78 | 2.6 | 5.2 | 0.00 | 0.00 | 0.00 | 51 | 1012.0 |
| 20260831204155 | 90 | 84 | 3.5 | 7.0 | 0.00 | 0.00 | 0.00 | 49 | 1012.0 |
| 20260831204120 | 90 | 70 | 1.7 | 7.8 | 0.00 | 0.00 | 0.00 | 51 | 1012.0 |
| 20260831204007 | 90 | 34 | 1.7 | 7.8 | 0.00 | 0.00 | 0.00 | 54 | 1012.0 |
| 20260831203911 | 89 | 17 | 2.6 | 7.8 | 0.00 | 0.00 | 0.00 | 52 | 1012.0 |
| 20260831203816 | 89 | 20 | 2.6 | 8.7 | 0.00 | 0.00 | 0.00 | 53 | 1012.0 |
| 20260831203721 | 89 | 36 | 3.5 | 8.7 | 0.00 | 0.00 | 0.00 | 54 | 1012.0 |
| 20260831203603 | 89 | 39 | 3.5 | 8.7 | 0.00 | 0.00 | 0.00 | 53 | 1012.1 |
| 20260831203509 | 89 | 46 | 3.5 | 8.7 | 0.00 | 0.00 | 0.00 | 53 | 1012.1 |
| 20260831203357 | 89 | 26 | 4.3 | 8.7 | 0.00 | 0.00 | 0.00 | 55 | 1012.0 |
| 20260831203302 | 89 | 31 | 5.2 | 8.7 | 0.00 | 0.00 | 0.00 | 54 | 1012.0 |
| 20260831203207 | 89 | 355 | 4.3 | 8.7 | 0.00 | 0.00 | 0.00 | 55 | 1012.0 |
| 20260831203112 | 89 | 21 | 3.5 | 8.7 | 0.00 | 0.00 | 0.00 | 52 | 1012.0 |
| 20260831202957 | 89 | 90 | 3.5 | 8.7 | 0.00 | 0.00 | 0.00 | 54 | 1012.0 |
| 20260831202902 | 89 | 76 | 3.5 | 7.8 | 0.00 | 0.00 | 0.00 | 53 | 1012.0 |
| 20260831202811 | 89 | 76 | 3.5 | 8.7 | 0.00 | 0.00 | 0.00 | 53 | 1012.0 |
| 20260831202735 | 89 | 79 | 3.5 | 8.7 | 0.00 | 0.00 | 0.00 | 54 | 1012.0 |
| 20260831202618 | 89 | 40 | 3.5 | 8.7 | 0.00 | 0.00 | 0.00 | 53 | 1012.0 |
| 20260831202456 | 88 | 62 | 3.5 | 8.7 | 0.00 | 0.00 | 0.00 | 53 | 1012.0 |
| 20260831202421 | 88 | 72 | 4.3 | 8.7 | 0.00 | 0.00 | 0.00 | 55 | 1012.1 |
| 20260831202306 | 88 | 59 | 4.3 | 8.7 | 0.00 | 0.00 | 0.00 | 54 | 1012.1 |
| 20260831202210 | 88 | 120 | 5.2 | 8.7 | 0.00 | 0.00 | 0.00 | 54 | 1012.1 |
| 20260831202118 | 88 | 86 | 7.0 | 8.7 | 0.00 | 0.00 | 0.00 | 54 | 1012.0 |
| 20260831201956 | 88 | 96 | 5.2 | 8.7 | 0.00 | 0.00 | 0.00 | 55 | 1012.0 |
| 20260831201921 | 88 | 83 | 3.5 | 7.8 | 0.00 | 0.00 | 0.00 | 56 | 1012.0 |
| 20260831201805 | 88 | 88 | 3.5 | 7.8 | 0.00 | 0.00 | 0.00 | 57 | 1012.0 |
| 20260831201710 | 88 | 61 | 3.5 | 7.8 | 0.00 | 0.00 | 0.00 | 59 | 1012.0 |
| 20260831201556 | 88 | 25 | 5.2 | 7.8 | 0.00 | 0.00 | 0.00 | 55 | 1012.0 |
| 20260831201504 | 88 | 94 | 5.2 | 7.8 | 0.00 | 0.00 | 0.00 | 55 | 1012.0 |
| 20260831201409 | 88 | 96 | 5.2 | 7.8 | 0.00 | 0.00 | 0.00 | 56 | 1012.0 |
| 20260831201254 | 88 | 117 | 4.3 | 7.8 | 0.00 | 0.00 | 0.00 | 55 | 1011.9 |
| 20260831201159 | 88 | 106 | 5.2 | 7.8 | 0.00 | 0.00 | 0.00 | 56 | 1012.0 |
| 20260831201103 | 88 | 90 | 5.2 | 7.8 | 0.00 | 0.00 | 0.00 | 56 | 1012.0 |
| 20260831201007 | 88 | 105 | 5.2 | 7.8 | 0.00 | 0.00 | 0.00 | 58 | 1012.0 |
| 20260831200916 | 89 | 73 | 4.3 | 7.8 | 0.00 | 0.00 | 0.00 | 58 | 1012.0 |
| 20260831200754 | 89 | 80 | 3.5 | 8.7 | 0.00 | 0.00 | 0.00 | 59 | 1012.0 |
| 20260831200659 | 89 | 101 | 3.5 | 8.7 | 0.00 | 0.00 | 0.00 | 59 | 1011.9 |
| 20260831200625 | 88 | 113 | 3.5 | 8.7 | 0.00 | 0.00 | 0.00 | 58 | 1012.0 |
| 20260831200528 | 89 | 69 | 4.3 | 8.7 | 0.00 | 0.00 | 0.00 | 57 | 1012.0 |
| 20260831200412 | 89 | 111 | 5.2 | 8.7 | 0.00 | 0.00 | 0.00 | 58 | 1012.0 |
| 20260831200257 | 89 | 79 | 4.3 | 8.7 | 0.00 | 0.00 | 0.00 | 58 | 1012.0 |
| 20260831200206 | 89 | 77 | 5.2 | 8.7 | 0.00 | 0.00 | 0.00 | 58 | 1011.9 |
| 20260831200130 | 89 | 105 | 5.2 | 8.7 | 0.00 | 0.00 | 0.00 | 58 | 1011.9 |
| 20260831200013 | 89 | 111 | 5.2 | 8.7 | 0.00 | 0.00 | 0.00 | 58 | 1011.9 |
| 20260831195858 | 89 | 88 | 3.5 | 7.8 | 0.00 | 0.00 | 0.00 | 58 | 1011.9 |
| 20260831195803 | 89 | 100 | 5.2 | 7.8 | 0.00 | 0.00 | 0.00 | 58 | 1011.9 |
| 20260831195728 | 89 | 94 | 6.1 | 7.8 | 0.00 | 0.00 | 0.00 | 59 | 1011.9 |
| 20260831195612 | 89 | 119 | 5.2 | 7.8 | 0.00 | 0.00 | 0.00 | 59 | 1011.9 |
| 20260831195519 | 89 | 98 | 5.2 | 7.8 | 0.00 | 0.00 | 0.00 | 59 | 1011.9 |
| 20260831195403 | 89 | 78 | 4.3 | 8.7 | 0.00 | 0.00 | 0.00 | 59 | 1011.9 |
| 20260831195308 | 89 | 96 | 3.5 | 8.7 | 0.00 | 0.00 | 0.00 | 60 | 1011.9 |
| 20260831195213 | 89 | 55 | 2.6 | 8.7 | 0.00 | 0.00 | 0.00 | 60 | 1011.9 |
| 20260831195119 | 89 | 26 | 2.6 | 8.7 | 0.00 | 0.00 | 0.00 | 60 | 1011.9 |
| 20260831194955 | 88 | 59 | 3.5 | 8.7 | 0.00 | 0.00 | 0.00 | 61 | 1011.9 |
| 20260831194904 | 88 | 43 | 3.5 | 8.7 | 0.00 | 0.00 | 0.00 | 63 | 1011.9 |
| 20260831194809 | 88 | 30 | 2.6 | 8.7 | 0.00 | 0.00 | 0.00 | 62 | 1011.9 |
| 20260831194654 | 88 | 64 | 3.5 | 8.7 | 0.00 | 0.00 | 0.00 | 59 | 1011.9 |
| 20260831194559 | 88 | 64 | 4.3 | 8.7 | 0.00 | 0.00 | 0.00 | 60 | 1011.9 |
| 20260831194505 | 88 | 113 | 3.5 | 8.7 | 0.00 | 0.00 | 0.00 | 62 | 1011.9 |
| 20260831194408 | 88 | 111 | 2.6 | 8.7 | 0.00 | 0.00 | 0.00 | 58 | 1011.9 |
| 20260831194257 | 88 | 88 | 1.7 | 11.3 | 0.00 | 0.00 | 0.00 | 60 | 1011.8 |
| 20260831194202 | 88 | 89 | 2.6 | 12.2 | 0.00 | 0.00 | 0.00 | 59 | 1011.8 |
| 20260831194107 | 88 | 88 | 3.5 | 12.2 | 0.00 | 0.00 | 0.00 | 59 | 1011.8 |
| 20260831194012 | 88 | 85 | 5.2 | 12.2 | 0.00 | 0.00 | 0.00 | 59 | 1011.9 |
| 20260831193916 | 88 | 76 | 6.1 | 12.2 | 0.00 | 0.00 | 0.00 | 61 | 1011.9 |
| 20260831193800 | 88 | 69 | 5.2 | 12.2 | 0.00 | 0.00 | 0.00 | 61 | 1011.9 |
| 20260831193724 | 88 | 71 | 4.3 | 12.2 | 0.00 | 0.00 | 0.00 | 62 | 1011.9 |
| 20260831193612 | 88 | 44 | 6.1 | 12.2 | 0.00 | 0.00 | 0.00 | 62 | 1011.9 |
| 20260831193458 | 88 | 61 | 7.8 | 12.2 | 0.00 | 0.00 | 0.00 | 64 | 1011.9 |
| 20260831193402 | 88 | 28 | 5.2 | 12.2 | 0.00 | 0.00 | 0.00 | 65 | 1011.9 |
| 20260831193306 | 88 | 26 | 2.6 | 8.7 | 0.00 | 0.00 | 0.00 | 63 | 1011.9 |
| 20260831193211 | 88 | 32 | 1.7 | 8.7 | 0.00 | 0.00 | 0.00 | 63 | 1011.9 |
| 20260831193100 | 88 | 137 | 1.7 | 8.7 | 0.00 | 0.00 | 0.00 | 60 | 1011.9 |
| 20260831193004 | 88 | 138 | 3.5 | 8.7 | 0.00 | 0.00 | 0.00 | 60 | 1012.0 |
| 20260831192909 | 88 | 90 | 5.2 | 8.7 | 0.00 | 0.00 | 0.00 | 62 | 1012.0 |
| 20260831192754 | 88 | 89 | 4.3 | 10.4 | 0.00 | 0.00 | 0.00 | 62 | 1011.9 |
| 20260831192719 | 88 | 91 | 3.5 | 10.4 | 0.00 | 0.00 | 0.00 | 61 | 1012.0 |
| 20260831192602 | 88 | 82 | 3.5 | 10.4 | 0.00 | 0.00 | 0.00 | 60 | 1012.0 |
| 20260831192507 | 88 | 36 | 4.3 | 10.4 | 0.00 | 0.00 | 0.00 | 62 | 1012.0 |
| 20260831192356 | 88 | 63 | 4.3 | 10.4 | 0.00 | 0.00 | 0.00 | 61 | 1011.9 |
| 20260831192305 | 88 | 60 | 4.3 | 10.4 | 0.00 | 0.00 | 0.00 | 61 | 1011.9 |
| 20260831192206 | 88 | 100 | 4.3 | 10.4 | 0.00 | 0.00 | 0.00 | 63 | 1011.9 |
| 20260831192111 | 88 | 105 | 5.2 | 10.4 | 0.00 | 0.00 | 0.00 | 60 | 1011.9 |
| 20260831191956 | 88 | 80 | 6.1 | 10.4 | 0.00 | 0.00 | 0.00 | 60 | 1011.9 |
| 20260831191905 | 88 | 94 | 6.1 | 9.6 | 0.00 | 0.00 | 0.00 | 61 | 1011.9 |
| 20260831191810 | 88 | 100 | 5.2 | 9.6 | 0.00 | 0.00 | 0.00 | 61 | 1011.9 |
| 20260831191656 | 88 | 87 | 3.5 | 8.7 | 0.00 | 0.00 | 0.00 | 64 | 1011.9 |
| 20260831191620 | 88 | 46 | 2.6 | 8.7 | 0.00 | 0.00 | 0.00 | 64 | 1011.9 |
| 20260831191458 | 88 | 80 | 5.2 | 8.7 | 0.00 | 0.00 | 0.00 | 64 | 1012.0 |
| 20260831191403 | 88 | 66 | 7.0 | 8.7 | 0.00 | 0.00 | 0.00 | 64 | 1012.0 |
| 20260831191311 | 88 | 84 | 5.2 | 8.7 | 0.00 | 0.00 | 0.00 | 62 | 1012.0 |
| 20260831191156 | 88 | 88 | 3.5 | 7.8 | 0.00 | 0.00 | 0.00 | 64 | 1011.9 |
| 20260831191101 | 88 | 32 | 4.3 | 7.8 | 0.00 | 0.00 | 0.00 | 64 | 1011.9 |
| 20260831191005 | 88 | 75 | 4.3 | 7.8 | 0.00 | 0.00 | 0.00 | 64 | 1011.9 |
| 20260831190910 | 88 | 360 | 4.3 | 8.7 | 0.00 | 0.00 | 0.00 | 65 | 1011.9 |
| 20260831190755 | 87 | 32 | 4.3 | 8.7 | 0.00 | 0.00 | 0.00 | 66 | 1011.9 |
| 20260831190704 | 87 | 42 | 3.5 | 8.7 | 0.00 | 0.00 | 0.00 | 65 | 1011.9 |
| 20260831190609 | 87 | 32 | 1.7 | 8.7 | 0.00 | 0.00 | 0.00 | 65 | 1011.9 |